ECMWFFLT1_con_mucape_069.txt.gz
CAPE
919 814 766 768 726 732 706 643 609 566 528 492 458 437 414 404 416 66 150 141 214 188 176 169 278 289 269 192 69 61 14 0 0 0 0 0 0 0 31 366 852 1014 1242 1410 1582 1802 1987 2188 2327 2346 2423 2431 2382 2339 2317 2374 2449 2492 2539 2566 2543 2401 2100
1032 944 875 833 810 802 741 680 642 593 578 513 478 443 432 439 326 48 139 128 172 209 233 203 334 318 298 268 131 31 10 0 6 28 0 0 0 0 0 0 223 802 1044 1222 1359 1572 1746 1991 2296 2370 2394 2407 2407 2400 2377 2409 2500 2540 2555 2515 2424 2310 2186
1115 1056 976 907 866 844 790 696 647 614 620 602 480 454 450 449 447 428 410 407 155 195 276 270 337 328 330 301 220 70 8 0 1 3 0 0 0 0 0 0 5 246 794 981 1091 1280 1421 1627 2057 2333 2371 2399 2366 2350 2358 2391 2430 2410 2365 2370 2361 2276 2104
1134 1122 1061 974 896 857 815 761 676 634 662 678 604 466 440 458 442 433 422 454 433 184 275 332 333 324 334 330 281 154 32 2 0 0 0 0 0 0 0 0 0 2 170 402 841 1004 1171 1342 1774 2160 2611 2406 2402 2372 2361 2376 2420 2376 2296 2270 2272 2193 1977
1104 1162 1114 1055 1018 952 890 829 761 732 729 731 688 568 474 448 454 457 366 359 123 161 214 317 394 354 319 312 329 245 118 14 1 0 0 0 0 0 0 0 0 0 33 230 412 787 990 1117 1468 1979 2248 2360 2405 2392 2392 2402 2412 2386 2336 2240 2170 2065 1928
1016 1098 1146 1118 1051 1016 951 891 822 796 775 754 734 649 537 502 490 476 460 242 138 140 149 230 382 501 366 291 316 305 212 53 2 0 0 0 0 0 0 0 0 0 0 125 439 565 864 959 1128 1643 2054 2275 2363 2392 2410 2452 2419 2415 2424 2332 2173 2032 1967
996 1024 1064 1074 1072 1038 990 941 893 854 826 802 764 676 577 547 534 498 466 447 156 135 139 208 300 431 443 314 245 280 244 194 29 0 0 0 0 0 0 0 0 0 0 72 269 489 811 916 974 1212 1693 2096 2284 2338 2372 2390 2392 2407 2429 2414 2279 2079 2006
910 1006 1042 1015 1009 1003 987 958 937 883 838 812 793 701 601 572 559 526 502 479 401 150 136 236 435 332 418 386 260 186 187 210 145 10 0 0 0 0 0 0 0 0 0 16 110 330 708 873 970 1044 1224 1616 2007 2183 2218 2218 2246 2305 2349 2381 2322 2207 2124
690 922 1038 1048 995 941 908 907 902 878 847 818 763 707 627 584 540 540 534 514 474 234 314 321 371 462 450 405 339 220 144 120 144 99 5 0 0 0 0 0 0 0 0 0 8 164 356 725 897 1030 1138 1228 1494 1825 1991 2050 2093 2145 2228 2273 2310 2274 2227
703 806 871 936 930 925 862 828 838 819 802 794 763 708 652 602 559 562 564 552 513 478 475 478 480 488 498 475 451 341 206 115 96 94 69 8 0 0 0 0 0 0 0 0 0 0 170 220 688 896 1073 1190 1285 1474 1707 1863 1945 1997 2081 2177 2224 2254 2245
739 768 781 806 857 881 854 813 762 750 766 748 716 670 652 621 622 634 598 557 538 521 515 500 496 492 503 525 568 503 374 250 144 105 90 64 6 0 0 0 0 1 1 0 0 0 0 116 97 116 731 1035 1208 1330 1488 1640 1763 1853 1945 2068 2148 2178 2208
732 718 795 806 823 815 823 816 816 810 828 760 736 724 705 690 682 647 596 571 548 551 538 534 520 514 518 549 578 591 578 438 312 214 149 90 25 0 0 0 0 0 0 16 0 0 0 0 66 119 50 162 657 1014 1269 1464 1600 1719 1835 1960 2089 2167 2206
766 754 757 797 812 804 939 1056 1043 1030 1042 1066 863 792 715 694 676 632 594 568 563 554 550 548 540 542 554 591 747 799 670 678 686 668 382 209 110 13 0 0 0 0 0 1 29 26 6 0 2 124 132 89 128 342 770 1176 1450 1618 1744 1862 1997 2135 2198
733 766 814 790 846 904 934 1030 1128 1155 1131 1096 975 922 887 815 766 734 682 612 599 640 836 741 563 576 622 628 658 831 874 779 770 782 764 731 512 136 42 0 0 0 0 0 0 53 85 70 38 42 182 199 174 209 418 761 1148 1453 1646 1765 1888 2043 2172
588 821 834 875 859 887 932 1054 1150 1226 1244 1215 1166 1123 937 926 1032 907 790 754 708 649 1031 1032 896 762 724 727 744 773 923 946 861 890 907 906 892 880 790 238 17 0 0 0 0 1 70 143 143 122 144 263 324 329 411 591 868 1188 1462 1659 1784 1891 2041
314 625 838 882 891 891 933 1020 1153 1246 1285 1324 1315 1236 1150 1182 1205 1199 1572 1204 1010 1156 1550 1416 1188 1090 982 922 912 899 921 942 968 1000 1023 1018 1018 1008 984 968 872 593 0 0 0 0 1 78 198 237 213 226 352 472 559 644 764 1079 1258 1488 1643 1766 1870
220 396 570 773 815 872 878 957 1078 1210 1300 1358 1403 1395 1349 1248 1206 1298 1272 1205 1106 998 1297 1386 1396 1366 1387 1243 1120 1063 1028 1014 1026 1053 1074 1089 1062 1064 1054 1041 1059 1024 901 666 0 0 1 20 97 253 326 296 311 466 664 775 820 928 1084 1294 1503 1626 1731
133 214 355 552 671 746 790 866 952 1071 1183 1293 1358 1446 1484 1414 1320 1235 1312 1384 1081 1128 1068 930 1232 1382 1425 1444 1451 1324 1142 1152 1128 1151 1157 1168 1163 1153 1122 1125 1121 1111 1112 1063 967 814 256 0 34 115 261 359 373 405 584 765 882 970 1040 1140 1302 1480 1580
82 101 130 246 458 609 657 709 852 1010 1088 1145 1247 1317 1322 1403 1439 1454 1433 1386 1338 1176 1000 1090 1070 1256 1364 1515 1510 1430 1465 1374 1282 1219 1278 1284 1286 1234 1223 1240 1236 1229 1235 1244 1247 1237 1102 822 108 80 163 299 379 422 509 690 843 994 1085 1145 1202 1306 1438
72 56 16 82 154 432 578 618 608 756 970 1091 1120 1121 1216 1317 1383 1423 1449 1476 1509 1438 1264 1248 1079 1099 1480 1476 1478 1480 1574 1561 1444 1261 1274 1386 1359 1366 1366 1369 1351 1342 1365 1446 1544 1560 1469 1370 1118 724 300 295 367 450 494 611 773 954 1072 1155 1218 1266 1328
70 55 48 19 57 209 388 476 563 524 516 697 622 793 1073 1315 1263 1372 1428 1520 1570 1654 1647 1636 1392 1114 1235 1541 1563 1577 1700 1774 1714 1602 1430 1489 1446 1473 1502 1513 1482 1452 1451 1500 1733 1959 1916 1726 1416 1032 634 411 469 502 582 641 755 894 1051 1149 1224 1277 1313
54 110 71 43 80 118 195 279 304 345 380 352 332 428 843 1134 1274 1333 1411 1556 1595 1654 1666 1594 1454 1213 1177 1412 1788 1840 1827 1896 1868 1797 1784 1724 1660 1656 1693 1669 1612 1551 1514 1628 1767 2040 2274 2248 1956 1453 1075 692 618 650 699 740 783 875 990 1123 1212 1282 1333
0 0 10 46 19 63 0 0 0 127 134 243 154 199 381 767 1214 1142 1337 1358 1462 1457 1404 1389 1412 1421 1410 1339 1316 1725 2001 2074 2035 2005 1976 1978 1996 1954 1932 1902 1819 1780 1720 1745 1894 2037 2256 2398 2283 1937 1379 953 733 784 808 838 882 921 976 1056 1174 1248 1312
0 0 0 0 0 0 0 0 0 0 0 0 67 0 168 272 655 772 104 848 1220 1263 1344 1346 1393 1490 1446 1332 1248 1146 1350 1791 2088 2186 2198 2263 2315 2262 2190 2122 2066 1948 1915 1912 1970 2096 2289 2419 2488 2402 1983 1314 925 900 910 924 946 992 1026 1065 1121 1180 1246
0 0 0 0 0 0 0 0 0 0 0 0 0 47 86 147 218 471 990 1156 1252 1287 1356 1500 1581 1768 1828 1804 1760 1527 1213 1212 1323 1492 1940 2195 2303 2260 2137 2047 1998 1983 2010 2030 2057 2100 2213 2354 2503 2622 2465 1904 1232 938 971 973 988 1028 1069 1111 1152 1183 1226
0 0 0 0 0 0 0 0 0 0 0 0 0 0 0 0 0 154 479 803 1132 1172 1376 1603 1754 1911 2034 2007 1987 1946 1873 1731 1486 1453 1430 1478 1715 1800 1779 1876 2046 2104 2114 2136 2140 2146 2175 2261 2450 2682 2772 2520 1916 1192 1008 1024 1031 1054 1102 1152 1179 1218 1248
0 0 0 0 0 0 0 0 0 0 0 0 0 0 0 0 0 0 310 526 718 952 1210 1436 1674 1864 1980 2106 2206 2335 2409 2298 2036 1895 1800 1665 1539 1483 1768 2000 2093 2134 2160 2193 2206 2209 2208 2268 2382 2556 2767 2750 2417 1822 1192 1091 1093 1090 1138 1176 1213 1251 1278
0 0 0 0 0 0 0 0 0 0 0 0 0 0 0 0 0 0 95 276 423 655 940 1264 1494 1636 1836 1966 2161 2290 3090 3422 3352 2872 2266 1990 1843 1662 1527 2004 2130 2157 2196 2204 2232 2247 2261 2307 2391 2454 2680 2860 2687 2264 1688 1232 1216 1194 1200 1220 1258 1300 1322
0 0 0 0 0 0 0 0 0 0 0 0 0 0 0 0 0 1 2 176 252 280 568 858 1163 1448 1587 1786 1903 2042 2330 3072 3268 3124 2975 2659 2250 1991 1765 2044 2169 2214 2226 2250 2276 2310 2336 2384 2447 2486 2662 2856 2850 2608 2187 1660 1320 1311 1316 1316 1330 1349 1348
0 0 0 0 0 0 0 0 0 0 0 0 0 0 0 0 0 1 2 132 222 167 1 0 198 246 760 1345 1715 1777 1969 2706 2805 2546 2812 3068 2878 2413 2089 2105 2256 2290 2292 2328 2355 2385 2417 2466 2527 2612 2744 2845 2885 2813 2530 2200 1812 1456 1428 1430 1438 1454 1459
0 0 0 0 0 0 0 0 0 0 0 0 0 0 0 0 0 1 1 1 3 4 4 2 1 104 340 726 1274 1658 1899 2676 3119 2965 2900 3017 2940 2806 2402 2266 2344 2368 2398 2409 2429 2480 2526 2572 2606 2695 2767 2807 2827 2842 2736 2463 2304 1991 1629 1534 1542 1557 1554
0 0 0 0 0 0 0 0 0 0 0 0 0 0 0 0 0 0 0 0 2 2 2 2 7 173 480 769 1000 1551 2192 2978 2908 2900 3019 3127 3087 3020 2839 2435 2445 2444 2466 2500 2536 2570 2624 2655 2712 2760 2790 2779 2750 2783 2820 2663 2466 2278 2068 1778 1644 1648 1643
0 0 0 0 0 0 0 0 0 0 0 0 0 0 0 0 0 0 0 0 2 1 3 3 4 51 156 318 826 2008 2542 2426 2406 2548 2690 2855 3029 3193 3043 2768 2488 2535 2535 2584 2619 2657 2687 2708 2760 2804 2785 2735 2712 2708 2753 2720 2556 2405 2278 2098 1768 1695 1710
0 0 0 0 0 0 0 0 0 0 0 0 0 0 0 0 0 0 0 0 0 3 3 3 4 4 13 90 397 1171 1934 1985 2083 2335 2600 2804 3133 3345 3322 3035 2665 2604 2616 2647 2682 2689 2693 2701 2740 2758 2722 2693 2666 2654 2692 2692 2602 2454 2336 2247 2074 1831 1733
0 0 0 0 0 0 0 0 0 0 0 0 0 0 0 0 0 0 0 0 0 4 3 2 4 3 4 28 316 856 1407 1659 1894 2154 2436 2631 3057 3426 3456 3391 2994 2650 2680 2672 2668 2649 2653 2651 2639 2602 2598 2604 2578 2582 2580 2572 2556 2496 2352 2311 2217 2084 1858
0 0 0 0 0 0 0 0 0 0 0 0 0 0 0 0 0 0 0 0 0 3 2 3 2 2 2 23 277 592 1170 1560 1546 1537 1801 2407 3154 3611 3592 3396 3243 3022 2687 2710 2686 2666 2630 2555 2501 2474 2464 2491 2521 2494 2485 2487 2494 2428 2338 2343 2292 2192 2022
0 0 0 0 0 0 0 0 0 0 0 0 0 0 0 0 0 0 0 0 0 2 1 1 2 3 4 6 157 560 1136 1185 1116 1246 1882 2500 3182 3621 3667 3538 3291 3078 2842 2642 2689 2660 2641 2640 2609 2542 2493 2478 2440 2393 2442 2478 2469 2462 2516 2523 2443 2386 2264
0 0 0 0 0 0 0 0 0 0 0 0 0 0 0 0 0 0 0 0 0 0 0 0 2 2 2 2 47 422 886 1022 1116 1612 2109 2551 3189 3656 3723 3461 3151 3005 2893 2889 2825 2723 2725 2697 2699 2707 2701 2687 2627 2598 2611 2649 2623 2623 2648 2618 2615 2537 2421

ECMWFFLT1_con_mucape_072.txt.gz
CAPE
717 678 635 574 590 639 662 663 696 711 710 708 693 661 598 539 19 35 136 217 311 261 196 222 290 313 326 282 255 210 72 12 0 0 0 0 0 122 575 946 1223 1322 1402 1580 1707 1862 2034 2237 2383 2497 2557 2547 2444 2353 2294 2370 2456 2552 2488 2510 2515 2461 2415
710 724 683 642 602 618 665 708 728 743 743 730 723 689 630 578 377 28 101 179 249 251 186 186 335 299 326 310 226 207 114 31 12 23 0 0 1 6 268 519 854 1018 1130 1314 1471 1650 1812 1999 2189 2316 2384 2468 2492 2383 2352 2325 2327 2366 2352 2377 2456 2510 2514
781 799 802 759 728 688 712 730 741 773 767 757 699 680 658 608 540 252 78 149 225 230 175 171 314 299 321 311 203 177 142 61 26 8 0 0 0 0 20 244 465 748 888 1045 1224 1388 1591 1734 1938 2130 2250 2347 2401 2412 2410 2378 2313 2278 2337 2411 2472 2485 2462
828 839 838 822 816 810 796 785 775 778 779 779 733 717 660 626 560 478 44 341 355 373 186 153 211 288 310 311 238 161 134 98 48 25 7 0 0 0 0 3 89 304 551 806 986 1151 1368 1517 1745 1975 2688 2294 2356 2415 2418 2399 2362 2318 2356 2381 2386 2359 2296
628 870 865 863 869 858 839 796 776 768 750 723 728 729 726 653 601 567 486 416 416 404 419 148 164 259 322 312 293 195 156 115 69 40 27 3 0 0 0 0 0 18 275 467 706 1024 1158 1303 1498 1784 2143 2282 2316 2381 2416 2398 2380 2354 2325 2340 2365 2303 2196
333 743 944 915 886 862 822 796 764 747 740 722 739 752 753 725 647 618 585 508 454 434 426 282 369 339 343 321 326 277 183 123 102 85 37 18 1 0 0 0 0 0 2 150 549 682 894 1056 1224 1597 1824 2108 2211 2291 2349 2390 2385 2361 2338 2360 2372 2287 2158
364 613 907 981 936 890 819 780 748 739 703 715 725 740 755 748 692 654 653 587 505 206 447 455 462 419 392 378 343 386 247 147 78 55 40 19 6 0 0 0 0 0 0 11 209 479 629 840 987 1308 1649 1936 2189 2207 2224 2288 2332 2324 2334 2356 2384 2306 2197
442 637 792 988 1025 966 916 859 818 771 722 749 717 734 752 744 678 645 659 667 600 448 126 462 469 447 418 408 384 331 312 201 81 48 27 14 9 26 0 0 0 0 0 0 18 286 522 671 775 1055 1400 1757 1987 2124 2173 2140 2178 2216 2284 2346 2370 2303 2250
573 666 820 921 1010 1066 1030 990 909 884 845 836 788 714 695 698 688 665 648 678 682 586 491 457 464 473 456 419 316 380 336 264 154 41 6 3 2 10 10 0 0 0 0 0 1 161 359 513 675 826 1091 1451 1771 1947 2063 2064 2060 2119 2196 2276 2302 2258 2208
669 742 870 921 985 1022 1055 1055 1033 957 896 910 862 811 779 684 669 658 630 675 693 656 579 519 504 488 475 470 313 284 368 395 227 82 7 0 1 2 4 4 0 0 0 0 0 47 300 412 580 760 868 1075 1406 1678 1881 1950 1951 2003 2069 2143 2174 2169 2157
658 747 830 943 974 1007 1030 1028 1026 997 922 929 906 856 847 823 753 641 671 674 661 638 614 562 527 528 506 475 451 258 254 374 427 417 94 11 5 7 2 0 0 0 0 0 0 1 103 375 474 655 798 919 1039 1261 1526 1743 1802 1835 1890 2011 2088 2133 2132
723 754 834 921 976 997 1010 1019 1015 1002 974 941 924 918 886 833 818 823 790 686 646 639 630 580 559 542 540 519 463 378 285 355 434 458 461 372 28 9 3 0 0 0 0 0 0 0 0 112 286 479 634 820 936 1014 1190 1403 1579 1671 1780 1868 1961 2029 2080
690 785 803 874 946 978 1014 1031 1005 1006 985 950 937 953 920 877 848 790 804 806 780 726 634 608 579 569 554 550 520 472 442 433 436 454 477 458 432 340 82 0 0 0 0 7 0 0 0 0 53 309 350 507 750 942 1044 1171 1344 1476 1581 1715 1830 1946 2064
426 674 764 783 884 939 977 968 991 986 977 959 931 921 931 920 900 868 775 737 759 755 692 644 598 602 646 616 595 542 507 492 477 470 476 499 517 507 498 444 2 0 0 0 2 1 0 0 0 3 170 172 266 514 815 1040 1206 1326 1415 1545 1670 1827 1939
468 588 708 780 884 950 941 984 980 952 938 919 905 875 880 890 898 881 849 836 713 724 706 686 652 702 734 727 682 631 612 588 562 546 514 536 553 584 629 633 616 547 0 0 0 0 3 3 0 0 3 63 96 111 249 560 916 1162 1301 1411 1536 1669 1832
286 552 656 731 841 910 966 968 978 998 969 935 900 862 833 871 841 806 804 779 781 691 728 722 744 760 767 764 749 720 698 680 659 652 657 634 631 630 671 700 723 721 698 0 0 0 0 0 3 3 3 9 60 112 137 194 387 685 788 984 1322 1508 1643
41 289 436 528 598 798 893 922 938 974 1056 1045 1010 992 941 903 854 831 792 765 758 858 1026 736 746 743 732 746 750 737 718 715 697 716 743 754 736 721 733 744 776 783 774 790 792 734 581 0 0 10 31 35 44 94 171 233 255 99 1 589 847 1208 1479
7 66 253 444 532 585 730 834 896 962 1027 1095 1123 1093 1024 1001 920 891 857 824 811 803 814 1168 848 787 793 783 753 769 772 741 733 715 764 791 805 838 862 874 852 883 895 887 874 864 869 845 766 632 198 57 82 100 152 245 181 0 0 0 317 791 1248
29 6 27 185 406 454 514 697 807 892 958 987 998 1066 1122 1107 1064 1007 926 922 1002 859 1045 1183 1248 1095 887 864 814 778 782 793 755 767 816 822 808 816 885 932 974 1030 1044 1049 1016 992 966 958 972 956 894 762 618 358 167 242 64 0 0 0 0 288 853
47 23 4 32 118 286 390 469 590 646 674 715 754 822 1020 1078 1082 1048 840 856 871 1128 1079 1270 1225 1157 1020 902 939 937 829 856 820 926 874 895 911 864 831 859 968 1063 1134 1142 1143 1102 1074 1053 1060 1097 1091 1050 969 846 716 455 107 0 0 0 0 0 619
59 76 38 11 41 95 193 294 374 447 448 524 416 527 562 819 883 928 719 397 722 1221 1263 1121 1301 1261 1140 1038 1067 1013 936 856 905 905 924 956 992 990 927 916 924 932 989 1148 1197 1203 1174 1150 1146 1154 1194 1218 1206 1159 1066 954 845 646 0 0 0 0 542
41 83 66 41 17 7 86 157 242 270 310 337 320 313 367 466 452 532 699 589 709 1043 1126 1248 1201 1147 1265 1312 1235 1199 1095 992 958 1150 1072 1090 1130 1130 1054 982 1009 962 910 1018 1124 1188 1216 1237 1218 1238 1231 1286 1427 1517 1458 1301 1104 920 519 0 0 0 0
0 9 46 21 16 20 21 43 111 152 131 154 223 251 244 277 306 382 521 612 594 671 932 1280 1242 1232 1213 1237 1249 1188 1146 1120 1089 1071 1189 1246 1270 1219 1164 1116 1119 1112 980 1023 1032 1213 1318 1364 1390 1364 1288 1217 1237 1615 1716 1615 1391 1075 817 0 0 0 0
0 0 0 0 0 0 0 0 0 18 95 106 107 150 206 165 213 178 0 296 507 385 649 1123 1252 1299 1383 1314 1136 1149 1177 1220 1172 1177 1334 1358 1366 1323 1262 1235 1241 1292 1310 1196 1186 1320 1447 1504 1527 1514 1416 1271 1187 1208 1765 1930 1771 1438 1057 692 58 0 14
0 0 0 0 0 0 0 0 0 0 0 44 88 33 64 119 65 94 8 0 221 362 452 888 1058 1320 1334 1236 1172 1206 1174 1190 1168 1097 1285 1438 1490 1439 1395 1375 1401 1443 1444 1447 1465 1535 1648 1680 1688 1646 1604 1540 1365 1267 1393 1871 2142 2033 1588 1105 735 231 50
0 0 0 0 0 0 0 0 0 0 0 0 0 0 0 0 41 41 0 10 144 288 636 921 967 1041 1142 1235 1341 1420 1447 1421 1332 1249 1236 1246 1427 1529 1589 1593 1579 1609 1668 1690 1685 1712 1782 1837 1818 1771 1719 1681 1589 1430 1384 1615 2145 2321 2162 1651 1134 762 435
0 0 0 0 0 0 0 0 0 0 0 0 0 0 0 0 0 10 23 16 24 219 375 418 591 843 882 941 1115 1374 1572 1659 1702 1658 1502 1305 1151 1312 1456 1634 1745 1807 1832 1814 1807 1838 1891 1935 1929 1838 1780 1723 1644 1556 1493 1638 1991 2421 2442 2205 1670 1151 789
0 0 0 0 0 0 0 0 0 0 0 0 0 0 0 0 0 0 0 0 33 109 208 314 337 558 624 757 846 802 1256 1473 1878 2115 2141 1994 1755 1504 1284 1288 1350 1584 1732 1822 1850 1889 1927 1931 1896 1841 1776 1730 1671 1619 1611 1799 2099 2351 2532 2463 2150 1603 1122
0 0 0 0 0 0 0 0 0 0 0 0 0 0 0 0 0 0 0 0 0 0 0 171 208 362 433 520 548 670 894 1167 1528 1773 1857 1594 1954 2041 1934 1793 1609 1484 1768 1880 1849 1791 1820 1821 1816 1786 1766 1734 1694 1663 1655 1742 2145 2304 2466 2545 2403 2020 1566
0 0 0 0 0 0 0 0 0 0 0 0 0 0 0 0 0 0 0 0 0 0 0 126 238 272 335 363 427 614 718 984 1161 1136 1932 2278 2365 2385 2349 2057 1886 1773 1630 1811 1911 1936 1886 1750 1756 1743 1754 1772 1736 1714 1720 1854 2109 2361 2471 2567 2558 2338 1943
0 0 0 0 0 0 0 0 0 0 0 0 0 0 0 0 0 0 0 0 0 0 0 0 144 244 275 261 295 390 500 567 1188 1281 1447 1746 1969 2468 2579 2586 2271 2021 1885 1738 1916 1962 1969 1930 1777 1767 1783 1771 1769 1762 1757 1985 2296 2443 2472 2548 2620 2543 2303
0 0 0 0 0 0 0 0 0 0 0 0 0 0 0 0 0 0 0 0 0 0 0 0 89 137 187 185 82 212 325 428 811 2245 1930 1909 1912 2207 2474 2626 2618 2373 2115 1928 1982 2057 2027 2015 1814 1803 1785 1796 1807 1816 1818 1990 2238 2292 2358 2455 2536 2555 2501
0 0 0 0 0 0 0 0 0 0 0 0 0 0 0 0 0 0 0 0 0 0 0 1 1 129 177 192 179 30 2 18 181 802 1308 1884 2113 2258 2233 2445 2702 2669 2334 2090 1964 2132 2135 2065 1891 1866 1828 1842 1855 1873 1891 1918 2023 2164 2303 2416 2462 2463 2488
0 0 0 0 0 0 0 0 0 0 0 0 0 0 0 0 0 0 0 0 0 0 0 1 2 81 184 186 88 2 2 4 85 540 955 1165 1461 1959 2421 2421 2738 2892 2763 2349 1953 1807 2131 2181 2044 1993 1956 1902 1904 1912 1941 1989 2061 2152 2292 2386 2428 2405 2375
0 0 0 0 0 0 0 0 0 0 0 0 0 0 0 0 0 0 0 0 0 0 0 1 2 5 2 91 2 2 3 6 67 354 764 1129 1320 1460 1726 2123 2573 2588 2623 2533 2384 2070 2048 2226 2140 2078 2050 1983 1946 1948 1980 2018 2070 2128 2170 2291 2339 2312 2274
0 0 0 0 0 0 0 0 0 0 0 0 0 0 0 0 0 0 0 0 0 0 0 1 2 1 1 1 1 1 3 4 30 234 622 736 837 910 1080 1498 2454 2874 2704 2699 2658 2377 2227 2157 2285 2180 2102 2066 2047 2022 2033 2028 2013 1972 2013 2135 2184 2221 2221
0 0 0 0 0 0 0 0 0 0 0 0 0 0 0 0 0 0 0 0 0 0 0 0 2 2 1 2 2 1 2 2 2 37 302 527 707 955 1009 1341 1797 2812 3234 3273 3164 3100 2953 2717 2476 2256 2091 2122 2117 2095 2063 2044 1988 1941 1949 1972 2024 2102 2068
0 0 0 0 0 0 0 0 0 8 16 2 0 0 0 0 0 0 0 0 0 0 0 1 1 1 1 2 2 2 3 41 128 174 333 638 744 767 982 1467 1990 2625 3124 3362 3348 3222 3106 3028 2876 2663 2455 2287 2194 2142 2118 2104 2086 2044 2030 2021 2041 2099 2084

ECMWFFLT1_con_mucape_075.txt.gz
CAPE
1110 1135 1106 1116 1023 875 836 760 686 661 653 626 845 805 624 575 821 1045 1037 1314 1439 1668 1677 1669 1610 1605 1675 1674 1682 1720 1554 1503 1368 1262 1181 1205 1238 1603 2052 2079 2370 2936 2821 3029 3200 3375 3513 3563 3621 3574 3594 3504 3486 3577 3745 3870 3879 3771 3955 4173 3978 3827 3735
1096 1074 1072 1083 1077 1046 898 890 795 713 703 708 667 901 639 632 929 967 1081 1365 1458 1635 1600 1553 1594 1585 1648 1707 1650 1750 1644 1484 1385 1359 1153 1359 1450 1620 1761 2202 2436 3035 3190 2958 3267 3484 3575 3589 3606 3651 3698 3756 3571 3961 3751 3807 3798 3835 3540 4091 3852 4007 3866
810 823 1119 1034 1052 1066 1103 917 1061 742 710 744 775 627 673 818 978 929 1125 1183 1363 1523 1529 1488 1595 1545 1558 1696 1634 1686 1602 1445 1354 1182 1075 933 952 723 1139 1814 2236 2398 2470 2806 3160 3142 3145 3192 3441 3613 3645 3601 3353 3896 3834 3785 3946 3758 3719 3840 3672 3656 4091
630 711 831 1092 1073 1081 1122 1089 1072 805 682 714 719 652 666 1081 759 1079 1077 1039 1246 1400 1479 1368 1419 1392 1453 1580 1580 1604 1546 1506 1333 1052 915 840 868 772 1084 1491 1831 1876 2281 2389 2410 2598 2486 2916 3250 3516 3548 3617 3654 3648 3601 3605 3539 3784 3793 3918 3538 3415 3950
226 596 708 906 1010 1091 1095 1068 1064 942 624 622 639 632 664 696 710 742 738 732 959 1147 1197 1200 1162 1227 1344 1434 1350 1357 1413 1418 1356 1127 1055 950 964 966 872 775 1178 1354 1619 1891 2330 2644 2701 2870 2815 3179 3398 3624 3636 3742 3730 3814 3655 3900 3810 3926 3699 3508 3444
321 371 611 856 928 996 1023 1060 995 932 638 592 584 601 642 653 675 702 686 700 675 995 1142 1152 1104 1243 1332 1285 1253 1187 1351 1423 1430 1358 1164 1142 1121 856 769 812 899 1072 1283 1683 1913 2051 2509 2552 2556 2836 2915 3133 3108 3039 3310 3513 3466 3658 3831 3843 3666 3417 3147
488 508 610 750 878 928 915 884 742 778 726 666 682 670 699 704 685 610 632 656 676 890 955 997 966 1091 1335 1214 1234 1326 1364 1300 1378 1239 1116 1046 976 886 779 800 841 785 888 1485 1613 1824 2044 2287 2504 2746 2791 2726 3012 2923 3204 3574 3474 3573 3709 3835 3858 3854 3799
561 619 710 741 841 853 840 876 879 846 810 791 817 822 771 767 674 626 523 509 489 559 594 586 885 1047 1212 1219 1216 1222 1240 1138 1106 1157 1107 980 943 880 792 789 794 789 913 996 1293 1573 1548 2012 2073 2343 2585 2605 2872 3089 3280 3606 3716 3472 3382 3651 3701 3755 3483
680 696 730 826 861 920 914 1093 941 895 886 880 857 845 834 798 1072 871 695 869 779 419 534 571 575 808 1160 1239 1267 1276 1183 1107 1130 1092 1068 943 869 805 693 716 691 729 700 475 606 1225 1268 1647 1599 2183 2502 2425 2738 3231 3135 3580 3484 3333 3426 3429 3640 3614 3309
718 792 850 838 911 964 1002 997 1000 962 955 952 915 922 921 925 910 832 728 800 594 467 414 506 601 619 1082 1188 1149 1182 1184 1240 1120 946 912 826 802 773 723 642 605 707 533 468 413 698 1126 1315 1472 2005 2322 2316 2533 2954 2890 3204 3118 3226 3290 3480 3512 3533 3641
708 801 824 915 921 994 1010 1059 1072 1069 1035 1002 999 1019 927 954 991 958 902 890 772 699 580 573 467 583 646 983 1009 1014 1101 1121 1077 979 887 785 731 739 704 668 616 573 468 420 371 448 775 1242 1424 1784 2083 1835 2107 2403 2677 2816 3010 3183 3001 3121 3252 3387 3248
620 783 893 867 954 948 1012 1047 1056 1076 1075 1067 1057 1019 1000 965 919 954 990 985 899 814 724 692 732 711 646 598 591 992 1051 1106 1042 971 927 822 744 696 676 658 632 592 518 436 462 521 567 986 1124 1383 1852 1857 1872 2086 2404 2607 2896 3105 3034 2740 2858 3119 3076
457 624 720 916 902 951 949 1005 1024 1061 1073 1068 1071 1053 1064 1008 972 960 938 913 829 796 788 798 788 772 743 730 692 704 1020 1053 1044 1088 957 949 840 590 633 640 604 585 571 509 462 506 527 683 1062 1356 1488 1889 1881 1769 2139 2436 2465 2859 3064 2865 2754 2988 3058
259 389 550 582 857 969 978 982 1034 1069 1043 1038 1036 1045 1012 980 948 937 972 944 911 834 825 829 799 802 803 761 742 726 920 994 1102 1157 1147 1096 1110 994 810 482 639 641 613 656 551 442 431 506 805 1183 1207 1471 1667 1779 2024 2370 2334 2667 2827 2809 2661 2734 2846
314 437 512 638 638 714 884 968 984 982 1007 1023 1012 1020 990 997 991 969 969 978 965 916 1751 845 847 859 847 835 823 912 1178 1169 1066 1173 1294 1297 1358 1245 1031 825 532 720 683 786 707 528 432 418 488 794 1009 1090 1416 1562 1674 1714 1893 1933 2328 2514 2661 2618 2349
130 360 456 534 491 525 710 785 850 920 999 1015 1042 1025 1009 962 952 962 964 977 969 947 931 1505 884 872 836 840 836 1224 1270 1426 1334 1311 1440 1372 1516 1618 1344 1149 1014 591 607 697 687 677 668 528 465 469 736 900 1206 1300 1338 1424 1475 1636 1328 1635 2189 2416 2030
0 53 412 429 404 443 438 551 671 817 908 1050 1076 1055 1023 1035 1003 988 966 968 959 948 944 1004 1804 1378 809 793 793 1090 1312 1679 1566 1510 1547 1591 1633 1619 1531 1376 1190 1084 1035 662 668 677 683 628 587 374 332 450 707 859 837 897 860 922 818 876 973 1649 2209
0 0 9 205 255 383 397 352 423 546 664 868 935 981 1030 1085 1050 1030 950 935 933 923 893 912 1249 1926 1651 1219 1397 1442 1668 1534 1531 1627 1687 1730 1620 1543 1579 1453 1326 1302 1304 938 689 738 752 772 757 707 522 367 423 456 538 600 362 0 0 0 0 420 1462
0 0 0 0 0 178 240 377 407 422 469 584 714 778 846 907 973 984 1026 954 908 878 913 908 1013 1234 1819 2482 1730 1644 1736 1789 1775 1794 1724 1808 1773 1739 1668 1590 1441 1343 1167 741 757 773 795 838 849 861 865 830 763 681 430 485 166 0 0 0 0 0 275
2 5 0 0 0 0 46 164 225 279 380 375 458 558 642 688 792 829 882 974 1001 972 968 915 882 888 914 1453 2051 2490 2351 2043 1816 1829 1872 1980 1990 1913 1806 1602 1528 1286 906 794 897 828 891 920 932 925 943 938 942 926 922 881 798 469 216 0 0 0 60
0 0 3 1 0 0 0 0 126 138 139 275 383 393 465 532 578 604 685 803 889 962 1038 1018 1007 976 997 986 1401 1587 1770 1860 1990 1894 1870 1943 1944 2014 1958 1855 1787 1574 1330 1137 953 1203 1165 954 996 1018 1037 1040 1016 1018 1026 1058 1065 1065 1000 901 725 111 0
0 0 1 2 0 0 0 0 0 0 31 40 191 264 425 450 496 515 548 517 481 743 848 902 894 996 960 955 926 1065 1388 1558 1691 1842 2005 2046 2076 2056 2033 1995 2103 2033 1754 1511 1244 1079 1128 991 1002 1075 1112 1120 1094 1092 1080 1104 1131 1158 1161 1160 1102 1008 822
0 0 0 0 0 3 7 0 0 0 0 0 0 87 185 279 300 371 407 414 346 423 631 652 776 998 1097 1013 896 892 908 944 1497 1768 1859 1993 2034 2048 1981 2019 2139 2168 1982 1755 1451 1083 1191 1302 981 968 1043 1128 1162 1172 1184 1176 1179 1191 1232 1284 1294 1269 1174
0 0 0 0 0 0 0 0 0 0 0 0 0 0 0 35 216 239 310 333 351 460 480 601 748 880 1061 1162 1097 976 1024 1025 1035 1058 1279 1940 1895 2029 1958 1866 1872 1884 1879 1846 1652 1449 1108 1122 1330 1238 945 1053 1144 1208 1258 1296 1301 1270 1236 1166 1384 1488 1460
0 0 0 0 0 0 0 0 0 0 0 0 0 0 0 0 0 81 252 232 269 270 493 556 575 712 924 1046 1094 1127 1140 1129 1102 1095 1115 1152 1374 1651 1441 1820 1306 1818 1812 1665 1424 1588 1545 1249 1177 1250 1106 1108 1230 1316 1374 1435 1469 1455 1402 1296 1227 1443 1605
0 0 0 0 0 0 0 0 0 0 0 0 0 0 0 0 0 0 28 142 152 196 230 384 438 369 483 763 918 982 1066 1092 1166 1174 1130 1087 1062 1029 1299 1214 1615 1548 1907 1940 1826 1367 1368 1369 1267 1276 1284 1244 1319 1432 1510 1576 1621 1624 1603 1582 1443 1323 1528
0 0 0 0 0 0 0 0 0 0 0 0 0 0 0 0 0 0 0 0 104 120 148 206 299 376 309 272 487 719 891 942 932 967 1066 1003 875 910 1213 1626 1530 1646 1961 1925 2037 2040 1952 1863 1437 1416 1414 1472 1510 1544 1619 1688 1738 1745 1701 1682 1629 1511 1449
0 0 0 0 0 0 0 0 0 0 0 0 0 0 0 0 0 0 0 0 0 13 0 0 172 269 284 225 223 398 510 636 660 661 672 663 730 876 1125 1727 1905 2010 2084 1980 2093 2201 2244 2266 1841 1730 1709 1667 1592 1665 1708 1710 1781 1804 1795 1781 1703 1623 1517
0 0 0 0 0 0 0 0 0 0 0 0 0 0 0 0 0 0 0 0 0 0 0 0 0 185 282 250 202 335 408 414 429 384 863 918 947 786 1018 1249 1639 2141 2564 2680 2573 2561 2351 2319 2496 2396 2179 2232 2286 1946 1968 1970 2009 1798 1830 1823 1774 1698 1585
0 0 0 0 0 0 0 0 0 0 0 0 0 0 0 0 0 0 0 0 0 0 0 0 0 85 159 217 208 228 255 210 107 96 305 813 1026 1043 1347 1536 1506 1646 2263 1805 1322 1511 1821 2181 2613 2632 2511 2395 1995 2041 2197 2048 2315 1969 1825 1807 1769 1731 1587
0 0 0 0 0 0 0 0 0 0 0 0 0 0 0 0 0 0 0 0 0 0 0 0 0 5 118 121 86 165 139 156 123 28 571 1004 1098 1276 1492 1701 1870 1750 1823 1772 1432 1211 1456 1970 2373 2497 2537 2353 2352 2298 2291 2141 2141 2640 2316 1791 1748 1742 1692
0 0 0 0 0 0 0 0 0 0 0 0 0 0 0 0 0 0 0 0 0 0 0 0 2 1 0 113 112 96 0 139 109 136 3 333 955 918 1128 1431 1546 1522 1621 1451 1770 1641 1774 1992 2231 2375 2511 2696 2572 2336 2307 2581 2788 2724 2769 1946 1768 1720 1707
0 0 0 0 0 0 0 0 0 0 0 0 0 0 0 0 0 0 0 0 0 0 0 2 2 1 2 5 5 4 20 132 158 132 0 24 148 616 1536 1556 1544 1706 1866 1495 2015 2284 2182 2051 2295 2366 2393 2432 2236 2561 2690 2510 2778 2852 2784 2776 2086 1760 1718
0 0 0 0 0 0 0 0 0 0 0 0 0 0 0 0 0 0 0 0 0 0 0 2 4 1 1 2 4 5 3 1 58 68 126 81 191 389 558 1467 2021 2099 1993 1914 2107 2359 2517 2353 2272 2372 2348 2464 2556 2670 2632 2469 3021 2932 2878 2744 2621 2220 1828
0 0 0 0 0 0 0 0 0 0 0 0 0 0 0 0 0 0 3 1 0 0 0 1 3 4 2 1 3 2 3 3 2 2 10 62 133 361 770 1058 1146 1731 2149 2548 2466 2207 2375 2538 2382 2281 2311 2732 2762 2838 2570 3013 3032 3028 2625 2648 2287 2440 1981
0 0 0 0 0 0 0 0 1 0 0 0 0 0 0 0 0 6 4 3 1 0 0 3 3 2 0 1 4 3 4 5 3 3 18 58 97 100 213 224 122 472 543 834 1590 1979 2187 2345 2372 2409 2436 2636 2518 2657 2646 3179 3261 2630 2326 2182 2080 1977 1872
0 0 0 0 0 0 0 0 0 0 0 0 0 0 0 1 5 8 5 3 0 0 0 4 5 4 0 0 1 6 7 6 5 4 6 32 93 150 219 367 479 494 528 563 675 1157 1723 2078 2257 2317 2360 2294 2268 2700 2452 2355 2335 2235 2153 2061 1978 1892 1821
0 1 2 2 2 4 5 5 5 3 0 0 0 0 0 0 1 2 3 5 5 0 3 5 4 4 1 0 0 4 9 7 6 7 6 14 78 166 238 366 574 820 654 599 606 762 1264 1718 2120 2339 2467 2491 2431 2355 2326 2238 2219 2120 2042 2010 1970 1897 1815

ECMWFFLT1_con_mucape_078.txt.gz
CAPE
599 1597 1701 1534 1095 1187 1521 1476 1479 1352 1350 1425 1617 1579 1549 1568 1619 1891 2162 2792 3045 3299 3389 3364 3124 3061 2942 2757 2637 2610 2640 2574 2480 2420 2218 1886 1526 1626 1804 1669 1737 2037 2242 2310 2380 2380 2794 2575 2773 2775 2797 2957 2842 3148 3653 3648 3862 4027 4212 4926 3786 3854 3928
808 1413 1587 1830 1584 1774 1581 1614 1556 1448 1414 1480 1630 1748 1588 1614 1685 1837 2197 2754 2983 3253 3300 3281 3130 3021 2892 2878 2693 2688 2708 2473 2462 2260 2068 1979 1920 1832 1758 1913 1706 2008 2251 2162 2338 2835 3014 2968 2730 2746 2826 3072 2739 2970 3212 3551 3746 3885 3723 4395 3901 4127 3889
910 884 1149 1446 1824 1868 1958 1621 1640 1474 1500 1515 1639 1693 1634 1718 1747 1944 2254 2599 2967 3144 3291 3194 3202 2950 2952 2963 2722 2697 2675 2429 2399 2237 1971 1709 1964 1518 1538 1718 1829 1649 1906 1877 1960 2655 2746 3210 3045 2930 2795 2780 2405 2765 3020 3287 3456 3643 3884 4776 4052 3763 4524
927 939 1030 1131 1486 1905 1989 1868 1571 1538 1485 1390 1567 1735 1708 1756 1749 2006 2239 2435 2813 2970 3180 2985 3007 2789 2862 2914 2830 2809 2746 2580 2194 1999 1687 1346 1568 1598 1416 1586 1652 1524 1516 1669 1645 1730 1548 1986 2949 3035 3030 2570 2633 2711 2890 2712 2997 3349 3375 3852 3796 3852 4715
424 928 910 1113 1073 1576 1847 1890 1563 1666 1602 1480 1476 1646 1711 1709 1782 1926 2128 2146 2225 2484 2727 2762 2615 2616 2656 2789 2681 2675 2719 2481 2258 1880 1739 1426 1388 1595 1464 1280 1488 1418 1161 1451 1584 1860 2037 2261 2125 2494 2969 2670 2538 2584 2854 2929 2894 3186 3318 3581 3457 3414 3670
156 392 768 1116 995 1048 1199 1719 1420 1674 1586 1326 1297 1423 1593 1602 1713 1683 1843 1931 1874 2060 2450 2613 2469 2560 2638 2608 2585 2349 2649 2666 2467 2210 1897 1703 1680 1596 1594 1520 1255 1371 965 1293 1360 1589 2405 2138 1726 1967 1954 2250 2019 1896 2208 2498 2541 2952 3247 3457 3343 3175 2849
400 392 578 885 966 1003 1128 1203 1388 1359 1430 1592 1236 1190 1452 1497 1565 1582 1516 1514 1587 1692 1891 2155 2223 2278 2632 2581 2572 2548 2617 2567 2606 2238 2012 1806 1656 1841 1693 1617 1470 1092 1100 1100 1401 1418 1707 2034 1831 1920 1774 1374 1420 1309 1703 2255 2198 2388 3054 3332 3507 3416 3212
587 504 676 780 995 957 981 1087 1101 1146 1487 1036 996 971 1001 973 1385 1303 1342 1366 1415 1353 1429 1704 1945 2222 2405 2572 2500 2404 2510 2441 2401 2498 2165 1766 1637 1937 1784 1686 1658 1483 1373 1065 1342 1575 1359 1735 1641 1900 1981 1506 1465 1557 1526 2075 2529 1919 1992 2797 3186 3283 3120
640 698 644 822 942 993 989 1001 1038 1059 1068 1159 1683 945 1117 1379 954 924 1322 1418 1380 1322 1356 1311 1422 1649 1911 2393 2491 2552 2467 2424 2398 2489 2278 1857 1558 1538 1432 1548 1665 1641 1575 1118 884 1481 1346 1190 1303 1562 2078 1947 1741 2240 2024 2340 2399 2017 1662 1957 2465 2581 1863
602 662 724 818 878 932 970 959 942 956 946 952 867 1518 1354 1166 880 839 901 1215 1310 1270 1210 1268 1229 1258 1658 1992 2292 2366 2348 2481 2354 2179 2206 1805 1516 1339 1255 986 1324 1626 1553 1331 722 742 1321 1182 1126 1473 2210 2532 2274 2625 2638 2661 2599 2310 1982 2275 2380 2467 2594
571 698 788 843 953 951 960 979 1004 979 871 797 831 843 994 1357 1141 916 913 876 1109 1297 1207 1195 1188 1154 1250 1520 1917 2047 2124 2152 2182 2041 2005 1771 1398 1285 1177 1021 814 1270 1425 1268 820 531 745 1410 1354 1432 2140 2496 2248 2440 2718 2559 2802 2618 1986 1874 2003 2191 1937
697 596 614 670 930 922 1057 1050 1044 1068 1055 1046 947 919 943 875 891 939 911 888 906 881 844 734 1000 1148 1226 1248 1453 1857 1948 2019 2027 1903 1887 1837 1582 1291 1176 1075 922 867 1321 1277 975 754 531 1062 1503 1420 1915 2454 2078 2056 2518 2619 2664 2775 2438 1532 1451 1707 1762
375 410 714 862 661 872 929 982 1074 1078 1079 1041 1031 994 996 982 944 940 984 928 923 860 854 822 755 691 1029 1139 1235 1633 1726 1808 1925 1979 1820 1886 1770 1465 1244 1115 1007 966 1071 1352 1118 867 635 649 1359 1607 1686 2213 2152 1611 2018 2618 2570 2732 2946 2158 1394 1496 1950
226 364 421 512 885 708 729 900 1004 1010 1041 1099 1079 1046 1049 1016 1032 1037 1043 969 933 950 906 824 823 790 1189 1109 1187 1312 1403 1511 1732 1960 1991 1923 2010 1910 1553 1346 1220 1180 1140 1417 1439 1104 871 664 925 1502 1579 1624 1632 1671 1626 2297 2687 2857 3075 2851 1957 1520 1780
313 405 288 460 416 733 727 763 830 919 1068 1046 1064 1053 1052 1045 1035 1021 1052 1041 991 986 966 1387 2577 1017 799 1035 1314 1547 1520 1428 1338 1608 2049 2077 2135 2138 1941 1725 1643 1608 1567 1596 1586 1374 1223 1035 812 1073 1345 1259 1239 1214 1212 1186 1838 1954 2365 2690 2596 1978 1493
147 265 338 412 425 442 626 787 689 677 700 870 1052 1080 1052 1042 1031 984 1002 1060 978 1006 1021 944 1920 2562 1370 1005 1360 1500 1598 1691 1693 1665 1877 2072 2339 2453 2296 2011 1910 1755 1800 1741 1745 1736 1587 1392 1235 1002 1206 1367 1442 1337 1075 890 846 1344 1251 1725 1999 2145 1292
0 30 178 237 355 393 453 470 498 723 638 671 862 996 992 972 1018 991 994 971 1002 1011 1110 1011 1382 2023 2623 1288 1273 1526 1801 1970 2085 2055 1908 2247 2569 2611 2660 2385 2059 1963 2048 1997 1895 1925 1938 1759 1484 1187 1059 1120 1335 1396 1164 910 596 616 1079 1255 1429 1485 1819
0 0 0 0 146 191 289 381 434 472 656 660 733 738 791 795 854 956 1006 1020 1010 1010 1045 1104 1231 1766 2185 2590 1915 1568 1678 2002 2375 2478 2228 2255 2543 2784 2880 2694 2339 2182 2188 2077 1884 2082 1932 1818 1737 1635 1278 1036 1101 1213 1266 1267 828 116 725 990 1005 1123 1218
0 0 0 0 0 59 132 167 239 280 308 418 390 592 658 741 814 810 888 995 1029 998 981 992 990 1536 1761 1828 2168 1990 1522 1939 2155 2326 2371 2516 2633 2674 2692 2864 2693 2362 2186 2018 2080 1839 2039 2016 1794 1848 1689 1350 1217 1078 1110 1172 862 815 160 499 764 744 756
0 0 0 0 0 0 0 99 140 141 176 226 246 376 390 539 629 776 828 847 907 952 974 946 890 910 867 983 716 1692 2165 2269 1883 1937 2019 2350 2509 2586 2572 2559 2676 2399 2048 1897 1968 2108 2059 1905 1904 1782 1896 1754 1530 1411 1232 1151 879 787 682 371 0 0 230
0 0 0 0 0 0 0 0 0 119 115 125 162 229 255 364 458 520 592 677 722 703 816 817 708 666 684 739 1336 1656 1945 2146 2199 2093 2052 2008 2226 2224 2282 2320 2285 2352 2087 1682 1732 1952 2118 1996 1909 1854 1817 1658 1579 1594 1386 1225 845 852 824 812 778 731 652
0 0 0 0 0 0 0 0 0 0 48 112 114 76 112 190 274 343 469 560 596 697 676 645 616 569 733 856 898 934 1159 1589 1819 1631 1892 2248 2135 2106 2176 2190 2354 2319 2308 2027 1603 1673 1763 1991 1978 1882 1853 1732 1666 1568 1545 1478 949 961 977 952 959 929 897
0 0 0 0 0 0 0 0 0 0 0 0 0 0 0 34 66 159 247 311 383 550 629 604 592 622 807 803 854 856 791 784 1258 1717 2144 1877 1878 1949 1934 1947 2131 2111 2437 2426 2344 1701 1670 1902 1983 2117 1984 1896 1888 1773 1724 1652 1270 1033 1042 1060 1056 1047 1040
0 0 0 0 0 0 0 0 0 0 0 0 0 0 0 0 0 0 13 109 220 341 448 488 453 642 582 535 673 874 961 911 934 1065 1566 1838 1948 1853 1830 1746 1515 1595 2103 2503 2448 2256 2089 1959 2039 2145 2202 2167 2053 1858 1927 1865 1637 1190 1094 1105 1102 1080 1072
0 0 0 0 0 0 0 0 0 0 0 0 0 0 0 0 0 0 0 0 0 95 256 385 375 552 660 451 432 490 748 932 962 963 1317 1541 1602 1628 2032 1893 1575 1775 1686 1696 2106 2353 2282 2150 1881 2010 2235 2170 2106 1630 1577 1977 1841 1420 1211 1099 1140 1159 1156
0 0 0 0 0 0 0 0 0 0 0 0 0 0 0 0 0 0 0 0 0 0 0 145 286 327 412 546 470 327 294 420 656 857 943 1047 1352 1504 1915 1680 1604 1438 1782 2170 2076 1957 2062 2099 2154 2045 1902 2021 2103 2116 1817 1953 2118 2983 1472 1294 1140 1184 1227
0 0 0 0 0 0 0 0 0 0 0 0 0 0 0 0 0 0 0 0 0 0 0 0 0 176 293 413 442 392 352 329 330 454 554 612 843 1125 1006 1597 1682 1706 1741 1976 2028 2057 1997 2218 2434 2074 2111 2106 1961 2086 2201 2134 2160 2279 1594 1420 1256 1246 1313
0 0 0 0 0 0 0 0 0 0 0 0 0 0 0 0 0 0 0 0 0 0 0 0 0 0 0 0 360 350 269 380 436 343 357 448 733 994 1249 1437 1451 1586 1972 1718 1944 2195 2353 2457 2321 2055 2030 2122 2376 2437 2401 2162 1784 2195 1917 1672 1542 1414 1447
0 0 0 0 0 0 0 0 0 0 0 0 0 0 0 0 0 0 0 0 0 0 0 0 0 0 0 0 0 0 293 253 268 286 323 479 870 942 908 961 923 1005 1571 1898 2116 2774 2553 2522 2715 2557 2245 2202 3032 2527 2483 2508 2554 1776 2152 1640 1604 1551 1496
0 0 0 0 0 0 0 0 0 0 0 0 0 0 0 0 0 0 0 0 0 0 0 0 0 0 0 0 0 0 0 0 8 111 124 403 485 582 750 1078 1222 1388 1830 1826 1971 2258 2278 2334 2464 2461 2654 2876 2796 2422 2220 2494 2708 2317 1974 1827 1734 1670 1650
0 0 0 0 0 0 0 0 0 0 0 0 0 0 0 0 0 0 0 0 0 0 0 0 0 0 0 0 0 0 0 0 5 21 86 163 308 631 872 1020 1290 1590 1613 1468 1468 1589 2210 2513 2336 2652 2566 2480 2557 2556 2540 1941 2667 3007 3268 2156 2093 1988 1912
0 0 0 0 0 0 0 0 0 0 0 0 0 0 0 0 0 0 0 0 0 0 0 0 0 0 0 0 0 0 0 0 0 0 16 36 70 380 852 1095 1380 1558 1842 1914 1510 1617 1704 2049 2213 2228 2169 2022 2349 2195 2592 2508 2694 2678 3352 2126 2215 2187 2107
0 0 0 0 0 0 0 0 0 0 0 0 0 0 0 0 0 0 0 0 0 0 0 0 0 0 0 0 0 0 0 0 0 0 0 0 36 129 439 1181 1350 1519 1811 2087 2380 2164 1779 1646 1806 1986 1768 2108 1977 2251 2222 2028 2871 2738 2284 2909 2332 2196 2169
0 0 0 0 0 0 0 0 0 0 0 0 0 0 0 0 0 0 0 0 0 0 0 0 0 0 0 0 0 0 0 0 0 0 0 6 13 58 164 447 971 1418 1616 1975 2064 2122 1930 1944 1936 1958 2118 2260 2471 2676 1722 1630 1539 1528 1986 2231 2090 2342 2507
0 0 0 0 0 1 1 1 0 0 0 0 0 0 0 0 0 0 0 0 0 0 0 0 0 0 0 0 0 0 0 0 0 0 0 4 34 84 180 282 289 635 1205 1670 2127 2149 2038 2104 2432 2394 2392 2667 2762 1955 1842 1754 1620 2011 1462 1510 1819 2151 2440
0 0 0 0 0 0 0 2 1 0 0 0 0 0 0 0 0 0 0 0 0 0 1 0 0 0 0 0 0 0 0 0 0 0 0 0 4 12 30 55 10 172 176 209 291 163 497 650 1155 1529 1982 2197 1971 2065 1949 1895 2061 1934 1810 1654 1573 1875 2134
0 0 0 0 0 0 1 0 1 0 0 0 0 0 0 0 0 0 0 0 0 0 0 2 1 0 0 0 0 0 0 0 0 0 0 0 0 4 8 8 19 0 0 0 0 0 0 0 0 0 544 1254 1592 1673 1865 2027 2132 2229 2035 1984 1824 1839 1918
6 6 7 4 0 0 0 0 2 2 1 0 0 0 0 0 0 0 0 0 0 0 2 3 2 3 2 0 0 0 0 1 0 0 0 0 0 3 9 22 40 55 47 0 0 172 373 494 480 310 282 290 563 796 1031 1114 1259 1529 1792 1918 2039 2068 2121

ECMWFFLT1_con_mucape_081.txt.gz
CAPE
842 1162 1314 1490 1613 1825 1782 1958 1679 1532 1642 1969 1602 1299 1500 1419 1336 1752 2034 2704 3312 3377 3388 3417 3123 3019 2876 2452 2316 2543 2534 2389 2171 2212 2124 1665 1234 1156 1388 1328 1623 1942 2218 2310 2247 2463 2312 2811 2870 3047 3110 2864 3169 3607 4423 4255 4408 4253 4641 4271 3820 3959 4165
416 936 1478 1310 1367 1463 1888 1081 1376 1752 1481 1483 1713 1577 1582 1389 1661 1921 2396 2927 3357 2792 3540 3488 3461 3129 3050 2744 2319 2494 2704 2595 2287 2179 1776 1815 1540 1295 1215 1369 1310 1732 2546 2414 2554 2564 2536 2459 2949 3211 3275 3276 2641 3453 3458 4288 4228 4439 3821 4134 3859 4716 4084
995 920 940 1400 896 1108 1708 1610 1493 2038 1404 924 1567 1787 1710 1769 1648 2035 2359 3364 3543 3220 3691 3477 3786 3311 2885 2926 2641 2649 2778 2504 2355 2274 1858 1460 1695 1103 1302 1462 1461 1524 1824 2417 2697 2856 2910 2326 2467 2622 2891 2825 2443 2580 3345 2706 3823 3824 4204 4730 4075 4072 4691
1244 1313 1229 1020 1519 1867 2266 2017 1745 1658 1782 1401 1105 1805 1782 1850 1494 1943 2847 2944 2930 3688 3369 2049 3622 3048 3022 3084 2893 2930 2941 2659 2256 1964 1700 871 1195 997 990 1317 1494 1314 1624 1769 2130 2573 2421 2685 2469 2646 2598 2587 2719 2794 2660 2993 3344 3418 4034 5286 3784 3870 4678
696 704 758 707 1343 1872 1634 1694 1317 1453 1404 1297 1401 1558 1550 1321 1748 2019 2630 1874 2820 3340 3404 3535 2854 2612 2793 3025 2589 2535 2788 2707 2312 1860 1624 977 902 1121 784 772 1144 920 999 1335 1449 1720 1920 2096 2647 2490 2516 2551 2526 2641 2733 2726 2987 3280 3344 4150 3637 3725 4123
510 578 655 726 1449 1752 1792 1572 1853 1416 2124 1539 1361 1553 1437 1802 1862 2000 1555 2033 1972 2518 2905 2802 2434 2602 2641 2708 2410 2181 2834 2908 2630 2121 1787 1303 1056 1018 924 890 762 798 610 989 966 1440 1824 1981 2015 2184 2314 2155 2048 1921 2302 2561 2321 2549 3140 3292 3197 3054 3196
107 496 646 598 844 1522 1371 1455 1373 1533 1594 1292 1535 1818 1639 1455 1256 1460 1178 1597 2178 2763 2568 2090 1436 2302 2792 2511 2443 2184 2647 2822 2764 2223 1731 1491 1399 1347 1014 1058 875 673 602 877 779 939 1494 2062 2003 1812 1915 1866 1490 1344 1821 2197 2063 2190 2824 3131 3340 3208 3045
117 928 977 949 692 803 901 883 1051 1441 1498 1348 962 1566 1370 1663 2057 1888 1137 1605 1229 1831 2016 2305 2018 2189 2505 2370 2067 2172 2325 2400 2599 2388 1887 1451 1211 1415 1237 1188 1199 807 686 615 922 993 1028 1819 1981 1715 1673 1549 1516 1350 1364 2043 2323 2017 2087 2818 3201 3201 2759
386 344 865 935 975 828 843 862 1052 1040 1134 1236 1314 1632 2073 1943 1897 1591 1682 1974 1684 1717 1425 1459 2119 2072 2852 2512 2594 2458 2323 2266 2280 2291 1844 1328 908 1042 858 1172 1245 1192 917 614 538 972 1033 1100 1302 1427 1745 1617 1512 1704 1590 2119 2236 2108 1962 2324 2643 3059 2854
604 578 880 911 953 985 1037 1052 932 986 1108 1122 1600 1706 1545 1995 1576 1275 1660 1079 709 970 1703 2152 1448 1864 2426 2895 2545 2635 2490 2412 1969 1774 1694 1207 807 666 578 386 713 1255 1113 778 249 462 1057 1051 1025 1110 1702 1810 1606 1659 1788 1939 1991 2010 1839 1852 2187 2520 2544
520 658 721 927 855 887 899 906 887 914 918 911 784 779 975 1344 1437 1511 1797 1095 1213 1524 1872 2109 882 1481 2017 2251 2540 2481 2573 2313 2024 1518 1557 1274 860 534 386 170 160 513 980 828 349 93 461 939 1082 1336 1702 1821 1950 1774 1945 1837 1963 2039 1712 1546 1661 2004 1873
430 517 648 809 905 857 854 863 895 934 970 913 875 836 815 895 948 1009 1077 1515 1109 1187 1269 1285 1468 997 1453 1866 1913 2439 2292 2357 2123 1784 1504 1273 810 687 498 180 98 147 508 565 426 143 40 684 867 905 1555 1976 2186 2124 2174 2203 2090 2090 1895 1442 1178 1289 1380
218 648 764 728 758 840 888 892 908 896 888 841 888 827 805 757 883 838 953 968 886 1056 1128 1288 1053 1165 1382 1395 1646 1336 1910 2105 2004 1983 1716 1496 1340 890 511 506 244 72 152 330 431 250 78 98 850 964 1114 1743 2138 2065 2158 2222 2111 2336 2242 1720 1050 899 1087
307 410 563 591 558 754 845 882 882 884 876 860 791 751 828 799 799 857 949 929 926 938 1138 1204 1470 827 958 1028 1511 1450 1801 1915 2033 1966 2073 1841 1728 1342 688 655 562 294 129 293 288 245 170 75 285 981 1004 1261 1757 1887 1793 2014 2234 2353 2342 2135 1144 655 825
432 332 376 599 421 466 589 884 857 868 890 898 817 931 877 827 789 832 846 833 800 819 880 991 1421 1969 1703 1006 1268 1497 1645 2082 2032 1993 2141 2083 2170 2113 1611 1164 911 966 700 605 487 392 182 97 54 441 1064 1115 1427 1485 1161 1052 1646 1872 2080 2255 2204 941 459
310 301 311 298 412 298 641 628 802 847 859 866 887 901 852 932 920 806 850 833 795 786 812 798 1075 1628 1905 1958 1679 1196 1630 1899 1964 2079 2316 2329 2438 2522 2298 1978 1692 870 946 774 528 810 766 543 243 111 554 1019 1212 1191 868 458 481 1348 1344 1783 1990 1662 611
230 226 342 386 357 446 445 628 649 613 604 651 770 870 906 1025 978 964 919 911 886 843 803 777 749 1017 1665 1900 2042 1858 1688 1910 2137 2096 2249 2401 2724 2870 2947 2555 2070 1793 2097 1504 1084 1421 1855 1302 644 356 265 478 801 972 618 238 104 342 993 1336 1554 1548 1317
100 186 214 294 336 382 409 446 494 496 496 520 467 583 762 836 812 886 933 895 918 908 903 830 770 816 1534 1307 1353 1339 1677 1862 1498 1573 1642 2089 2130 2789 3004 2908 2764 2306 1922 1714 1593 2112 1192 1132 1357 1323 664 500 432 430 556 384 83 0 7 1024 1254 1526 1571
0 0 0 0 61 150 275 368 380 430 399 493 527 503 526 550 647 713 744 812 887 907 890 871 798 751 1175 1388 978 1455 1290 1402 1921 2224 1833 2323 3223 2917 2765 3042 3066 2820 2053 1567 1973 1782 1947 2167 1587 1662 1684 1234 982 554 457 434 291 0 0 0 939 1115 1118
0 0 0 0 0 0 0 68 129 203 265 258 291 340 350 502 570 596 600 617 614 679 669 837 799 764 748 672 734 963 1105 1002 1337 1827 2036 2260 2620 2794 2822 2634 2893 2725 2422 1925 1808 2229 2115 2053 2100 1958 2158 2020 1742 1537 936 709 439 0 0 0 0 779 968
0 0 0 0 0 0 0 0 0 0 78 107 138 208 230 259 388 448 404 477 568 565 616 680 837 842 801 741 675 675 591 1163 1717 1911 1905 2055 1922 1468 1552 1836 1860 2191 2629 2592 2131 1846 2477 2411 2232 2258 2275 2137 2055 1993 1566 983 805 596 393 598 724 732 702
0 0 0 0 0 0 0 0 0 0 0 0 10 61 111 135 174 226 322 356 388 495 429 493 466 569 615 186 408 611 651 555 695 1302 1648 1636 1358 1468 1788 2050 2068 1813 1923 1837 1985 1976 1584 1807 2453 2537 2358 2243 2138 1922 1851 1472 1000 915 834 792 777 783 772
0 0 0 0 0 0 0 0 0 0 0 0 0 0 0 47 52 74 142 171 179 265 329 398 370 398 348 445 394 422 453 553 542 602 1114 1748 1500 1222 1355 1549 1592 1720 2013 2211 1950 1893 1520 1426 1919 2537 2352 2134 2276 2169 2068 1903 1641 1209 1005 864 822 785 887
0 0 0 0 0 0 0 0 0 0 0 0 0 0 0 0 0 0 10 76 107 133 193 302 312 372 460 444 445 561 555 529 576 590 589 1001 971 897 1325 1643 1705 1536 2094 1416 1442 1710 1952 2002 1920 1958 2027 2341 2292 1888 2224 2172 2000 1553 1345 1130 1004 919 1060
0 0 0 0 0 0 0 0 0 0 0 0 0 0 0 0 0 0 0 0 0 0 0 46 134 203 256 357 406 364 503 569 576 642 672 574 723 1418 909 1100 1607 1843 2281 1823 1947 2057 2116 1984 1947 2019 2301 1994 1826 2026 2090 2029 2130 1826 1692 1492 1302 1138 1215
0 0 0 0 0 0 0 0 0 0 0 0 0 0 0 0 0 0 0 0 0 0 0 0 0 1 63 141 154 355 298 292 354 445 517 593 670 756 1726 1444 1267 1611 2189 2187 2221 1594 1747 1759 2190 2387 2233 1856 2236 2310 1828 2022 2301 2619 1797 1752 1661 1491 1367
0 0 0 0 0 0 0 0 0 0 0 0 0 0 0 0 0 0 0 0 0 0 0 0 0 0 0 0 8 106 308 258 176 223 342 370 363 504 714 759 1466 1628 1983 1690 1602 1597 1684 1550 1951 2154 2285 2324 2293 1964 2230 2082 1978 2675 1858 1779 1729 1678 1580
0 0 0 0 0 0 0 0 0 0 0 0 0 0 0 0 0 0 0 0 0 0 0 0 0 0 0 0 0 0 0 96 0 110 222 299 250 306 411 597 664 663 1943 1882 1388 1211 1328 1961 1716 1832 2022 2513 2619 2410 1811 1854 1596 1954 1685 1785 1825 1686 1620
0 0 0 0 0 0 0 0 0 0 0 0 0 0 0 0 0 0 0 0 0 0 0 0 0 0 0 0 0 0 0 0 0 39 49 58 130 227 241 299 315 876 1105 1503 1499 1344 1285 1962 2137 2344 2186 2428 2828 2232 2123 2038 2569 1932 2043 1440 1680 1821 1761
0 0 0 0 0 0 0 0 0 0 0 0 0 0 0 0 0 0 0 0 0 0 0 0 0 0 0 0 0 0 0 0 0 0 0 9 21 27 146 143 594 880 1175 1379 1667 1514 1683 1740 2270 2193 2116 2432 2231 2183 2598 2846 2460 2048 1876 1658 1542 1684 1730
0 0 0 0 0 0 0 0 0 0 0 0 0 0 0 0 0 0 0 0 0 0 0 0 0 0 0 0 0 0 0 0 0 0 0 0 0 90 164 216 622 1054 1485 1846 1849 2167 2386 2508 2410 2487 2130 2265 2107 2039 2068 2524 2633 2670 2114 1633 1614 1767 1873
0 0 0 0 0 0 0 0 0 0 0 0 0 0 0 0 0 0 0 0 0 0 0 0 0 0 0 0 0 0 0 0 0 0 0 0 0 0 42 26 144 443 1006 1329 1513 1854 1765 1540 2006 2135 2124 2218 2148 2434 1962 1831 1777 2302 2065 1860 2092 1983 1961
0 0 0 0 0 0 0 0 0 0 0 0 0 0 0 0 0 0 0 0 0 0 0 0 0 0 0 0 0 0 0 0 0 0 0 0 0 0 0 5 253 600 1088 1351 1406 1428 1602 1799 1753 1770 1847 2046 2054 2073 1549 1556 1974 2067 2087 2530 2320 1815 1729
0 0 0 0 0 0 0 0 0 0 0 0 0 0 0 0 0 0 0 0 0 0 0 0 0 0 0 0 0 0 0 0 0 0 0 0 0 0 0 0 56 245 362 587 821 1168 946 1070 1279 1562 1733 1794 2274 2075 1564 1913 1998 2102 1515 1867 2169 2613 2225
0 0 0 0 0 0 0 0 0 0 0 0 0 0 0 0 0 0 0 0 0 0 0 0 0 1 0 0 0 0 0 0 0 0 0 0 0 0 10 14 1 0 1 84 328 359 398 457 628 900 1129 1326 1580 2127 1944 1684 1955 2309 2106 1873 1704 1444 1336
0 0 0 0 0 0 0 0 1 2 3 0 0 0 0 0 0 0 0 0 0 0 0 0 0 0 0 0 0 0 0 0 0 0 0 0 0 0 0 0 0 75 0 0 0 0 0 61 99 155 283 218 431 936 1520 1706 2236 1686 1729 1761 1762 1660 1552
0 0 0 0 0 0 0 0 0 0 3 2 1 0 0 0 0 0 0 0 0 0 0 0 0 0 0 0 0 0 0 0 0 0 0 0 0 0 0 0 0 0 0 0 0 0 0 0 0 0 0 0 1 30 0 0 214 888 1321 1556 1589 1595 1564
0 0 0 0 0 0 0 0 0 0 0 0 2 1 3 1 0 0 0 0 0 0 0 0 0 0 0 0 0 0 0 0 1 0 2 0 0 0 0 0 0 0 6 0 0 0 0 0 0 0 0 0 0 120 240 315 373 390 380 364 400 463 654

ECMWFFLT1_con_mucape_084.txt.gz
CAPE
940 1392 1492 1667 1486 1528 2016 2260 2238 1719 1525 1655 1997 1461 735 329 968 1406 2073 2974 2975 2902 2775 2787 2981 3098 2935 2641 2737 2794 2781 2830 2681 2463 2472 2322 2236 2348 2263 1780 2203 2988 2503 2536 2496 2916 3102 2679 2945 3044 3156 3222 3601 3951 4227 4050 4130 3989 4013 4252 4230 5656 3595
1136 1205 1298 1366 1673 1619 1198 1931 1325 1518 1401 1533 1545 1500 1022 978 1142 1492 2408 3168 2979 3006 2745 2750 3119 3063 2680 2797 2613 2958 2940 2886 2710 2766 2392 3000 2962 2866 2154 2262 2384 3225 3464 3119 2838 2916 3037 2679 2895 3156 3109 3353 3005 3920 3662 3897 3829 4080 3828 4301 4024 4055 4273
619 687 1145 1638 1819 1921 1520 1512 1367 1211 1554 1577 1430 1560 1584 1155 790 1320 2693 2841 3396 3333 2822 2727 3250 2918 2705 2938 2779 2897 2869 2633 2734 2434 2255 1825 1742 1024 1434 2099 2177 2585 2433 2705 3233 2762 2436 2875 3286 3415 3217 2713 2457 3674 3857 4054 4041 3883 4302 4277 4549 4398 4563
1204 1108 1130 1193 1624 1860 2124 1855 1677 1396 1411 1612 1818 1810 1241 1171 1315 1218 1433 2836 3305 3402 3230 2904 2779 2852 2709 2976 2691 2954 2904 2864 2545 2105 1731 1747 1500 1184 1494 2056 2076 1773 2229 2374 2241 1717 1558 2492 2881 3526 3326 3293 3112 2926 3172 3358 3403 3752 3879 4160 4021 3975 4684
860 848 1128 1178 1197 1487 1639 1527 2086 1989 1826 1571 1717 2519 2145 1336 1426 1641 1770 1830 2168 2586 3062 2747 2953 2687 2812 2652 2033 2116 2574 2518 2436 2201 1912 1526 1666 1471 1315 1076 1345 1347 1744 1702 2358 3020 3411 2614 2372 2968 3216 3647 2941 3354 3391 3189 3282 3730 3847 3979 4527 3868 3977
641 694 1115 1258 1264 2200 1896 2018 2161 1833 2079 2060 1732 1435 1572 1272 1239 1216 1785 1779 2103 2082 2643 2629 2615 2561 2752 2512 2193 2026 2514 2848 2674 2490 2232 1814 1858 1175 1031 1067 1275 1284 1240 1657 1785 1973 2488 2632 2443 2491 2452 2187 2023 2108 2481 2786 2870 2957 3642 4191 4316 3466 3766
327 486 672 1074 1257 1434 1781 1688 1913 1593 1643 1578 2004 2086 2004 1432 1280 1137 1760 1730 2127 2126 2162 2291 2294 1648 2428 2444 2476 2750 2819 2354 2510 1987 1828 1317 1192 1192 1039 967 1219 908 815 1540 1384 1700 1815 2528 2638 2591 2657 2203 2460 2122 2618 3149 2941 3002 3410 3830 4206 4107 3860
185 267 358 643 1063 1029 1231 1654 1542 1668 1587 2002 1934 1797 1168 1476 1318 1388 1394 1748 1797 2101 2250 2387 1704 1338 1707 2169 2140 1725 2385 2653 2244 2092 1784 1290 822 962 1054 876 978 1173 969 965 1475 1405 1339 2036 1563 2349 2441 2208 2134 2160 2438 3388 3345 2396 2704 3488 3797 3675 2726
35 195 258 377 746 987 1107 1221 1510 1602 1797 1894 1642 1331 1927 1651 1237 1604 1967 2671 2595 2392 2147 2152 2351 2251 1636 1458 1882 1671 1948 2424 2614 2174 1742 1262 778 670 737 916 811 1197 927 499 711 1092 1256 1842 1698 2270 2589 2253 2363 2494 2284 3182 2837 2514 2624 3137 3665 3490 2849
5 14 218 334 523 832 1023 1043 1047 1118 1520 1857 1889 2019 2261 2242 2202 1837 1947 1846 2281 2490 2322 2218 2235 2356 2203 2070 1526 1124 1156 2200 2218 2088 1491 1025 738 783 702 760 658 1016 760 464 504 648 1153 1492 1772 2362 2688 2553 2712 2882 2116 3204 2503 2545 2586 3282 3366 3426 3603
330 250 519 607 703 664 834 949 1011 1064 1153 1250 1544 1303 1568 2098 1831 1136 1319 1704 1762 2506 2271 2030 2282 2204 1638 1271 1513 1292 636 1038 1254 1698 1825 1088 665 630 597 626 747 801 609 430 304 619 840 1350 1879 2332 2686 2084 2344 2670 2504 2769 2751 2833 2379 2268 2546 3134 2993
447 486 745 871 905 862 822 830 893 978 1007 1018 915 928 1098 1152 1203 1233 1355 1690 1618 1860 1775 1994 1463 1850 1942 1787 1613 1570 1439 1274 1177 1226 1257 1388 806 424 465 426 394 658 796 648 521 521 701 1184 1268 1878 2378 2142 2167 2247 2529 2525 2749 2835 2587 1969 1993 2472 2656
422 541 698 803 889 825 866 766 763 837 691 532 684 679 738 819 911 1040 1019 1019 1111 1238 1630 1572 1581 1695 1250 1326 1617 1377 1296 1953 1189 1170 622 1096 532 230 370 202 84 179 528 765 713 460 200 901 1286 1501 2083 2278 2248 2059 2370 2539 2485 2808 2827 2541 2176 2153 2146
392 484 635 750 780 810 823 752 631 670 816 681 428 521 547 592 893 861 779 737 769 975 1203 1273 1518 1354 1262 1016 1282 1288 1356 1445 2053 1406 857 1410 1589 1391 438 211 201 192 343 756 781 550 270 145 1148 1514 1418 2115 2025 2248 2493 2774 2546 2904 3099 2602 2283 2051 2188
347 466 540 679 748 726 752 727 729 645 425 573 749 591 676 724 740 730 622 701 734 908 976 1030 1148 1246 1026 1016 716 980 1806 1694 1823 2024 1570 1229 843 1541 1893 1233 1108 1212 1004 1294 701 422 394 172 68 941 1041 1190 1813 2140 2260 2179 2210 2179 2562 2668 2506 2187 1549
214 396 464 508 658 654 591 658 688 676 652 0 582 596 532 556 680 663 798 733 700 762 755 722 688 976 1018 1286 1552 1893 1983 2316 1761 2163 2581 1889 1544 1491 1613 2499 2479 1799 2282 1723 1263 984 944 690 598 500 1020 1128 1566 1895 1780 1753 1785 2119 1713 1917 2256 2127 1276
148 187 177 346 291 361 507 597 666 702 711 644 584 523 525 478 467 616 859 923 849 731 760 720 684 1014 1090 1294 1075 1357 2156 2267 2471 2382 1934 2102 1816 2044 2327 2604 1768 1584 1390 1678 2422 2300 2202 1603 1025 397 125 919 931 1203 1086 1218 1094 1278 1648 1623 1782 2100 1995
162 230 242 232 292 354 571 570 596 673 722 741 729 715 588 553 495 380 466 630 796 814 742 680 528 857 861 1205 1037 991 1422 1692 1764 2255 2544 2302 2675 2193 2837 2136 2278 1992 1574 1474 1144 1228 1729 1186 1549 1639 1138 331 545 728 961 1145 821 30 1007 1462 1524 1627 2116
183 225 188 243 236 256 319 486 458 515 541 476 646 751 787 738 759 586 547 599 722 585 507 469 456 478 497 526 477 676 883 1066 1635 1677 1866 2300 2484 2547 2446 2349 2072 1972 1690 1436 1348 1607 1266 999 1669 1726 1536 1149 1322 707 736 967 651 8 0 698 1255 1367 1550
244 214 217 207 207 212 178 242 216 238 258 346 425 427 524 606 564 563 502 453 470 456 584 711 619 596 620 556 414 446 608 761 946 1009 1765 1850 2297 2390 2487 2493 2296 2183 2154 2028 1941 1966 1819 1573 1598 1277 1992 1935 1496 1793 1723 978 470 1 0 0 379 1101 1252
0 0 0 0 86 163 176 190 231 204 246 215 195 240 288 295 321 349 367 404 473 536 604 716 669 604 652 664 653 616 518 549 687 841 885 1683 2032 1994 1855 2002 2289 2292 2266 2370 2471 2320 2465 2256 2202 2117 1635 1861 1881 1758 1513 1241 1091 291 0 0 0 146 991
0 0 0 0 0 0 0 0 27 80 122 144 156 161 159 146 156 191 307 256 251 304 395 479 520 561 598 655 726 610 605 664 648 747 828 1250 1703 1785 1755 1720 2135 2512 2657 2746 2607 2682 2444 1913 1663 1509 1621 1889 2095 1917 1800 1482 1290 1099 880 0 0 0 16
0 0 0 0 0 0 0 0 0 0 0 0 71 82 101 104 97 45 69 120 164 182 196 216 264 327 407 428 464 399 415 335 463 556 572 677 1094 864 858 1381 1665 2036 2326 2223 2222 2449 2288 2154 1875 1682 1586 1741 2226 2454 2168 1770 1803 1520 1178 918 724 76 249
0 0 0 0 0 0 0 0 0 0 0 0 0 0 0 8 12 12 0 0 32 62 18 112 132 192 266 278 285 346 290 222 149 331 502 436 544 817 1161 1349 1461 1674 1997 1618 1692 1717 1658 1835 1894 1855 1759 1768 2128 2186 2287 2160 2133 1842 1579 1328 1002 319 199
0 0 0 0 0 0 0 0 0 0 0 0 0 0 0 0 0 0 0 0 0 0 0 0 0 29 61 142 191 247 368 380 340 342 467 545 457 562 957 851 988 976 1508 1665 1908 1965 2005 1849 1756 1834 2296 1978 1717 2022 2346 2281 1829 1802 1777 1690 1450 1148 848
0 0 0 0 0 0 0 0 0 0 0 0 0 0 0 0 0 0 0 0 0 0 0 0 0 0 0 0 4 84 148 264 348 385 439 457 484 504 1206 1683 1101 992 1580 1836 2171 1968 1786 1998 2092 1735 1672 1838 2297 1988 1858 1605 1854 1944 1505 1660 1631 1571 1375
0 0 0 0 0 0 0 0 0 0 0 0 0 0 0 0 0 0 0 0 0 0 0 0 0 0 0 0 0 0 0 49 133 158 179 270 326 436 542 759 905 1230 2277 2212 2416 2221 1955 1766 1829 2023 1915 1912 1804 1936 1558 1322 1739 1701 1253 1462 1708 1673 1523
0 0 0 0 0 0 0 0 0 0 0 0 0 0 0 0 0 0 0 0 0 0 0 0 0 0 0 0 0 0 0 0 0 0 17 48 27 211 201 286 446 605 641 1098 1838 2239 2383 2169 1510 1606 1966 1592 1481 1545 1818 1344 1142 1123 826 977 1428 1586 1472
0 0 0 0 0 0 0 0 0 0 0 0 0 0 0 0 0 0 0 0 0 0 0 0 0 0 0 0 0 0 0 0 0 0 0 12 57 64 79 88 74 178 626 832 922 1196 1659 2057 1986 1752 1880 2011 1734 1490 1985 1844 1657 1519 1570 1561 1348 1182 1150
0 0 0 0 0 0 0 0 0 0 0 0 0 0 0 0 0 0 0 0 0 0 0 0 0 0 0 0 0 0 0 0 0 0 0 0 3 16 92 184 268 389 469 677 929 1339 1483 1529 1627 1737 1629 1610 1406 1288 1687 1685 1321 1421 1563 1646 1364 1304 1374
0 0 0 0 0 0 0 0 0 0 0 0 0 0 0 0 0 0 0 0 0 0 0 0 0 0 0 0 0 0 0 0 0 0 0 0 0 0 15 28 133 296 455 600 563 664 933 1561 2304 2094 1675 1520 1349 1488 1634 1450 1508 1516 1541 1551 1720 1815 1741
0 0 0 0 0 0 0 0 0 0 0 0 0 0 0 0 0 0 0 0 0 0 0 0 0 0 0 0 0 0 0 0 0 0 0 0 0 0 6 17 28 64 166 358 419 820 1083 1253 1389 1656 2040 1603 1374 1598 1385 1248 1407 2264 2161 1518 1330 1415 1533
0 0 0 0 0 0 0 0 0 0 0 0 0 0 0 0 0 0 0 0 0 0 0 0 0 0 0 0 0 0 0 0 0 0 0 0 0 0 0 0 0 1 298 1219 1005 1081 1250 1281 1124 804 888 1210 1026 817 961 1461 2096 1938 1776 1922 1693 1298 1291
0 0 0 0 0 0 0 0 0 0 0 0 0 0 0 0 0 0 0 0 0 0 0 1 0 0 0 0 0 0 0 0 0 0 0 0 0 0 0 0 0 20 278 68 12 18 31 160 164 205 234 319 574 889 1056 1160 1139 1464 1208 1494 1517 1842 1586
0 0 0 0 0 0 0 0 0 0 0 0 0 0 0 0 0 0 0 0 0 0 0 0 0 0 0 0 0 0 0 0 0 0 0 0 0 0 0 0 0 2 33 0 0 24 0 0 0 0 0 0 4 70 63 313 426 1186 894 1404 1500 1601 1524
0 0 0 0 0 0 0 0 0 0 0 0 0 0 0 0 0 0 0 0 0 0 0 0 0 0 0 0 0 0 0 0 0 0 0 0 0 0 0 0 0 0 0 0 0 0 0 0 0 0 0 0 0 0 2 37 146 1 43 82 692 1530 1577
0 0 0 0 0 0 0 0 0 0 0 0 0 0 0 0 0 0 0 0 0 0 0 0 0 0 0 0 0 0 0 0 0 0 0 0 0 0 0 0 0 0 0 0 0 0 0 0 0 0 0 0 0 0 0 0 0 0 0 0 0 0 0
0 0 0 0 0 0 0 0 0 0 0 0 0 0 0 0 0 0 0 0 0 0 0 0 0 0 0 0 0 4 7 3 3 2 0 1 3 1 0 0 0 0 0 0 0 0 0 0 0 0 0 0 0 0 0 0 0 0 0 0 0 0 0

ECMWFFLT1_con_mucape_087.txt.gz
CAPE
1206 1506 1448 1465 1516 1446 1446 1468 917 830 1111 1499 1501 966 223 134 610 1077 1444 1320 2002 1560 2086 2356 1879 2212 1809 2088 2020 2174 1847 2210 2429 1885 2340 2199 2314 2539 2594 2789 3044 2531 2306 2335 2376 2384 2487 2626 2619 2547 2863 2470 3400 3366 3630 2971 2830 3135 3500 4332 3406 5025 3487
1152 1339 1530 1847 1876 1534 1995 1732 1248 1485 1381 1705 1673 1090 864 741 1038 1376 1673 1387 1855 1595 1883 2400 2206 2233 2144 1810 2168 2139 1956 2160 2359 2565 2256 2281 2344 2321 2410 2547 2805 2786 2396 2374 2208 2057 2484 2664 2387 2583 2785 2884 3057 3564 3732 3405 3170 3642 3566 4075 3646 3462 3967
1161 1343 1441 1655 1750 1394 1681 2002 1497 1393 1147 1368 1421 1493 1109 812 1060 1504 1737 1642 1882 2030 1869 2373 2428 2326 2449 2001 2289 2173 2292 2150 2273 2260 2052 2264 2159 2246 2072 2144 2428 2623 2507 2516 2302 2236 2596 2485 2456 2358 2805 2816 3122 3362 3502 3652 3473 3640 3933 3885 3908 3402 3938
1086 972 1324 1931 1768 1417 1316 1574 1311 1424 1488 1618 1695 1729 935 863 892 1345 1727 1658 1741 2167 2162 2165 2593 2543 2483 2304 2285 2305 2360 2320 2210 2047 1969 2073 2008 2017 1862 1721 2100 2271 2530 2256 2994 2481 2497 2141 2450 2285 3662 2482 2794 3246 3435 3375 3512 3630 3915 3746 3969 3633 3426
708 735 1254 1741 1597 1531 1409 1450 1373 1113 1217 2108 1501 1119 1014 1004 973 1018 1279 1411 1593 2027 2348 2231 2536 2595 2443 2371 2245 2388 2329 2433 2248 2045 1954 1799 1876 1582 1547 1703 1808 2189 2286 2177 2062 2372 2199 2189 2316 2752 3061 2463 2686 3019 3261 3325 3261 3553 3492 3473 3419 3406 3422
873 979 1138 1416 1552 1436 1567 1788 1639 1586 1708 1943 1326 1128 1363 1551 1388 1292 1241 1497 1573 1825 2034 2149 2164 2367 2364 2343 2211 2322 2299 2350 2327 2068 1925 1813 1709 1362 1052 1346 1433 1871 1932 2060 2015 2096 2147 2379 2418 3082 2835 2614 2830 2660 2982 3019 3229 3332 3432 3405 3542 3556 3400
688 818 1105 1124 1216 1348 1616 1606 1654 2267 1897 1722 1496 1354 1347 1252 1218 1295 1178 1309 1566 1713 1973 1979 1975 2126 2257 2402 2111 2056 2281 2223 2348 2189 1882 1744 1558 1369 1187 1129 1122 1043 1697 1759 1804 1915 2608 2203 2263 2677 2734 2535 2680 2549 2599 2744 2813 3126 3137 3288 3303 3485 3168
642 653 757 1064 1290 1307 1338 2012 1918 2018 2174 2087 1879 1560 1211 1114 1350 1740 1798 1457 1597 1816 2120 1824 1415 1670 2070 2351 2238 1981 2128 2215 2256 2229 1849 1766 1651 1153 1130 1029 1179 924 1065 1511 1670 1806 2056 2253 2267 2192 2411 2302 2381 2166 2422 2462 2275 2892 2725 3190 3418 3518 3752
411 421 562 910 1117 1269 1344 1583 1512 1945 1884 1874 1658 1740 1781 1486 1167 1589 1884 1696 1448 1634 1867 1838 1884 1820 1953 2043 2241 2237 2248 2210 2247 2178 2044 1830 1637 1340 1016 940 1104 998 924 1302 1416 1687 1803 2042 2264 2213 2360 2195 2008 2001 2018 2392 2355 2685 2738 2938 3118 3128 3161
331 322 339 532 1159 1212 1322 1425 1596 1595 1819 1858 1862 1410 1016 882 1036 1273 1591 2276 1845 1761 1672 1771 2120 2398 1950 1744 2034 2231 1994 2254 2358 2197 1938 1670 1573 1205 828 791 790 1057 889 850 1149 1228 1564 1813 1909 2111 2169 2043 1990 1936 1902 2508 2386 2495 2529 2793 2827 3028 2980
245 254 210 328 753 1038 1284 1311 1352 1348 1179 1015 1163 1265 1451 1366 1948 1603 1816 1947 1918 2321 1975 1702 1945 1776 1428 1289 2340 1976 1651 2075 2328 2252 2066 1710 1459 1131 766 632 554 835 839 617 751 1001 1164 1572 1643 1658 2177 2016 1914 2228 1611 2466 2418 2160 2105 2508 2818 2871 2819
36 132 213 449 635 825 941 1182 1220 1307 1237 1105 1008 1111 1039 872 946 831 1238 1454 1392 1354 1372 1423 1523 1553 1394 989 1949 1976 1770 1746 1731 1908 2036 1819 1413 1094 761 548 453 648 769 704 364 566 852 1132 1507 1500 1952 2050 1951 2311 1986 2285 2369 2074 1872 1927 2457 2887 2847
305 503 510 682 768 890 969 992 1089 1211 1112 1011 978 957 943 960 930 885 802 910 1032 1133 1135 882 1077 1098 1221 1251 1806 1763 1714 2002 1365 1439 1615 1672 1380 1005 711 724 542 630 623 645 537 245 565 616 1323 1663 1717 1800 1732 1782 2103 2072 2333 2181 2022 1934 1902 2187 2663
472 705 891 838 892 944 1040 1093 975 1033 1108 1013 969 912 893 887 883 806 766 804 833 987 1002 1024 1272 1659 1598 1896 1716 1818 1821 1702 1758 1530 1065 1148 1140 836 725 864 1271 143 543 546 403 297 219 532 815 1444 1751 1748 1677 1593 1704 1908 2016 2255 2278 2059 1960 1908 2040
384 558 860 956 896 773 723 860 898 925 1017 1032 952 881 796 840 854 829 780 808 842 884 1015 942 1092 1014 1320 1197 1211 1545 1658 1427 1139 1390 1257 1327 969 965 966 1310 1717 1372 1446 491 540 454 331 222 626 866 1515 1729 1626 1578 1538 1751 1836 1855 2246 2220 1942 1852 2000
301 456 655 841 720 866 808 826 804 782 891 951 947 880 785 723 698 688 698 786 735 806 755 937 1084 1178 1508 1522 1655 1862 2217 2028 1876 2166 2388 1920 1559 1284 1456 1896 1876 1408 1539 1164 1840 829 438 140 374 632 924 1414 1529 1441 1518 1574 1782 1966 1796 2144 2078 1744 1603
271 255 390 629 547 648 712 756 769 711 732 722 655 494 513 541 582 651 546 667 689 681 758 834 954 947 1021 1371 1211 1485 1617 1721 1852 2232 1801 2173 2049 2103 2298 2356 2182 1590 1427 1398 1476 979 898 1233 1260 293 740 868 1307 1419 1388 1515 1717 1902 1801 1803 2098 2006 1685
294 360 269 364 586 582 611 586 615 636 679 559 439 628 580 489 512 590 672 566 514 557 652 749 889 1000 832 940 1284 1104 1304 1538 1632 1842 1699 1906 2189 2796 2357 2257 2292 2127 1581 1730 1660 1318 1293 1223 1095 1099 1242 942 827 1159 1386 1442 1536 1767 1905 1818 1825 2012 1955
243 307 254 242 311 423 456 488 475 478 461 420 255 467 580 546 537 506 511 498 522 506 534 583 701 790 846 675 883 1365 1173 1162 1412 1528 1399 1393 1518 2524 2264 2265 2323 2207 2059 1879 1651 1511 1558 1493 1235 1291 1302 1280 1518 1011 992 1229 1384 1485 1554 1731 1815 1792 1862
256 304 340 276 306 398 389 420 409 442 447 453 433 423 424 435 488 469 443 400 396 381 392 416 503 445 481 598 580 705 1022 1066 1039 1126 1301 1418 1681 1866 2196 2101 2117 2258 2372 2284 1987 1939 1899 1882 1717 1571 1412 1339 1485 1547 1662 1345 1041 1134 1208 1233 1403 1686 1766
202 258 326 348 334 379 409 500 499 460 436 403 450 418 452 481 486 458 442 324 312 320 345 319 321 268 299 446 452 395 637 877 984 1042 1064 1240 1884 1702 1797 1722 2004 2225 2429 2409 2553 2372 2197 1989 1941 1697 1619 1496 1333 1238 1380 1580 1635 1441 1125 891 920 942 1436
237 242 256 260 259 282 304 369 391 366 390 324 348 363 368 407 309 305 67 200 179 257 330 335 221 321 393 493 501 434 367 424 712 867 1045 1104 1335 1165 1244 1384 1684 1965 2272 2090 2182 2333 2526 2453 2208 1984 1713 1641 1574 1420 1426 1598 1620 1777 1689 1492 1422 1360 1207
163 166 162 134 130 194 146 200 262 276 256 231 230 253 262 249 240 250 203 188 258 260 244 254 276 276 374 419 420 434 426 341 436 617 748 882 1053 965 1008 1043 1311 1387 1722 1741 1753 1643 1772 1961 1922 1882 1862 1719 1650 1573 1525 1796 1547 1514 1840 1933 1756 1569 1553
0 0 15 70 12 70 80 59 122 122 130 154 135 118 126 126 126 123 121 146 183 216 153 145 162 188 238 268 291 329 304 399 456 422 394 436 693 909 978 1375 1180 1239 1679 1684 1642 1591 1497 1513 1549 1596 1724 1804 1799 1894 1893 1779 1808 1927 2078 2120 1905 1736 1786
0 0 0 0 0 0 0 0 0 0 0 0 0 17 53 82 66 40 4 0 0 39 67 63 0 0 125 156 195 236 275 326 369 381 420 462 503 583 775 822 902 874 1010 1352 1472 1612 1736 1910 1938 1913 1904 1873 1873 2131 2012 2060 2010 1989 1931 1874 1892 1848 1722
0 0 0 0 0 0 0 0 0 0 0 0 0 0 0 0 0 0 0 0 0 0 0 0 0 0 0 0 0 87 153 216 272 343 340 280 272 382 544 724 851 809 828 1430 1715 1724 1756 1846 1779 1734 1684 1704 1748 1686 1650 1683 1827 1925 1940 1854 1690 1510 1450
0 0 0 0 0 0 0 0 0 0 0 0 0 0 0 0 0 0 0 0 0 0 0 0 0 0 0 0 0 0 0 0 122 205 292 352 371 340 444 540 602 627 669 723 866 1376 1789 1832 1712 1782 1762 1611 1490 1486 1606 1927 1650 1676 1704 1666 1533 1370 1244
0 2 12 0 0 0 0 0 0 0 0 0 0 0 0 0 0 0 0 0 0 0 0 0 0 0 0 0 0 0 0 0 0 0 115 159 184 241 330 377 452 489 573 582 584 642 778 1506 1707 1509 1295 1546 1774 1576 1599 1780 1648 1331 1345 1311 1243 1257 1331
0 2 2 0 0 2 3 1 0 0 0 0 0 0 0 0 0 0 0 0 0 0 0 0 0 0 0 0 0 0 0 0 0 0 0 0 0 0 38 130 200 320 376 401 460 580 654 648 1126 1447 1538 1513 1466 1489 1590 1616 1870 1718 1287 1280 1275 1355 1434
0 0 2 0 4 10 6 1 0 0 0 0 0 0 0 0 0 0 0 0 0 0 0 0 0 0 0 0 0 0 0 0 0 0 0 0 0 0 0 0 12 105 195 154 140 197 337 401 1106 1338 1430 1436 1427 1466 1399 1406 1550 1646 1552 1406 1277 1342 1502
0 0 0 0 0 5 2 0 0 0 0 0 0 0 0 0 0 0 0 0 0 0 0 0 0 0 0 0 0 0 0 0 0 0 0 0 0 0 0 0 0 0 8 125 115 184 273 455 672 1044 1567 1778 1592 1367 1268 1397 1387 1326 1254 1360 1556 1673 1671
0 0 0 0 0 0 0 0 0 0 0 0 0 0 0 0 0 0 0 0 0 0 0 0 0 0 0 0 0 0 0 0 0 0 0 0 0 0 0 0 0 0 0 0 19 23 324 439 1130 820 967 786 780 1009 948 978 1047 1349 1577 1396 1316 1409 1260
0 0 0 0 0 0 0 0 0 0 0 0 0 0 0 0 0 0 0 0 0 0 0 0 0 0 0 0 0 0 0 0 0 0 0 0 0 0 0 0 0 0 0 0 378 279 116 54 495 55 4 0 25 23 15 228 1021 1272 1415 993 756 974 1000
0 0 0 0 0 0 0 0 0 0 0 0 0 0 0 0 0 0 0 0 0 0 0 0 2 0 0 0 0 0 0 0 0 0 0 0 0 0 0 0 0 0 0 0 0 0 0 0 0 0 0 0 0 0 0 0 27 280 831 397 209 316 609
0 0 0 0 0 0 0 0 0 0 0 0 0 0 0 0 0 0 0 0 0 0 0 0 0 0 0 0 0 0 0 0 0 0 0 0 0 0 0 0 0 0 0 0 0 0 0 0 0 0 0 0 0 0 0 0 0 139 47 0 0 0 7
0 0 0 0 0 0 0 0 0 0 1 0 0 0 0 0 0 0 0 0 0 0 0 0 0 0 0 0 0 0 0 0 0 0 0 0 0 0 0 0 0 0 0 0 0 0 0 0 0 0 0 0 0 0 0 0 0 0 0 0 0 0 0
0 0 0 0 0 0 0 0 0 1 0 0 0 0 0 0 0 0 0 0 0 0 0 0 6 4 0 3 0 0 1 0 0 0 0 0 0 0 0 0 0 0 0 0 0 0 0 0 0 0 0 0 0 0 0 0 0 0 0 0 0 0 0
0 0 0 0 0 0 3 3 0 0 0 0 0 0 0 0 0 0 0 0 0 0 0 0 1 0 0 0 0 3 4 1 2 5 2 0 0 0 0 0 0 0 0 0 0 0 0 0 0 0 0 0 0 0 0 0 0 0 0 0 0 0 0

ECMWFFLT1_con_mucape_090.txt.gz
CAPE
1043 1009 818 664 652 437 368 414 262 13 0 6 17 8 22 252 579 689 604 732 732 952 1404 1148 850 1243 1403 1162 1134 1157 1510 1521 1210 1486 1350 1288 1540 1762 1953 1965 1929 2338 2287 2127 1955 2181 2521 2481 2626 2646 2722 2751 2720 2735 2622 2706 2931 2835 3240 4129 3620 2699 2418
1104 1140 1255 1209 942 683 583 686 721 69 12 1 14 6 17 277 639 748 727 838 762 788 1419 1362 996 1120 1575 1326 1279 1237 1324 1580 1704 1600 1499 1715 2032 2034 2121 2158 2098 2168 2367 2288 2128 2141 2154 2327 2422 2427 2458 2579 2719 2732 2617 2660 2550 2597 2869 3841 3158 3544 3227
1030 1122 1165 1099 975 828 704 614 810 1022 1117 1364 36 0 80 307 672 769 776 970 908 849 1386 1474 1187 1118 1523 1620 1463 1462 1359 1437 1820 1758 1746 1869 2047 2128 2264 2367 2317 2156 2225 2270 2248 2162 2144 2333 2396 2355 2412 2444 2416 3052 3152 2981 2594 2838 3100 3551 3390 3217 3426
988 981 950 1059 965 912 945 983 809 822 1285 1286 1518 406 242 352 709 795 804 1058 1122 1010 1410 1581 1388 1377 1354 1700 1669 1603 1561 1464 1683 1853 1803 1876 2042 2111 2215 2414 2498 2286 2109 2034 2019 1996 2072 2199 2370 2283 3415 2461 2373 2808 3209 3251 3147 3006 3432 3537 3608 3285 3066
908 1012 946 1105 1032 960 995 862 814 708 1147 1223 883 953 677 494 756 897 853 1135 1208 1110 1450 1735 1533 1633 1591 1534 1804 1722 1722 1588 1665 1824 1750 1844 1942 2060 2068 2121 2398 2439 2336 2106 2058 1889 2039 2075 2248 2206 2646 2548 2466 2695 3074 3166 3248 3221 3418 3647 3601 3553 3257
964 1054 1140 1266 1423 1102 1168 1223 986 996 1185 885 824 648 671 717 931 1056 973 1324 1444 1199 1487 1927 1814 1833 1871 1639 1689 1833 1846 1741 1703 1792 1737 1725 1793 1936 1954 1936 2017 2174 2319 2346 2256 2185 2034 2072 2055 2162 2227 2491 2469 2728 2942 3145 3115 3243 3328 3472 3425 3254 3227
957 931 957 1091 1224 1093 1032 1162 922 903 1370 882 703 729 866 984 995 1176 1139 1303 1714 1528 1607 2023 2146 2022 2021 1984 1760 1886 1947 1937 1878 1844 1749 1624 1703 1759 1816 1832 1802 1884 1991 2192 2273 2330 2301 2223 2053 2021 2151 2398 2375 2538 2844 3030 3118 3098 3203 3266 3187 3016 3149
892 764 776 962 1156 1108 1109 1280 1698 1336 1650 1380 981 1013 852 1085 1011 1231 1245 1291 1461 1554 1661 1953 2245 2315 2220 2187 1993 1937 2024 1994 2059 1986 1836 1658 1580 1633 1653 1645 1664 1562 1756 1907 2044 2045 2217 2286 2190 1964 2227 2364 2366 2478 2580 2764 2902 3051 3093 3162 3129 3006 3258
780 756 861 986 1112 1112 1404 1284 1365 1227 1135 1216 1144 935 880 1061 938 1113 1251 1184 1270 1507 1512 1623 2052 2275 2327 2296 2232 2057 2079 2036 2087 2122 2024 1769 1640 1608 1590 1565 1438 1388 1495 1781 1837 1849 1920 2026 2046 2052 2343 2397 2402 2367 2524 2568 2644 2744 2936 2974 3015 2988 3172
633 683 712 796 902 909 1099 1298 1336 1268 1232 1284 939 604 697 736 772 791 894 1258 1212 1234 1319 1644 1981 2132 2291 2354 2299 2164 2072 2102 2054 2120 2190 2017 1780 1721 1678 1660 1528 1258 1143 1288 1541 1628 1680 2068 2054 2084 2372 2471 2462 2381 2357 2407 2410 2460 2600 2673 2756 2821 2842
560 650 692 650 729 881 1107 1275 1308 1344 1354 1154 1111 872 794 967 1196 1087 1032 1035 1011 1122 1230 1543 1869 2049 2133 2263 2240 2096 2100 2107 1947 2078 2132 2115 2028 1838 1841 1796 1627 1280 1124 1010 1113 1404 1551 1814 2043 2076 2210 2366 2371 2282 2173 2146 2223 2284 2284 2402 2507 2571 2644
368 319 440 500 534 764 1015 988 991 1089 1145 1059 1050 1033 970 1011 1104 1019 859 1081 1140 1115 1175 1259 1657 1936 1973 1932 2111 2063 1825 1934 1894 1924 1954 2089 2101 2022 1880 1791 1667 1244 1044 990 837 1108 1380 1550 1878 2040 2056 2080 2087 2064 2047 2017 2009 2142 2168 2253 2414 2480 2532
274 113 0 0 229 589 776 857 805 780 1018 992 996 981 933 872 954 1006 982 1164 1348 1437 1357 1406 1552 1811 1743 1610 1757 1860 1820 1822 1797 1622 1756 2033 2098 2046 1900 1706 1492 1188 890 866 882 764 1048 1372 1593 1748 1880 1994 2028 2047 2060 2042 1970 1982 2072 2115 2237 2423 2442
16 0 0 0 64 414 615 885 764 881 889 912 966 840 674 717 720 848 1019 1062 1196 1501 1600 1575 1552 1643 1638 1550 1484 1544 1676 1612 1262 1205 1382 1441 1911 2066 1899 1686 1374 1138 1177 949 730 292 184 877 1176 1431 1554 1697 1838 1898 1898 1867 1832 1858 1947 1959 1977 2054 2313
317 346 206 456 493 553 470 678 686 543 534 836 841 849 836 803 741 845 912 1156 1208 1260 1337 1466 1468 1481 1587 1576 1559 1402 1189 1188 1336 1440 1497 1872 1965 1964 1902 1666 1486 1340 1168 1213 900 605 638 523 457 1026 1328 1444 1548 1662 1702 1725 1760 1822 1880 1869 1831 1723 1662
490 561 474 637 806 779 716 669 686 610 526 454 638 762 726 681 791 829 821 870 967 1095 1167 1204 1232 1321 1487 1556 1622 1642 1262 1140 1210 1223 1213 1441 1770 1896 1884 1741 1601 1426 1252 1267 1133 1054 623 644 311 412 947 1240 1322 1400 1482 1536 1562 1703 1835 1864 1788 1679 1575
369 602 569 620 777 753 634 649 612 579 362 466 520 488 435 412 438 609 786 857 930 956 1052 1038 1032 1044 1073 1313 1429 1472 1376 1504 1588 1681 1573 1221 1285 1353 1434 1766 1721 1280 1251 1332 1349 1103 1176 630 655 548 354 956 1228 1294 1315 1326 1338 1362 1467 1741 1873 1768 1658
301 491 678 712 669 632 564 541 530 499 545 416 277 492 453 390 134 338 765 753 734 693 895 920 982 988 1135 1322 1421 1447 1498 1502 1577 1682 1877 2220 2330 2189 2030 1973 1759 1527 1315 1335 1337 1453 1372 1055 858 785 683 551 861 1203 1327 1322 1297 1281 1313 1359 1482 1698 1735
210 261 524 663 506 469 478 455 487 461 484 467 406 105 271 356 238 440 467 468 544 534 776 840 921 1076 1024 1047 1379 1508 1591 1620 1580 1543 1694 1797 1818 2100 2198 2137 2052 1859 1678 1578 1562 1535 1565 1530 1472 1183 1072 1070 1141 889 891 1162 1293 1273 1270 1280 1311 1309 1397
234 194 217 209 206 412 394 299 312 370 369 381 395 380 332 300 302 351 405 383 434 430 472 669 826 890 851 957 1061 1217 1430 1506 1488 1414 1420 1550 1672 1543 1597 1687 2036 2201 2245 2183 2008 1879 1800 1810 1659 1503 1421 1341 1299 1210 1284 1256 1164 1094 1153 1230 1318 1372 1336
353 285 223 175 157 79 117 123 150 195 231 319 345 336 268 240 230 229 282 370 379 385 412 439 540 677 717 772 892 1049 1133 1273 1401 1420 1388 1296 1285 1286 1250 1203 1457 1842 2167 2260 2306 2246 2163 2180 2068 1909 1638 1516 1381 1298 1186 1144 1234 1261 1110 1049 1114 1279 1411
379 323 258 216 202 178 198 175 150 135 166 181 180 216 241 307 298 247 209 282 359 348 378 371 419 466 445 418 633 735 815 901 1036 1104 1223 1308 1370 1323 1279 1255 1195 1128 1482 1914 1598 1546 1906 2213 2041 1856 1790 1696 1567 1396 1347 1284 1203 1212 1242 1205 1050 976 986
347 301 302 315 285 245 214 273 281 303 237 205 217 266 284 269 299 341 366 388 412 432 420 356 369 401 380 457 604 740 795 754 677 816 976 972 988 1144 1257 1252 1242 1206 1367 1306 1378 1478 1478 1448 1572 1655 1667 1667 1650 1593 1528 1390 1319 1247 1182 1205 1314 1385 1304
228 251 222 309 303 306 335 284 291 290 310 335 298 292 286 274 252 225 227 140 23 259 294 331 393 362 338 362 375 404 487 577 606 582 586 693 878 934 1018 1072 1101 1127 1133 1093 1090 1297 1372 1490 1464 1392 1445 1204 1166 1878 1971 1836 1624 1517 1493 1497 1484 1554 1639
272 257 259 273 280 322 277 261 215 211 203 213 206 220 247 255 246 209 151 137 121 153 176 208 231 226 290 305 308 334 406 454 512 554 511 428 485 679 764 870 899 916 925 978 994 1316 1230 1140 885 1049 1268 1518 1615 1643 1793 1835 1709 1692 1808 1754 1695 1642 1602
244 218 266 260 225 269 220 165 133 158 174 133 118 81 6 6 133 153 149 154 142 132 140 90 136 153 190 208 260 298 323 361 398 391 374 328 300 362 513 614 703 834 840 833 858 830 882 1215 1285 1129 1098 1363 1512 1517 1678 1671 1577 1484 1535 1602 1596 1639 1639
66 191 145 118 132 134 125 38 0 0 0 40 0 0 0 0 0 0 0 0 45 82 44 72 51 0 81 99 147 189 226 267 293 346 396 402 357 338 379 463 547 600 593 626 723 771 774 759 920 714 707 766 1063 1095 1168 1140 1356 1316 1208 1191 1234 1333 1431
0 0 0 0 0 0 0 0 0 0 0 0 0 0 0 0 0 0 0 0 0 0 0 0 0 0 0 0 0 0 87 136 189 240 312 346 356 365 377 391 408 407 452 478 494 524 596 567 778 680 558 609 794 849 1193 1386 1480 1293 1379 1264 1142 1122 1141
0 0 0 0 98 0 0 0 0 0 0 0 0 0 0 0 0 0 0 0 0 0 0 0 0 0 0 0 0 0 0 0 0 32 105 124 144 169 214 293 336 308 305 281 282 331 381 407 553 1021 848 497 644 1027 792 823 1378 1627 1412 1302 1198 1154 1160
0 0 0 0 14 11 0 0 0 0 0 0 0 0 0 0 0 0 0 0 0 0 0 0 0 0 0 0 0 0 0 0 0 0 0 0 0 60 63 71 108 177 247 290 303 316 337 388 414 614 991 1118 1160 865 673 608 605 853 1006 1110 1119 1215 1394
0 0 0 0 8 0 0 0 0 0 6 0 0 0 0 0 0 0 0 0 0 0 0 0 0 0 0 0 0 0 0 0 0 0 0 0 0 0 0 0 0 0 18 28 35 117 155 188 365 874 1125 973 942 1065 818 437 464 788 791 876 1188 1295 1280
0 0 0 0 0 0 0 0 2 3 0 0 0 0 0 0 0 0 0 0 0 0 0 0 0 0 0 0 0 0 0 0 0 0 0 0 0 0 0 0 0 0 0 0 0 0 0 0 206 79 115 43 50 4 190 258 0 70 370 1272 1346 1386 821
0 0 0 0 0 0 0 0 0 1 2 0 0 0 0 0 0 0 0 0 0 0 0 0 0 0 0 0 0 0 0 0 0 0 0 0 0 0 0 0 0 0 0 0 0 0 0 0 0 0 0 0 0 0 0 0 0 0 20 100 701 693 424
0 0 0 0 0 0 0 0 0 0 0 0 0 2 0 0 0 0 0 0 0 0 0 0 0 0 0 0 0 0 0 0 0 0 0 0 0 0 0 0 0 0 0 0 0 0 0 0 0 0 0 0 0 0 0 0 0 0 0 0 7 2 0
0 0 0 0 0 0 0 0 0 0 0 1 0 0 0 0 0 0 0 0 0 0 0 0 0 0 0 0 0 0 0 0 0 0 0 0 0 0 0 0 0 0 0 0 0 0 0 0 0 0 0 0 0 0 0 0 0 0 0 0 0 0 0
0 0 0 0 0 0 0 0 0 0 0 0 0 0 0 0 0 0 0 0 0 0 0 0 0 0 0 0 0 0 0 0 0 0 0 0 0 0 0 0 0 0 0 0 0 0 0 0 0 0 0 0 0 0 0 0 0 0 0 0 0 0 0
0 0 0 0 0 0 0 0 0 0 0 0 0 0 0 0 0 0 0 0 0 0 0 0 1 0 0 0 0 0 0 0 0 0 0 0 0 0 0 0 0 0 0 0 0 0 0 0 0 0 0 0 0 0 0 0 0 0 0 0 0 0 0
0 0 0 0 0 0 0 0 0 0 0 0 0 0 0 0 0 0 0 0 0 0 0 0 0 0 0 0 0 0 2 0 1 0 0 0 0 0 0 0 0 0 0 0 0 0 0 0 0 0 0 0 0 0 0 0 0 0 0 0 0 0 0

ECMWFFLT1_con_mucape_093.txt.gz
CAPE
647 502 436 370 496 446 325 276 14 44 24 22 48 62 66 170 294 376 618 716 682 681 787 960 912 789 879 1017 1061 994 967 1001 1158 1081 1008 1035 1136 1106 1213 1330 1357 1512 1691 1747 1792 1768 1481 1955 2260 2398 2627 2796 2797 2887 2961 2913 2800 2741 2669 3023 2665 2570 2605
847 703 742 605 818 394 336 431 471 10 42 42 135 45 69 101 277 319 480 665 638 608 652 856 913 850 878 986 1014 960 1008 1081 1195 1497 1338 1305 1324 1178 1301 1490 1486 1592 1770 1730 1720 1695 1714 2049 2328 2443 2487 2614 2740 2814 2871 2838 2743 2617 2478 3256 3176 2960 2651
1028 1036 758 558 613 500 403 470 563 625 26 84 56 12 44 107 243 334 376 596 603 567 598 722 821 830 890 972 1002 969 1094 1168 1147 1407 1398 1375 1306 1402 1397 1544 1570 1631 1863 1918 1892 1837 1872 2033 2324 2463 2482 2518 2611 2695 2697 2640 2583 2314 2381 2782 3230 3122 3009
943 938 874 655 430 315 369 364 583 920 374 112 33 30 32 120 244 315 227 495 613 626 763 770 743 794 897 970 981 959 1027 1198 1404 1316 1336 1287 1288 1528 1602 1674 1685 1663 1842 1992 2059 2011 1972 2019 2195 2334 2840 2425 2456 2496 2610 2571 2467 2276 2567 2811 3354 3148 3103
1108 1104 1038 946 864 768 379 426 440 870 1146 440 140 120 41 73 284 344 171 253 532 618 810 959 818 751 903 1034 1017 991 992 1031 1246 1484 1490 1420 1444 1594 1698 1792 1843 1818 1797 1880 2006 2048 2030 2035 2065 2144 2285 2298 2308 2320 2614 2761 2768 2649 2720 3109 3192 3388 3184
1125 1100 1084 1082 979 975 925 687 505 844 1199 1026 742 360 108 98 335 446 448 548 558 547 665 1020 1027 936 908 1134 1186 1145 1148 1070 1066 1357 1547 1579 1587 1660 1744 1791 1942 1950 1900 1848 1904 2016 2046 2031 2030 2114 2195 2308 2278 2225 2345 2661 2813 2929 2909 3111 3258 3340 3326
1055 1024 1004 1014 1020 983 1080 924 1112 1010 1049 979 988 1281 759 451 477 550 627 964 1059 816 855 1031 1142 1096 1007 1136 1337 1394 1344 1280 1207 1262 1448 1581 1640 1715 1773 1809 1914 2044 2049 1976 1904 1901 1881 1825 1836 1991 2109 2223 2240 2209 2268 2504 2688 2830 2944 3046 3192 3304 3289
888 911 930 904 935 984 963 961 1147 1476 1499 934 952 1030 1097 1054 1093 929 878 980 1008 992 1127 1434 1549 1327 1346 1253 1360 1548 1540 1507 1429 1370 1412 1495 1582 1668 1778 1831 1864 1980 2084 2119 2108 2024 1970 1947 1947 1780 1870 2026 2157 2201 2276 2400 2578 2728 2878 2983 3045 3085 3089
877 887 942 943 1023 1049 1077 1063 1009 1294 1471 1070 954 898 991 1096 1031 962 897 972 1027 1010 1162 1436 1701 1740 1666 1634 1444 1508 1644 1669 1640 1540 1491 1478 1487 1528 1584 1704 1782 1784 1811 1899 1971 2042 2083 2127 2112 2053 2018 1947 2030 2120 2192 2349 2506 2690 2832 2921 2953 2961 2979
876 902 904 953 980 1035 1205 1263 1162 1050 1215 905 757 787 830 996 995 996 981 980 1034 1038 1241 1455 1658 1843 1883 1880 1787 1598 1635 1720 1742 1727 1640 1545 1487 1451 1440 1435 1475 1549 1609 1643 1640 1642 1754 1912 2059 2117 2120 2091 1912 1962 2042 2149 2298 2450 2653 2776 2856 2894 2865
843 871 887 912 900 888 966 1150 1156 1099 1128 956 790 771 830 863 1015 1095 1092 1071 1086 1092 1269 1281 1578 1856 1983 1969 1957 1853 1760 1801 1822 1817 1803 1701 1606 1558 1496 1421 1360 1339 1367 1395 1398 1316 1425 1567 1712 1864 1942 1976 1817 1888 1969 2091 2182 2275 2382 2512 2631 2730 2758
786 747 708 653 622 675 803 869 1072 1085 1116 1084 988 715 709 776 866 1070 1221 1223 1124 1080 1184 1195 1308 1652 1952 2050 2026 1954 1881 1843 1865 1888 1882 1849 1791 1739 1702 1644 1536 1444 1389 1400 1447 1379 1168 1241 1447 1660 1754 1802 1856 1910 1977 2068 2173 2251 2286 2319 2373 2481 2566
656 604 561 550 555 600 618 616 634 1019 1104 1118 1125 1009 851 965 974 1003 1063 1129 1197 1143 1143 1084 1158 1446 1771 2036 2095 2036 1931 1891 1887 1910 1912 1898 1883 1903 1886 1825 1772 1687 1600 1593 1608 1544 1235 1002 1106 1460 1671 1769 1856 1957 2029 2083 2160 2200 2164 2158 2181 2245 2313
580 500 380 319 338 365 456 386 437 776 1107 1007 1067 1099 1064 891 881 913 957 998 950 1144 1170 1222 1439 1593 1682 1888 2074 2128 2133 2051 1997 1959 1961 1932 1888 1866 1871 1878 1834 1754 1628 1476 1456 1427 1262 990 922 1069 1420 1657 1782 1897 1977 2054 2098 2071 1999 1962 2006 2069 2140
161 183 147 108 41 57 382 423 499 738 998 1055 1182 1263 1166 1035 908 768 936 923 846 781 853 954 1135 1331 1544 1811 1904 2026 2145 2180 2046 1916 1910 1923 1856 1830 1851 1827 1780 1706 1550 1394 1290 1114 948 831 804 844 1048 1349 1618 1787 1871 1915 1922 1906 1903 1915 1914 1914 1952
179 90 0 38 128 131 403 483 462 689 968 974 1040 1156 1266 1272 1158 1017 846 930 967 914 835 750 849 976 1124 1400 1670 1911 1995 2015 2072 1986 1826 1787 1826 1815 1871 1854 1810 1689 1562 1374 1245 1123 826 622 620 689 717 970 1246 1493 1672 1759 1786 1821 1860 1866 1840 1801 1774
245 276 157 156 292 468 522 535 508 472 648 802 907 960 960 1059 1053 1066 977 963 920 889 930 1021 1180 1281 1246 1375 1388 1657 1872 1868 1824 1809 1785 1717 1470 1411 1660 1839 1858 1786 1684 1483 1306 1149 1011 980 764 660 603 606 831 1072 1248 1366 1473 1574 1662 1712 1729 1677 1623
334 341 217 214 373 615 671 665 664 570 542 588 590 652 820 871 856 783 805 785 734 852 823 966 1132 1090 1015 1013 1007 1297 1584 1628 1524 1514 1551 1415 1154 1179 1470 1680 1776 1808 1787 1623 1384 1236 1010 774 904 814 691 614 557 676 935 1076 1177 1288 1387 1482 1557 1611 1628
311 368 316 210 348 615 608 588 600 614 509 566 473 376 669 700 789 774 693 665 706 696 720 801 903 996 977 967 1036 1122 1209 1270 1366 1313 1352 1593 1753 1705 1495 1322 1579 1779 1823 1747 1560 1305 1064 832 870 852 766 656 592 574 607 924 1018 1102 1152 1212 1278 1367 1497
147 242 334 360 372 296 266 383 462 481 310 383 441 384 455 531 457 433 534 414 587 567 699 678 757 870 773 787 912 928 1023 1098 1131 1311 1352 1588 1738 1748 1867 1902 1875 1887 1776 1627 1508 1460 1281 1290 1210 1174 1082 965 793 585 562 579 858 1016 1118 1161 1198 1218 1233
162 163 178 350 392 436 364 386 408 368 321 312 333 356 313 348 340 363 385 516 501 495 549 634 549 830 911 957 933 881 911 1110 1076 1172 1293 1274 1207 1296 1260 1656 1963 2046 2107 2212 2142 2131 2091 2043 1876 1624 1450 1340 1261 1169 1092 1054 1000 982 985 1026 1101 1167 1201
136 178 133 40 229 257 238 218 238 208 314 427 375 434 429 424 372 280 293 352 368 441 418 510 522 589 603 856 959 898 846 967 971 1077 1012 1109 1137 1265 1212 1190 1216 1253 1346 1583 1724 1651 1591 1851 1770 1620 1539 1505 1429 1410 1367 1238 1142 1112 1123 1113 1069 1042 998
0 189 206 153 91 98 83 69 101 136 76 24 183 190 228 234 166 243 232 248 292 400 432 380 352 452 663 698 776 670 624 703 819 870 914 1023 1082 1053 1135 1166 1116 1054 999 1003 980 1082 1289 1451 1438 1564 1463 1407 1488 1589 1580 1522 1368 1249 1189 1112 1103 1153 1204
0 0 173 232 194 135 140 104 105 127 168 150 131 130 182 209 34 259 275 274 268 251 325 339 383 401 384 451 583 648 621 584 689 674 749 910 926 922 907 924 974 970 1005 1085 1076 1056 1021 990 1122 1429 1348 1155 1126 1417 1461 1682 1630 1498 1451 1485 1526 1512 1475
0 0 98 226 254 226 153 128 109 108 114 110 140 156 185 207 219 223 209 198 201 186 258 308 343 362 378 367 380 405 446 498 551 466 225 382 590 696 758 821 792 743 869 928 1029 1020 962 991 960 1017 1041 1222 1565 1452 1278 1388 1457 1541 1592 1552 1525 1506 1537
0 0 16 180 191 203 203 192 151 88 96 116 105 116 147 184 197 208 190 167 132 144 225 278 296 313 311 302 284 285 293 320 377 405 429 442 460 542 595 623 607 672 786 868 895 867 827 814 842 859 818 825 943 1051 1211 1311 1360 1338 1312 1232 1183 1128 1099
0 0 0 159 176 113 112 127 116 134 130 84 87 87 97 102 133 173 161 153 120 114 138 149 142 153 181 199 221 248 261 262 279 332 369 420 444 466 512 519 462 445 465 491 528 500 457 534 658 784 787 766 795 870 943 1034 1214 1291 1230 1174 1182 1074 1067
0 0 0 0 54 100 118 108 105 104 102 86 96 98 106 127 122 148 182 150 116 17 89 74 75 96 121 128 146 186 213 262 308 330 339 365 395 401 410 414 407 393 364 322 287 272 278 321 336 462 556 598 636 670 770 735 834 915 938 920 886 847 874
0 0 0 0 0 0 67 73 81 87 30 0 0 0 78 22 32 75 88 113 113 0 0 0 0 0 0 0 0 0 0 0 76 227 261 302 360 371 355 339 330 313 301 274 262 241 242 266 306 398 360 278 306 401 504 523 572 618 675 730 758 816 889
0 0 0 0 0 0 0 0 21 49 51 0 0 0 0 0 0 0 0 0 4 0 0 0 0 0 0 0 0 0 0 0 0 0 0 0 48 220 244 273 273 260 262 258 283 262 246 249 246 228 568 590 313 375 338 370 429 528 591 661 711 702 891
0 0 0 0 0 0 0 0 0 12 40 33 13 0 0 0 0 0 0 0 0 0 0 0 0 0 0 0 0 0 0 0 0 0 0 0 0 0 0 102 108 108 109 109 132 144 171 173 173 349 333 196 194 196 299 232 365 431 468 492 540 584 723
0 0 0 0 0 0 0 0 0 0 7 28 21 2 0 0 0 0 0 0 0 0 0 0 0 0 0 0 0 0 0 0 0 0 0 0 0 0 0 0 0 0 0 0 0 0 0 0 0 0 126 0 0 0 0 10 99 164 272 340 388 453 504
0 0 0 0 0 0 0 0 0 0 0 4 26 21 0 0 0 0 0 0 0 0 0 0 0 0 0 0 0 0 0 0 0 0 0 0 0 0 0 0 0 0 0 0 0 0 0 0 0 0 0 0 0 0 0 0 0 0 16 22 25 61 35
0 0 0 0 0 0 0 0 0 0 0 0 0 5 0 0 0 0 0 0 0 0 0 0 0 0 0 0 0 0 0 0 0 0 0 0 0 0 0 0 0 0 0 0 0 0 0 0 0 0 0 0 0 0 0 0 0 0 0 0 0 0 0
0 0 0 0 0 0 0 0 0 0 0 0 0 0 0 0 0 0 0 0 0 0 0 0 0 0 0 0 0 0 0 0 0 0 0 0 0 0 0 0 0 0 0 0 0 0 0 0 0 0 0 0 0 0 0 0 0 0 0 0 0 0 0
0 0 0 0 0 0 0 0 0 0 0 0 0 0 0 0 0 0 0 0 0 0 0 0 0 4 19 0 0 0 0 0 0 0 0 0 0 0 0 0 0 0 0 0 0 0 0 0 0 0 0 0 0 0 0 0 0 0 0 0 0 0 0
0 0 0 0 0 0 0 0 0 0 0 0 0 0 0 0 0 0 0 0 0 0 0 0 0 0 0 0 0 0 0 0 0 0 0 0 0 0 0 0 0 0 0 0 0 0 0 0 0 0 0 0 0 0 0 0 0 0 0 0 0 0 0
0 0 0 0 0 0 0 0 0 0 0 0 0 0 0 0 0 0 0 0 0 0 0 0 0 0 0 0 0 0 0 0 0 0 0 0 0 0 0 0 0 0 0 0 0 0 0 0 0 0 0 0 0 0 0 0 0 0 0 0 0 0 0

ECMWFFLT1_con_mucape_096.txt.gz
CAPE
538 547 204 750 526 239 42 24 8 25 57 78 68 174 243 302 410 523 595 626 616 575 610 663 739 1003 1134 1158 1170 1170 1162 1160 1113 1042 1055 1061 941 826 1063 1264 1410 1516 1636 1702 1656 1599 1559 1558 1810 2139 2500 2642 2687 2676 2696 2775 2860 2838 2744 2852 2438 2767 2506
526 516 198 651 624 472 397 43 0 11 41 63 61 63 218 245 312 454 564 601 590 557 607 663 671 750 941 1074 1155 1173 1152 1130 1084 1196 1013 1027 1072 890 852 1144 1256 1337 1497 1626 1653 1599 1621 1713 1951 2113 2355 2747 2861 2691 2697 2750 2835 2898 2856 2619 2722 2754 2615
552 402 219 313 558 518 595 580 51 5 32 51 68 52 205 210 241 373 522 612 637 602 621 678 670 644 690 849 974 1051 1061 1002 966 1049 974 950 943 965 963 1096 1190 1263 1385 1543 1570 1559 1671 1675 2010 2130 2242 2447 2703 2656 2666 2684 2769 2832 2767 2590 3024 3118 2743
611 534 435 217 242 430 472 491 774 122 70 53 59 142 194 204 215 282 431 561 618 624 616 690 731 669 628 672 783 884 916 940 913 1021 1021 910 870 1022 1124 1230 1350 1377 1548 1695 1777 1714 1850 1872 2011 2077 2825 2318 2443 2547 2586 2636 2706 2694 2634 2553 2979 2939 2882
770 691 441 264 399 140 276 338 539 937 279 65 71 76 42 158 208 220 320 477 560 582 570 619 724 718 646 622 670 732 833 869 875 977 1094 1016 1003 1164 1266 1334 1400 1475 1547 1726 1890 2070 2033 2011 2002 2050 2311 2330 2376 2415 2652 2645 2635 2596 2535 2653 2923 2999 3024
1024 881 735 567 624 507 478 346 531 832 998 369 56 63 24 41 101 179 261 459 536 528 505 528 649 723 677 673 705 709 773 849 1015 1053 1116 1184 1215 1253 1341 1380 1486 1565 1544 1677 1942 1980 1921 1958 2024 2070 2070 2226 2287 2314 2374 2671 2735 2693 2620 2805 2969 3146 3322
1244 1128 985 849 700 767 719 669 564 612 1106 1121 383 68 23 14 93 182 216 258 498 498 474 523 571 641 664 692 733 835 754 826 953 1103 1164 1143 1156 1277 1350 1426 1645 1618 1698 1714 1768 1870 1873 1921 1942 2007 2023 2191 2325 2188 2248 2464 2686 2765 2816 2828 2981 2951 3128
1170 1183 1104 1102 997 822 646 858 986 888 1228 1076 983 548 109 54 65 192 248 285 418 491 485 680 709 602 614 731 787 787 790 801 845 1016 1196 1268 1277 1352 1348 1399 1580 1709 1781 1779 1760 1752 1776 1819 1901 1954 1972 2043 2223 2225 2183 2298 2466 2526 2740 2848 2860 2908 2983
1069 1089 1110 1128 1068 961 857 814 788 1350 1180 994 958 888 549 224 62 249 402 511 638 555 579 734 912 817 754 802 942 968 908 880 893 864 1026 1168 1246 1340 1388 1422 1462 1568 1774 1807 1841 1811 1840 1803 1828 1868 1880 1944 2107 2126 2144 2245 2350 2468 2678 2792 2821 2865 2896
1095 1128 1128 1128 1129 1171 1149 1119 1055 1076 1195 908 806 880 961 857 660 516 592 741 851 774 804 920 1034 1126 1081 998 1048 1081 1120 1099 1092 1049 1063 1117 1121 1214 1329 1414 1489 1546 1624 1720 1811 1880 1942 1958 1958 1953 1943 1957 2013 1996 2078 2114 2247 2409 2534 2704 2767 2811 2850
901 930 928 944 993 1034 1053 1063 1085 1100 1224 893 697 872 1008 1058 1022 940 797 849 943 925 1117 1146 1186 1360 1338 1309 1264 1250 1267 1320 1301 1286 1225 1219 1167 1160 1230 1331 1428 1540 1642 1697 1758 1828 1889 1961 1989 2014 2006 1998 1999 2030 2040 2035 2125 2260 2374 2543 2643 2726 2739
898 927 954 961 996 1049 1082 1090 1180 1182 1177 1125 1015 826 918 987 1096 1079 936 997 1052 1009 845 1014 1153 1308 1368 1483 1555 1395 1363 1408 1430 1445 1449 1386 1333 1293 1282 1300 1345 1416 1506 1585 1649 1633 1647 1644 1693 1817 1872 1919 1957 1980 2015 2006 1997 2117 2253 2310 2448 2534 2633
866 867 864 850 867 888 884 894 989 1107 1211 1204 1184 1114 1000 1012 1082 1117 994 1090 1076 838 808 922 1084 1298 1383 1526 1613 1569 1442 1407 1461 1534 1615 1611 1547 1486 1432 1383 1355 1350 1370 1390 1361 1342 1350 1361 1348 1649 1727 1774 1867 1912 1935 1898 1863 1981 2093 2143 2221 2335 2457
801 820 780 736 714 702 650 584 576 615 855 1077 1179 1157 1076 961 890 1026 970 1022 917 910 866 917 911 994 1146 1506 1747 1752 1697 1611 1577 1578 1635 1668 1689 1660 1606 1553 1484 1459 1501 1504 1503 1517 1442 1371 1385 1386 1586 1650 1696 1865 1932 1884 1820 1842 1942 2029 2062 2134 2182
668 679 654 604 546 496 439 426 416 416 580 830 942 1026 1053 1021 898 760 900 911 1008 975 939 853 802 780 831 1094 1593 1855 1861 1870 1818 1810 1790 1730 1750 1823 1809 1775 1742 1757 1771 1778 1770 1779 1707 1593 1539 1526 1482 1494 1618 1734 1834 1781 1783 1804 1848 1917 1991 2043 2050
131 133 166 179 185 216 306 326 413 561 661 748 853 911 960 1052 1090 909 699 818 898 994 1076 1086 942 840 827 813 961 1186 1565 1780 1871 1731 1481 1304 1514 1822 1821 1964 1960 1949 1954 1933 1887 1828 1621 1421 1333 1228 1077 1127 1399 1533 1600 1721 1730 1826 1818 1860 1918 1895 1877
130 171 229 216 247 291 334 396 406 494 630 828 995 988 985 966 732 598 808 858 806 783 930 1088 1144 1091 1055 884 1049 1195 1451 1683 1615 1706 1700 1531 1350 1436 1649 1741 1921 1982 1959 1875 1791 1636 1399 1257 1187 1105 897 799 1026 1258 1399 1574 1597 1655 1719 1756 1786 1863 1791
204 221 262 260 322 468 498 467 440 510 627 739 889 950 936 863 744 705 730 733 742 756 694 613 751 756 851 902 1104 1292 1355 1344 1282 1399 1531 1680 1723 1298 1239 1363 1689 1776 1783 1866 1878 1717 1430 1178 1097 1020 938 855 734 891 1108 1288 1333 1458 1539 1587 1607 1627 1840
314 313 314 298 390 521 611 567 573 645 648 630 671 688 698 643 697 734 765 689 757 750 835 902 793 728 710 799 882 962 1034 971 992 1066 1242 1500 1565 1575 1244 1078 1210 1202 1259 1433 1106 1328 1385 1498 1402 1217 1093 940 866 900 840 948 904 1040 1165 1234 1275 1315 1376
199 271 422 391 426 659 730 638 606 608 640 548 475 730 667 601 650 585 572 502 592 647 656 841 905 868 876 912 891 890 895 904 838 922 1170 1440 1544 1447 1329 1115 889 846 1129 1155 1244 1302 1916 1700 1444 1402 1207 1045 884 858 834 787 711 681 795 887 945 989 1035
0 116 280 397 467 388 375 424 389 456 432 492 495 395 254 237 397 454 406 470 453 552 533 638 693 802 848 909 860 825 840 808 798 947 1147 1379 1496 1441 1302 1152 1178 1167 1147 1185 1260 1140 1682 1980 1757 1489 1426 1242 1104 1210 953 834 765 720 655 686 795 884 961
0 0 117 251 429 439 362 285 290 345 461 320 345 336 297 275 91 64 257 258 328 358 489 479 568 626 721 766 802 758 714 666 746 937 1111 1213 1313 1280 1217 1232 1273 1238 1106 1164 1263 1338 1555 1856 1786 1569 1380 1303 1432 1408 1291 1190 1078 1046 1028 998 969 937 919
0 137 24 36 127 255 255 235 206 194 255 298 250 246 241 256 265 283 238 258 267 220 229 285 383 522 563 603 469 665 746 821 866 984 1056 1130 1180 1189 1176 1200 1233 1237 1234 1209 1323 1354 1362 1588 1610 1566 1524 1431 1386 1550 1586 1445 1312 1208 1144 1102 1127 1110 1136
0 0 46 110 0 0 0 0 14 18 0 94 244 270 281 264 262 266 231 193 196 218 249 285 279 390 321 377 70 349 562 662 799 896 977 1099 1185 1165 1123 1105 1092 820 874 1074 1223 1234 1399 1440 1498 1504 1505 1442 1361 1575 1436 1620 1473 1368 1314 1311 1297 1262 1269
0 0 0 0 21 104 66 35 45 37 64 0 0 0 103 177 206 195 136 133 189 237 247 241 20 211 336 303 377 363 336 200 198 258 532 704 912 937 957 903 832 885 978 1016 1118 1190 1125 1056 1044 996 1127 1249 1359 1098 1229 1379 1476 1525 1501 1428 1357 1325 1309
0 0 0 0 0 0 41 66 46 0 0 0 0 0 0 53 0 0 131 140 180 207 214 127 224 227 328 320 345 321 290 285 231 0 0 146 219 350 518 518 607 720 712 748 878 946 932 835 761 687 790 840 893 988 1065 1090 1141 1153 1122 1218 1239 1238 1184
0 0 0 0 0 0 0 0 0 0 30 0 0 0 0 3 32 45 1 103 136 154 157 87 190 278 278 280 283 279 239 228 242 263 240 272 301 269 247 314 325 338 397 437 520 599 624 607 673 609 588 767 786 840 857 818 832 875 1022 1081 1080 1080 1042
0 0 0 0 0 0 0 0 0 0 0 4 0 0 0 25 4 28 32 25 0 0 0 0 100 216 224 14 212 217 209 209 212 204 184 169 183 206 216 274 286 286 219 170 125 9 172 293 299 247 286 443 582 590 663 742 740 773 801 804 784 823 843
0 1 0 0 0 0 0 0 0 0 0 0 0 0 0 2 33 29 4 13 14 0 0 0 0 0 0 0 49 156 169 181 200 198 177 155 155 165 200 203 182 170 178 185 202 148 155 177 167 139 222 182 270 318 359 366 440 522 602 618 649 668 672
0 0 0 0 0 0 0 0 0 0 0 0 11 34 4 0 7 13 0 5 23 0 0 0 0 0 0 0 0 0 0 0 129 146 157 145 133 156 178 195 84 0 0 26 26 144 175 174 200 200 233 158 35 114 252 203 210 257 328 424 459 497 524
0 0 0 0 0 0 0 0 0 0 0 0 0 0 0 0 0 0 0 0 0 0 0 0 0 0 0 0 0 0 0 0 0 0 32 118 61 0 30 20 0 0 0 0 0 0 0 79 124 144 222 322 308 229 184 187 203 204 217 253 306 351 367
0 0 0 0 0 0 0 0 0 0 0 0 0 0 0 0 0 15 0 0 0 0 0 0 0 0 0 0 0 0 0 0 0 0 0 0 0 0 0 0 0 0 0 0 0 0 0 59 70 93 66 146 123 133 168 140 125 118 138 154 165 134 216
5 0 0 0 0 0 0 0 0 0 0 0 0 0 0 0 0 0 0 0 0 0 0 0 0 0 0 0 0 0 0 0 0 0 0 0 0 0 0 0 0 0 0 0 0 0 0 0 0 0 0 0 0 0 0 0 0 0 0 0 0 0 0
11 0 0 0 0 0 0 0 0 0 0 0 0 0 0 0 0 0 0 0 0 0 0 0 0 0 0 0 0 0 0 0 0 0 0 0 0 0 0 0 0 0 0 0 0 0 0 0 0 0 5 0 0 0 0 0 0 0 0 0 0 0 0
4 0 0 0 0 0 0 0 0 0 0 0 0 0 0 0 0 0 0 0 0 0 0 0 0 0 0 0 0 0 0 0 0 0 0 0 0 0 0 0 0 0 0 0 0 0 0 0 0 0 0 0 0 0 0 0 0 0 0 0 0 0 0
0 0 0 0 0 0 0 0 0 0 0 0 0 0 0 0 0 0 0 0 0 0 0 0 0 3 3 0 0 0 0 0 0 0 0 0 0 0 0 0 0 0 0 0 0 0 0 0 0 0 0 0 0 0 0 0 0 0 0 0 0 0 0
0 0 0 0 0 0 0 0 0 0 0 0 0 0 0 0 0 0 0 0 0 0 0 0 3 8 11 10 4 0 0 0 0 0 0 0 0 0 0 0 0 0 0 0 0 0 0 0 0 0 0 0 0 0 0 0 0 0 0 0 0 0 0
0 0 0 0 0 0 0 0 0 0 0 0 0 0 0 0 0 0 0 0 0 0 0 0 0 0 0 2 2 0 0 0 0 0 0 0 0 0 0 0 0 0 0 0 0 0 0 0 0 0 0 0 0 0 0 0 0 0 0 0 0 0 0

ECMWFFLT1_con_mucape_099.txt.gz
CAPE
978 1009 1668 863 566 332 336 293 529 750 1028 1045 1010 907 913 1034 1314 1590 1474 1766 1862 2084 2072 2283 2426 2490 2489 2343 2360 2401 2327 2433 2416 2432 2396 2438 2283 2413 2514 2373 2553 2984 2714 2578 2638 2876 2993 2968 2784 2797 2988 3068 3029 3246 3507 3625 3626 3471 3711 4051 3836 3784 3756
982 1050 1453 1108 402 335 258 369 654 815 858 960 962 961 897 1034 1430 1404 1549 1781 1833 2014 1965 2028 2317 2459 2459 2474 2342 2426 2353 2370 2472 2618 2436 2796 2776 2586 2342 2551 2639 3082 3313 2936 3064 3224 3190 3032 2926 2946 2943 3046 2971 3313 3393 3587 3750 3850 3774 4212 3910 3937 3750
1068 989 1162 1257 714 465 171 153 378 558 728 764 780 818 867 1234 1510 1498 1743 1780 1855 1938 1936 1863 2145 2306 2377 2506 2386 2391 2262 2271 2399 2408 2399 2214 2447 2025 2194 2444 2650 2607 2659 2884 3209 2956 2944 2991 3334 3261 3017 2832 2820 3343 3560 3552 3713 3734 3974 4307 3867 3456 3871
959 989 944 1198 1137 971 702 327 506 584 650 665 797 693 778 1253 1423 1619 1844 1798 1857 1846 1878 1774 1826 1925 2217 2426 2358 2374 2298 2376 2281 2095 1998 2023 2158 2238 2421 2526 2536 2484 2711 2592 2509 2656 2524 2848 3189 3459 3325 3178 3192 3212 3392 3424 3448 3649 3967 4224 3760 3507 3890
1236 1011 752 704 1146 1011 1281 881 753 656 608 545 752 777 829 930 1064 1240 1546 1778 1875 1825 1615 1641 1580 1592 1794 2076 2045 2037 2119 2152 2190 2112 2108 2113 2316 2376 2335 2086 2324 2362 2476 2550 2885 3078 3106 3167 2884 3250 3328 3563 3261 3426 3552 3677 3517 3961 4020 4086 3734 3462 3322
1088 907 616 638 1104 913 724 936 1629 1476 678 532 758 930 683 581 809 832 1152 1511 1766 1786 1732 1750 1652 1704 1655 1634 1723 1751 2043 2198 2295 2358 2256 2403 2416 2178 2192 2300 2318 2459 2467 2718 2756 2810 3176 3054 2915 3048 2907 2904 2864 2824 3002 3224 3409 3579 3852 3923 3606 3147 2955
1034 787 843 611 995 927 816 712 706 1313 1778 1261 430 638 678 662 683 787 966 1138 1353 1600 1607 1581 1631 1722 1720 1509 1592 1809 1995 1950 2139 2012 2050 2050 2163 2204 2304 2415 2543 2421 2351 2855 2880 2920 2940 3119 3175 3247 3130 2844 2963 2785 3054 3429 3336 3546 3844 3867 3669 3585 3475
1109 978 807 889 846 713 765 774 947 1190 1215 1595 1099 554 797 602 668 763 887 875 1075 1294 1482 1410 1371 1568 1720 1688 1619 1619 1752 1677 1795 1939 2016 1924 2039 2132 2239 2481 2666 2815 2947 2696 2816 2952 2776 3046 2977 3141 3201 3035 3217 3300 3199 3602 3865 3309 3417 3520 3467 3388 3315
1184 1100 1007 913 772 807 1057 907 899 1019 1210 1612 1268 756 526 647 859 731 1021 1080 1260 1508 1717 1588 1420 1414 1718 1760 1762 1784 1684 1659 1791 1903 1963 1738 1744 1753 1620 2081 2426 2772 2674 2224 2298 2943 2766 2922 2750 3323 3494 3225 3361 3755 3502 3839 3444 3295 3473 3444 3478 3314 3150
1342 1254 1191 1122 1012 879 1280 1270 1469 1410 1154 1325 1318 1448 911 713 896 997 1204 1381 1478 1708 2003 1807 1572 1665 1864 1858 1740 1629 1659 1781 1687 1482 1627 1574 1627 1580 1569 1514 1854 2538 2221 2113 1890 2505 2969 2946 2947 3410 3694 3482 3644 3801 3630 3748 3491 3386 3414 3628 3437 3406 3456
1296 1239 1273 1290 1266 1207 1159 1068 1189 1494 1583 1541 1197 1104 1102 812 685 805 928 1234 1275 1531 1995 1945 2008 1906 1716 1831 1907 1778 1589 1609 1539 1512 1537 1457 1391 1502 1520 1559 1580 1928 1821 1690 1718 2152 2669 3265 3356 3523 3622 3207 3444 3652 3768 3688 3677 3714 3406 3239 3128 3362 3101
1191 1226 1234 1211 1207 1177 1154 1112 1258 1518 1572 1462 1614 1454 1196 1191 1473 1147 1137 1368 1507 1774 2081 2092 2324 2194 2124 1796 1704 2029 1866 1700 1663 1574 1594 1485 1371 1363 1359 1421 1470 1610 1852 1693 1861 2372 2368 2867 3126 3267 3593 3522 3383 3427 3660 3774 3842 3869 3766 3215 3087 3305 3230
1116 1151 1100 1188 1242 1262 1253 1241 1244 1226 1226 1328 1328 1546 1696 1718 1811 1719 1618 1568 1804 1938 2141 2279 2243 2358 2308 2036 1898 2212 2200 2187 2256 2100 1980 1861 1562 1488 1523 1486 1516 1587 1601 1780 1814 1962 1965 2224 2847 3243 3295 3605 3478 3225 3432 3701 3588 3903 3987 3739 3390 3449 3544
1067 1097 1127 1092 1127 1166 1172 1191 1182 1184 1203 1179 1168 1165 1157 1394 1539 1674 1753 1724 1924 2255 2034 2040 2098 2447 2538 2410 2310 2293 2421 2492 2607 2806 2645 2501 2406 2202 1932 1763 1738 1827 1746 1894 1898 1750 1722 1805 2103 2629 2736 2873 3084 3189 3284 3642 3573 3820 3953 3738 3532 3459 3543
965 969 961 928 935 907 885 843 798 786 878 1078 1156 1198 1217 1220 1324 1825 1575 1639 1635 1775 1871 1908 1941 1556 1779 2464 2677 2773 2632 2836 2942 2998 3011 2883 2829 2641 2470 2293 2236 2244 2204 2176 1965 1652 1704 1759 1690 1918 2171 2255 2621 2826 2924 2805 3016 3018 3368 3534 3673 3518 3324
908 912 860 850 809 753 696 648 609 575 540 475 666 1001 1282 1373 1127 1172 1412 1702 1670 1676 1763 1554 1613 1478 1280 1402 1524 1709 1654 1971 2326 2568 2739 2685 2714 2837 2490 2295 2303 2220 2292 2186 2121 2117 2141 2101 2074 1980 2021 2169 2591 2738 2584 2575 2528 2807 2433 2691 3124 3498 3147
545 579 585 575 536 496 411 371 346 394 471 511 652 887 1036 1146 1107 1224 1160 1198 1382 1533 1328 1324 1122 1368 1356 1008 1206 1083 1290 1404 1474 1609 1745 1923 2393 2239 2105 2056 1908 2088 2237 2264 2392 2388 2424 2278 2100 1911 1791 1789 1887 2078 2126 2140 2100 2152 1948 1807 1832 2726 3392
264 246 213 284 374 362 383 463 485 515 546 583 644 714 823 853 826 922 992 953 888 793 838 1031 1002 913 969 1166 1080 891 817 978 1155 1246 1288 1390 1600 1512 1672 1718 1854 2046 2019 1831 1836 2058 1941 1998 1948 1889 1529 1346 1485 1547 1667 1769 1837 1779 1643 1539 1553 1674 2646
326 324 247 399 424 393 441 500 572 653 624 649 734 759 738 729 715 703 703 709 682 604 669 770 764 820 856 894 936 1264 859 843 941 1009 1018 1150 1287 1568 1584 1370 1589 1644 1780 1695 1837 1870 2138 2283 2040 2155 1956 1571 1667 1475 1496 1590 1567 1449 1346 1339 1367 1447 1588
468 445 425 558 554 503 657 642 648 590 548 731 762 753 714 687 656 646 670 700 650 615 674 699 727 706 742 736 807 1128 915 905 960 1057 1072 1056 1172 1403 1506 1530 1485 1393 1709 1867 1765 1824 1977 1869 2065 2147 2329 2086 1901 1946 1598 1590 1161 858 843 902 1012 1131 1222
392 504 547 688 758 775 748 663 565 537 496 536 498 572 602 518 518 570 436 454 471 495 494 584 655 665 681 715 718 736 730 836 826 944 1011 1056 1088 1036 1122 1348 1497 1379 1356 1766 1937 1906 2158 2154 2214 2227 2222 2072 1988 1864 1444 988 785 735 746 741 694 726 831
241 330 434 460 478 477 470 409 347 337 310 278 294 341 323 335 380 445 427 404 405 401 367 441 489 525 522 672 770 797 823 794 785 744 735 866 893 875 1036 1416 1320 1359 1113 967 1242 1399 1572 1810 1979 2236 1622 1633 1893 1992 1198 1234 1126 929 850 844 814 760 767
116 156 228 281 264 274 307 346 297 271 242 256 264 276 269 272 268 297 312 327 353 335 299 333 402 380 322 443 667 687 677 703 833 798 678 677 662 770 926 1120 1312 1323 1169 1057 1269 1383 1500 1636 1269 1247 1295 1288 1352 1379 1153 1161 1160 1075 1025 1013 1035 1010 1404
116 91 12 192 270 232 246 289 253 193 138 151 170 178 231 234 233 233 261 300 331 347 280 228 312 310 241 40 397 552 434 352 531 604 685 788 758 736 809 955 1102 1112 1199 1096 1230 1616 1886 1693 1351 1433 1420 1302 1169 1251 1204 1169 1186 1178 1173 1190 1145 1270 1978
123 136 127 115 40 53 69 91 88 104 92 83 78 81 102 180 216 214 230 186 200 244 249 229 177 198 238 241 241 209 298 309 195 360 306 361 572 712 779 888 1030 1172 1168 1139 1093 1125 1198 1245 1307 1312 1230 1252 1162 1195 1157 1254 1255 1255 1250 1262 1271 1258 1615
0 29 99 110 103 94 79 91 110 102 90 58 75 62 79 94 122 188 213 148 116 159 210 206 218 169 3 145 70 155 220 247 196 151 176 139 208 372 639 712 933 1074 1038 1031 980 1068 1058 849 1022 934 1014 1068 1114 1078 1169 1090 1041 1061 1254 1330 1358 1382 1366
0 0 0 0 0 0 21 88 94 101 96 76 31 27 0 0 0 0 1 54 75 165 207 230 213 233 85 19 36 91 191 176 90 182 79 123 135 208 166 115 195 667 765 827 839 836 760 809 619 708 818 830 817 913 964 958 1011 1040 1036 1053 1097 1106 1107
0 0 0 0 0 0 0 0 0 0 0 0 0 0 0 0 0 0 0 0 31 103 128 184 184 194 185 150 184 198 175 159 166 158 169 129 171 166 102 150 118 0 0 294 540 521 734 756 616 551 636 545 552 630 628 713 743 798 871 915 952 1013 1033
0 0 0 0 0 0 0 0 0 0 0 0 0 0 9 48 5 0 0 0 12 0 26 93 134 194 163 192 200 178 173 139 135 152 150 143 0 135 141 54 144 116 100 112 90 47 22 200 329 423 443 268 433 434 457 563 614 591 606 692 777 798 811
2 0 0 0 0 0 0 0 0 0 0 0 0 0 0 0 0 8 0 0 0 0 0 0 67 124 151 162 168 191 191 162 154 136 40 45 0 0 100 117 62 0 0 0 0 0 0 0 78 135 180 194 260 232 180 196 306 355 450 516 593 636 670
0 0 0 0 0 0 0 0 0 0 0 0 0 0 0 0 0 0 22 0 0 0 0 0 0 24 91 130 142 141 146 156 163 164 154 0 0 33 128 28 80 72 0 10 81 38 0 0 17 13 36 68 0 0 14 45 97 151 219 234 313 399 442
0 0 0 0 0 0 0 0 0 0 0 0 0 0 0 0 0 0 0 0 0 0 0 0 0 0 0 0 0 0 0 0 0 0 0 0 0 0 0 0 40 70 0 73 29 0 0 0 1 28 24 0 28 4 32 0 0 69 104 0 0 135 118
0 0 0 0 0 0 0 0 0 0 0 0 0 0 0 0 0 0 0 0 0 0 0 0 0 0 0 0 0 0 0 0 0 0 0 0 0 0 0 0 0 0 0 0 0 29 0 0 0 2 5 6 0 0 0 46 0 0 0 0 0 42 24
0 0 0 2 0 0 0 0 0 0 0 0 0 0 0 0 0 0 0 0 0 0 0 0 0 0 0 0 0 0 0 0 0 0 0 0 0 0 0 0 0 0 0 0 0 0 0 0 0 0 0 0 0 0 0 0 0 0 0 0 0 0 0
0 0 0 2 0 0 0 0 0 0 0 0 0 0 0 0 0 0 0 0 0 0 0 0 0 0 0 0 0 0 0 0 0 0 0 0 0 0 0 0 0 0 0 0 0 0 0 0 0 0 0 0 0 0 0 0 0 0 0 0 0 0 0
0 0 1 1 1 0 0 0 0 0 0 0 0 0 0 0 0 0 0 0 0 0 0 0 0 5 9 0 0 0 0 0 0 0 0 0 0 0 0 0 0 0 0 0 0 0 0 0 0 0 0 0 0 0 0 0 0 0 0 0 0 0 0
0 0 9 5 3 2 0 0 0 0 0 0 0 0 0 0 0 0 0 0 0 0 0 0 0 0 2 9 10 0 0 0 0 0 0 0 0 0 0 0 0 0 0 0 0 0 0 0 0 0 0 0 0 0 0 0 0 0 0 0 0 0 0
0 0 0 0 0 0 0 0 0 0 0 0 0 0 0 0 0 0 0 0 0 0 0 0 0 0 0 0 1 0 0 0 0 0 0 1 1 0 0 0 0 0 0 0 0 0 0 0 0 0 0 0 0 0 0 0 0 0 0 0 0 0 0

ECMWFFLT1_con_mucape_102.txt.gz
CAPE
1208 1118 1112 1244 1290 1001 847 874 1052 1117 1052 1443 1898 1784 1721 1602 1322 1706 1781 2514 2634 2666 2665 2498 2416 2449 2566 2561 2695 2690 2892 3169 3182 3209 2892 2959 2703 2798 2880 2732 2896 2903 2543 2502 2676 2488 2637 2280 2063 2053 2425 2440 2503 2729 3126 3262 3312 3073 3102 3452 3402 3172 3098
1304 1251 1170 1177 1182 1034 981 980 1191 1304 1380 1712 1946 1944 1614 1570 1885 2169 2382 2841 2915 2732 2766 2550 2510 2595 2491 2529 2574 2679 2625 2734 3005 2931 2841 2834 3047 2931 2939 2933 2954 3193 3250 2837 2892 2987 3024 2693 2308 2332 2361 2743 2546 3033 3081 3186 3325 3576 3382 3604 3376 3824 3503
1256 1081 1115 1260 1386 1164 1002 1094 1206 1318 1484 1537 1688 1687 1650 1860 2217 2570 2799 2982 3066 2864 2785 2563 2665 2616 2492 2518 2524 2531 2538 2471 2611 2736 2692 2629 2590 2256 2505 2772 2736 2731 2852 2994 2963 3083 2748 2997 2669 2790 2823 2850 2801 3109 3413 3564 3397 3487 4144 4892 3552 3627 3560
1466 1604 2152 1905 1190 1453 1232 1142 1285 1410 1430 1477 1606 1545 1650 1995 2438 2882 3099 3167 3178 2959 2834 2342 2432 2287 2330 2425 2454 2604 2685 2512 2501 2231 2049 2083 2349 2287 2543 2541 2512 2683 2912 3019 2724 2576 2446 2654 2925 3160 2784 3015 3014 3276 3317 3207 3227 3548 3930 4680 3814 3581 3986
1598 1640 1714 1585 932 594 513 456 1116 1600 1650 1431 1562 1736 1530 1818 2208 2734 3079 3094 3166 2870 2442 2287 1824 1755 2037 2164 2137 2111 2334 2313 2381 2146 1944 1921 2072 2388 2445 2228 2170 2206 2584 2595 2762 2706 2675 2673 2898 3057 3020 2955 3242 3302 3446 3586 3380 3838 4015 4231 3816 3644 3582
1418 1396 1579 1542 1013 692 767 1177 1108 949 1220 1238 1328 1721 1578 1798 2413 2519 2808 3007 3126 2802 2559 2555 1891 1784 1911 1736 1633 1500 1832 2159 2246 2296 2010 1777 2032 2030 2253 2295 2153 2111 2246 2529 2609 2639 2685 2699 2682 2806 2769 2768 2619 2605 2814 3143 3026 3219 3702 3774 3552 3282 2901
992 1547 1674 1468 1193 1060 1022 1372 1642 2029 1560 1016 937 1468 1733 1711 2071 2002 2033 2246 2533 2621 2324 2448 2174 1892 2144 1783 1648 1585 1585 1714 1969 1998 2059 1863 1718 1831 1807 2035 2117 1954 2092 2407 2525 2588 2739 2729 2658 2779 2562 2608 2700 2457 2804 3321 3141 2996 3439 3709 4129 3680 3411
1582 1363 1534 1240 1163 1335 958 694 1076 1352 876 969 1737 1443 1672 1383 1412 1632 1514 1543 1761 2148 2229 2169 1922 1896 2142 2180 1631 1493 1592 1409 1380 1746 1659 1631 1490 1428 1358 1641 1983 2161 2287 2316 2430 2529 2493 2796 2625 2648 2743 2567 2696 2784 2994 3282 3328 3326 3093 3496 3678 3481 3214
1725 1745 1214 1114 1088 1198 1149 1015 1042 824 189 48 112 1304 1614 1400 1328 1414 1403 1463 1660 1952 2364 2386 2038 1692 2085 2364 2095 1872 1560 1386 1171 1406 1559 1396 1147 1122 1166 1253 1456 1846 2206 1974 1887 2257 2282 2542 2535 2952 3242 2842 2973 2996 2984 3265 3437 2950 3063 3409 3720 3460 3073
1732 1670 1559 1520 1463 1057 1366 959 725 662 242 174 124 285 1258 1756 1669 1424 1433 1468 1462 1725 2242 2555 2306 2128 2239 2600 2399 1902 1418 1276 1194 878 1132 1120 1030 882 926 810 988 1306 1557 1745 1548 1776 2127 2324 2543 3169 3537 3452 3484 3466 3308 3508 2933 2937 2951 3010 3302 3261 3356
1369 1483 1672 1577 1286 1279 1394 1351 1294 1226 953 445 340 443 1001 746 1102 1225 1420 1549 1548 1617 1921 2394 2499 2367 2405 2876 2940 2483 1428 999 984 834 818 900 707 741 866 706 551 1048 1146 1174 1054 1341 1934 2245 2670 3162 3669 3222 3495 3594 3517 3428 3404 3237 2964 2975 2891 2746 2650
1262 1282 1228 1211 1159 1163 1102 1321 1241 1455 1307 1261 1461 1596 1641 1230 1001 720 427 572 1171 1520 1878 2124 2461 2587 2712 2908 2630 2791 2176 1332 1008 800 829 851 787 694 790 767 508 570 1081 942 830 1181 1549 2230 2304 2619 3379 3358 3285 3449 3560 3343 3632 3624 3511 2991 2786 2604 2473
1439 1347 1288 1169 1132 1142 1078 1064 1168 1427 1552 1536 1486 1535 1448 1669 1447 960 747 659 626 891 1521 2077 2386 2481 2570 2696 2220 2178 2531 2168 1846 1258 1044 1029 954 725 737 766 661 648 652 778 678 762 1035 1617 2291 2563 2800 3183 3115 3040 3218 3336 3241 3462 3486 3127 3037 3130 3286
1298 1375 1345 1369 1352 1247 1196 1166 1029 1013 1214 1536 1497 1554 1292 1667 1786 1595 1273 1196 1068 1020 1477 1842 2048 2233 2129 2081 2018 1611 2002 2298 2343 2278 1899 1581 1513 1260 1077 934 808 912 859 990 978 690 721 1040 1769 2302 2467 2696 2809 2913 2971 3289 3309 3252 3361 3136 3176 3104 3216
1021 1057 1122 1147 1216 1207 1165 1142 1123 1124 1120 1088 1233 1312 1462 1506 1730 1782 1907 1639 1566 1566 1829 2012 1955 1947 1967 2099 2027 2057 2182 2450 2724 2885 2981 2501 2329 2225 1705 1579 1340 1156 1246 1302 1288 914 634 715 1061 1781 2001 2071 2277 2433 2334 2358 2502 2726 3008 2930 2993 2998 3094
1082 1022 1146 1106 1136 1156 1155 1121 1111 1169 1211 1209 1164 1186 1561 1562 1376 1674 1696 1745 1827 1955 2113 2091 2036 1957 1701 1782 1984 2427 2545 2740 2608 2722 3228 3296 3262 3462 2987 2150 1972 1623 1776 2020 1846 1410 1012 939 973 1243 1656 1734 1758 1928 1908 1792 1855 2494 2298 2676 2729 2952 2590
957 967 1045 1044 1045 1054 1010 970 949 924 937 978 978 1312 1879 1960 1555 1274 1015 1100 1276 1430 1731 1710 2129 2516 2320 2304 2453 2258 2507 2803 2756 2966 3537 3976 4168 3766 3648 3197 2575 2099 2207 2338 2406 2173 1799 1732 1549 1345 1432 1556 1522 1577 1445 1384 1440 2319 2021 2117 1979 2187 2555
804 898 865 872 849 815 786 733 742 715 662 623 612 901 1030 1161 1117 1132 1208 1284 1366 1286 1514 1748 1938 1314 1759 1735 2009 2132 2360 2314 2534 2712 2894 2838 3250 3729 4119 3489 2919 2621 2566 2469 2384 2897 2457 2225 2041 1931 1628 1513 1485 1387 1367 1419 1508 1831 1874 1834 1769 2162 2318
562 528 530 587 670 618 618 529 567 614 658 599 700 750 946 1057 1120 1104 1068 1076 1023 1175 1263 1278 1635 1684 1793 1969 1856 2586 1855 1309 1527 2252 2326 2420 2439 2338 2463 2674 2829 2850 2502 2312 2368 2681 2678 2509 2207 2226 2088 1744 1694 1413 1394 1283 1123 1444 1591 1622 1539 1455 1611
627 596 365 308 374 556 613 647 647 656 686 735 748 764 652 711 733 805 799 742 793 780 879 900 935 878 805 874 1200 1700 1721 1300 1353 1483 1496 1423 1304 1404 1512 1485 1868 2297 2268 2317 2430 2560 2661 2511 2594 1981 2272 1818 1607 1798 1684 1329 1080 1255 1153 1043 1003 1060 1212
522 375 328 276 392 527 582 634 643 796 799 824 772 624 567 644 644 620 682 713 682 634 661 643 626 639 611 730 702 793 912 1598 1580 1258 1276 1226 1227 1168 1060 1199 1600 1783 1856 2225 2635 2730 2941 2892 2295 2510 2552 1910 1727 1786 1175 915 1030 916 796 670 605 623 668
420 531 570 624 658 718 722 669 593 491 566 578 490 369 462 521 538 560 536 499 470 453 487 538 561 585 599 570 563 609 619 754 917 1162 957 1042 1117 1064 1043 1256 1427 1664 1671 1622 2132 2426 2437 2567 2179 2124 2374 2235 2014 1501 1608 1092 956 847 738 729 626 569 913
525 610 651 656 703 742 567 388 310 294 252 264 290 335 308 452 438 443 479 473 428 406 376 432 464 496 445 413 444 495 513 625 727 843 895 883 853 910 1098 1207 876 946 1178 1278 1367 1347 1458 1837 1586 2005 2395 2433 2493 2327 1480 1197 966 825 900 920 874 710 1942
377 403 548 627 571 536 316 293 252 254 205 207 219 229 264 278 368 383 399 419 389 345 322 273 354 405 134 115 414 293 453 599 619 626 697 731 686 631 682 1070 770 858 952 876 1297 1749 1825 1534 1279 1661 1804 2087 1983 1304 1264 1070 960 924 1007 1025 968 1413 2595
200 220 270 235 239 240 267 241 216 189 158 144 154 183 188 193 219 253 332 344 310 293 308 340 301 270 308 119 175 157 186 454 491 507 560 648 635 606 653 596 669 770 722 780 1009 1265 1276 1225 1404 1124 1095 1365 1234 1198 1166 1104 1059 1013 988 1047 1030 1050 2278
118 91 113 202 210 222 177 157 140 19 5 51 0 0 0 135 166 193 212 201 230 229 254 299 328 265 210 197 98 0 0 128 319 293 334 357 440 341 284 391 487 626 564 549 696 874 1246 1172 1130 975 767 708 849 804 977 1052 1019 1016 1018 1060 1068 1137 1675
0 37 115 101 70 52 63 63 6 0 39 12 100 0 60 115 124 186 253 273 249 214 195 177 195 179 176 183 160 189 203 0 54 186 191 180 108 204 191 226 390 472 426 398 617 848 986 768 928 853 773 888 719 688 858 911 963 956 963 997 1054 1113 1241
52 103 121 105 97 116 121 125 93 0 0 0 0 0 0 0 89 104 119 130 144 182 195 156 187 194 173 171 161 193 177 176 0 0 0 104 127 150 132 0 39 296 369 460 408 295 356 455 538 547 718 912 901 864 886 949 904 883 941 921 900 874 900
0 27 76 77 57 30 20 22 21 0 0 0 0 0 0 0 0 0 48 82 91 114 119 128 145 168 193 195 192 185 140 155 144 0 0 0 0 66 16 25 6 7 91 172 289 221 133 343 445 404 448 555 723 793 801 795 824 808 766 731 754 737 722
30 66 50 29 1 0 0 0 0 0 0 0 0 0 0 0 0 40 73 74 50 83 106 111 121 135 153 153 143 150 162 141 142 124 105 19 132 0 0 94 89 14 0 7 17 45 25 18 154 301 391 426 390 393 529 585 638 638 579 584 630 633 600
41 11 0 0 0 0 0 0 0 0 0 0 0 0 0 0 0 0 0 0 0 0 0 64 80 90 105 129 122 131 149 148 150 165 67 0 24 116 40 101 0 0 0 2 6 4 2 2 0 121 173 211 249 96 115 206 401 430 452 520 564 492 468
41 11 4 1 0 0 0 0 0 0 0 0 0 0 0 0 0 0 0 0 0 0 0 0 0 0 0 45 98 147 154 149 140 135 134 134 0 0 0 0 33 0 0 0 7 11 3 2 0 0 23 50 0 0 0 59 205 309 312 323 334 314 306
56 30 10 0 0 0 0 0 0 0 0 0 0 0 0 0 0 0 0 0 0 0 0 0 0 0 0 0 74 127 119 125 126 92 78 96 24 0 0 0 0 0 0 0 0 0 1 5 0 0 0 0 0 0 0 0 0 68 140 105 30 12 10
25 21 7 7 1 0 0 0 0 0 0 0 0 0 0 0 0 0 0 0 0 0 0 0 0 0 0 0 56 93 97 98 81 57 37 0 0 0 0 0 0 0 50 0 0 0 0 0 0 59 63 2 0 1 0 0 0 0 0 0 0 0 0
54 10 6 12 7 3 0 0 0 0 0 0 0 0 0 0 0 0 0 0 0 0 0 0 0 0 0 0 0 2 2 2 42 2 0 0 0 0 0 0 0 0 0 0 0 0 0 0 3 0 0 0 0 0 0 0 0 0 0 0 0 0 0
24 72 15 14 0 0 8 0 0 0 0 0 0 0 0 0 0 0 0 0 0 0 0 0 0 0 0 0 0 0 0 0 0 0 0 0 0 0 0 0 0 0 0 0 0 0 0 0 0 0 0 0 0 0 0 0 0 0 0 0 0 0 0
23 11 41 38 29 28 11 3 0 0 0 0 0 0 0 0 0 0 0 0 0 0 0 0 0 0 0 0 0 0 0 0 0 0 0 0 0 0 0 0 0 0 0 0 0 0 0 0 0 0 0 0 0 0 0 0 0 0 0 0 0 0 0
298 164 67 25 23 10 6 6 9 2 1 0 0 0 0 0 0 0 0 0 0 0 0 0 0 0 0 0 0 0 0 0 0 0 0 0 0 0 0 0 2 0 0 0 0 0 0 0 0 0 0 0 0 0 1 0 0 0 0 0 0 0 0

ECMWFFLT1_con_mucape_105.txt.gz
CAPE
1554 1644 1702 1102 850 909 722 698 615 768 824 1027 1220 1194 910 656 692 750 1292 1470 1924 1714 2447 2570 2509 2715 2494 2897 3214 3136 3338 3304 2976 2999 3000 2812 2464 2455 2771 2364 2254 2154 1699 1743 2021 2263 2191 2067 2142 1958 2317 2259 2573 2839 3450 3447 3384 3080 3117 3253 3170 3674 2980
1125 1483 1462 1403 1060 876 897 816 789 836 780 1185 1544 1484 1181 936 1079 1048 1242 1452 1714 1942 2115 2424 2486 2525 2564 2645 2730 3328 3194 3445 3168 2745 2643 2882 3204 3311 2807 2502 2414 2565 3073 2092 2875 2315 2703 2285 2256 2446 2583 2552 2568 2880 3210 3272 3667 3490 3263 3356 3231 3509 3505
1427 1345 1365 1603 1636 1150 900 986 976 1101 1031 1217 1164 1391 1301 1628 1116 1282 1594 1507 1670 1740 1818 2022 2543 2476 2511 2787 2802 2552 2690 3151 3162 3234 2820 2582 3144 2599 2622 2823 2715 2239 2119 2219 2720 2482 2677 2878 2508 2527 2577 2592 2376 2727 3198 3538 3615 3514 3927 5052 3852 3724 3588
1087 1302 1210 1340 1714 1642 1346 1196 1287 1266 1189 1101 957 658 1256 1929 1646 1413 1448 1680 1662 1486 1582 1625 1978 2062 2282 2488 2603 2725 2631 2614 2678 2268 2182 2112 1643 1965 2362 2744 2786 2372 2488 2720 2229 2292 1980 2427 2672 2939 2533 2845 2859 2889 3074 3310 3311 3647 3852 5197 3759 3727 4405
1508 1507 1228 1549 2373 2589 2429 1638 1254 1375 1285 1003 510 682 951 1208 1583 1929 1971 2316 2112 1674 1225 1222 1197 1440 2245 2474 2259 2293 2434 2226 2126 2228 2170 1954 2181 1718 1818 1964 2102 2230 2139 2231 2397 1974 2880 2572 2958 2990 2523 3236 3099 3473 3762 3622 3267 3640 3798 4172 3612 3229 3753
1620 1559 1675 1467 2043 2106 2244 2755 2705 1505 1381 1180 1185 1331 1428 1676 2030 2136 2253 2531 2779 2608 1694 1402 1186 1471 1699 1983 1990 1796 2176 2103 2114 1960 1841 2115 2037 2268 2002 2059 1588 1720 1986 1972 2064 2292 2475 2658 2499 2658 2929 2266 2473 2639 2776 3484 2934 3464 3822 4064 3392 2682 2421
1672 1817 1737 1694 1820 1796 1958 2186 2532 3501 2404 1577 1224 901 1586 1993 2201 2241 2628 2656 2928 2990 2086 1770 1477 1366 1464 1395 1610 1798 1680 1849 1833 1706 1675 1676 1800 2017 1965 2128 1928 1694 1787 2151 1918 1636 2391 2266 2483 2730 2598 2576 2116 2209 2476 3110 2711 2785 3249 3617 3541 3496 3736
1900 1558 1427 1737 1448 1305 1284 1420 2057 2738 2638 2471 2096 1941 2244 2145 2474 2690 2446 2166 2559 2694 2386 1984 1447 1395 1432 1509 1310 1264 1280 1466 1417 1529 1704 1378 1412 1300 1497 2095 1949 1958 1823 1713 1782 2107 2257 2438 2317 2483 2632 2469 2471 2362 2616 3164 3660 2684 2029 3224 4018 3552 2796
1581 1475 1780 1612 1171 1065 951 1251 1735 2098 1624 1628 1632 2167 2165 2141 2319 1631 1967 2163 2130 2526 2730 2104 1540 1274 1562 1869 1748 1638 1304 1282 1260 1310 1148 1053 1054 972 804 1037 1503 1832 1900 1788 1921 2072 2229 2363 2165 2315 2652 2562 2392 2755 2814 3557 3245 2675 2864 3185 3767 3587 2869
1764 2067 1736 1244 1363 1543 1366 1204 1957 1217 1290 1206 1311 1606 1859 2224 1766 2149 2266 2115 2209 2527 2888 2484 1953 1777 1871 2145 2033 1749 1496 1204 952 625 792 649 668 721 787 604 763 1171 1552 1568 1550 1734 1620 2112 2120 2503 3119 2841 2970 3358 2853 3388 3136 2967 2659 3201 3768 3667 3107
1857 1940 1910 1482 1428 1510 1841 1712 1119 1001 1230 1432 1510 835 980 1470 2650 2329 1941 1898 1800 2046 2768 3147 3154 2752 2154 2457 2445 2341 1557 1166 924 793 780 566 386 298 571 518 472 807 1060 1179 1082 1057 1805 1840 2109 2670 3714 2982 3082 3450 3186 2958 2985 2840 2671 2823 2839 2965 3098
1737 1694 1679 1418 1502 1663 1921 1691 1213 1176 1111 1146 1586 1096 779 799 1328 1911 2730 2746 2144 1952 2097 2805 3209 2962 2766 2824 2520 2765 2341 1621 1114 779 540 445 545 350 348 368 339 456 858 946 989 1002 1221 1879 1912 2404 3443 3031 2894 3012 3295 3227 3277 3107 2862 2645 2604 2618 2597
1779 1656 1764 1471 1444 1592 1694 1596 1774 1613 1529 1121 916 1096 797 759 1024 1057 1250 1593 1823 1869 2027 2544 2984 3038 2656 2560 2701 3029 3144 2675 2152 1333 780 564 420 371 408 408 364 322 426 717 835 826 361 1243 1958 2166 2886 2972 2836 2969 3212 3383 3263 3541 3192 2856 2543 2539 2499
1550 1617 1505 1450 1506 1495 1671 1611 1704 1836 1810 1670 1707 1597 1457 1486 1651 1324 1118 1030 931 984 1103 1523 2343 2994 3054 2658 2592 2464 2775 2898 2458 2039 1474 963 745 568 565 500 485 523 486 572 739 372 647 622 1427 2041 2301 2801 2584 2652 2916 3547 2640 2833 3115 2466 2504 2544 2850
1344 1395 1468 1414 1490 1612 1476 1576 1610 1606 1907 1756 1602 1637 1711 1567 1492 1582 1660 1484 1411 1160 1015 1124 1695 2350 2711 2894 2693 2582 2614 2486 2656 2600 2368 1766 1347 909 743 813 840 910 873 787 845 617 641 558 614 1463 1962 2246 2520 2314 2342 2674 2936 2659 2986 3272 2852 2461 2344
1162 1206 1181 1205 1224 1302 1282 1204 1346 1598 1733 1827 1631 1866 1961 1974 2011 1910 2025 2048 1750 1655 1692 1400 1575 2127 2235 2239 2574 2689 2567 2460 2699 3076 3398 2607 2252 2026 1480 1221 1131 937 1171 1261 1172 1270 1182 907 564 731 1459 1891 2219 2328 2102 2077 1889 2007 2045 2336 1714 1345 1680
1109 996 1050 1192 1232 1239 1161 1092 1283 1437 1535 1697 1510 1785 2012 2229 2376 2066 2077 2104 2177 2018 2056 1975 1954 1969 2123 2164 2178 2204 1959 2895 3118 3071 3306 3474 3327 3009 2998 2922 2427 1853 2010 1672 1661 1771 1846 1190 795 579 787 1330 1762 1970 1608 1302 1573 1455 1805 1749 2153 2442 2826
990 918 911 954 1066 1090 1050 979 1023 1168 1209 1291 1273 1231 1814 2053 1747 1639 1664 1605 1650 1901 1809 1920 2062 2010 1996 1926 1907 1481 1777 1420 2292 3322 3083 3477 4535 4685 4650 4489 3532 2968 2629 2143 1689 2511 2234 1824 1275 1054 886 939 1187 1549 1452 1086 1936 1536 1892 1939 2027 2163 2328
901 889 956 981 1096 1106 1091 1055 1038 932 862 928 985 1068 1226 1315 1421 1436 1332 1299 1262 1188 1205 1342 1344 1394 1345 1464 1447 1630 1848 1837 1366 1726 2462 3272 3554 3828 4175 4238 4183 4057 3276 2601 2671 2309 2548 2478 1877 1434 1287 1048 1210 1164 965 1105 794 1509 1735 1662 1593 1350 1880
850 952 1016 982 1007 1032 992 924 858 836 810 769 745 756 770 918 904 1149 1184 1156 1200 1200 1293 1232 1193 1134 1125 1170 1095 1026 1101 1338 1517 1326 1586 2061 2308 2526 2278 2820 2743 2779 2864 2795 2947 2807 2953 2656 2446 1931 2359 1500 1076 1841 1413 800 1046 1433 1517 1223 1372 1434 1371
791 891 908 870 894 889 828 784 757 709 710 718 672 624 624 637 762 824 868 908 918 975 1072 1203 1235 1227 1173 1125 1045 955 917 837 878 903 1340 1518 1535 1751 2100 2306 2336 2430 2423 2277 2331 2406 2716 2997 2534 1693 1888 1391 1147 1062 1159 1042 870 1177 1202 1133 976 998 1067
648 630 622 591 570 526 532 669 587 675 706 628 609 543 627 708 713 739 736 770 726 693 678 742 836 799 750 790 823 830 854 1030 1078 1018 1012 1652 1599 1684 1734 1839 1843 1884 2465 2344 2015 1966 2210 2076 2328 1631 1546 1291 750 380 878 836 1007 1031 1047 980 915 708 1066
439 438 391 353 442 548 660 686 581 380 637 596 529 442 518 633 650 686 702 716 635 614 638 683 696 661 627 663 598 580 594 589 707 809 973 1148 1301 1316 1396 1638 1816 1850 1778 2100 2146 2071 1752 1496 1163 1026 1031 856 1089 946 608 818 915 918 875 864 818 708 1436
458 512 483 456 488 469 590 476 316 329 421 657 477 399 411 423 499 606 609 574 581 527 486 499 510 506 508 539 525 539 510 477 554 592 713 770 968 1012 1031 1036 1352 1422 1158 1255 1780 1722 1554 1238 1420 1204 1003 941 883 783 645 974 1119 1218 1091 894 704 693 2166
339 498 511 529 629 567 421 376 320 313 276 295 324 337 356 376 423 455 463 476 501 479 454 448 432 392 354 344 336 322 350 355 443 541 573 665 757 725 892 898 926 1040 915 846 955 1125 1244 1007 1172 1083 1177 971 646 582 707 917 1136 1179 1016 850 832 834 2309
310 447 471 460 484 500 364 298 229 239 236 225 235 246 262 271 286 350 399 398 375 392 426 415 396 359 346 332 298 279 240 332 389 463 489 390 605 603 588 662 715 683 646 528 714 1002 991 628 804 942 996 1072 1131 851 747 948 1026 978 979 1012 1010 979 1316
199 275 391 355 376 378 331 215 208 224 216 204 198 244 244 221 231 232 242 283 334 371 398 382 326 325 365 391 344 314 282 246 207 371 401 436 386 528 536 574 592 589 547 511 480 585 605 535 679 791 761 856 1043 962 853 731 713 777 932 1004 974 956 1018
196 202 246 288 258 180 194 145 123 139 126 25 137 132 133 128 165 200 210 215 223 285 308 279 263 275 294 332 306 300 282 254 230 200 294 368 374 347 324 332 344 354 374 364 350 325 458 510 567 612 711 741 753 684 702 634 588 779 883 926 856 865 981
58 73 0 0 0 0 0 0 16 0 71 65 88 92 112 118 122 136 179 264 337 376 368 344 296 256 234 228 237 218 244 258 237 211 204 150 184 213 204 209 207 166 170 233 220 236 253 419 558 436 440 459 605 539 456 468 456 442 586 727 811 785 767
123 0 0 0 0 0 0 51 35 0 0 37 33 32 0 0 0 111 180 186 140 131 150 146 155 181 179 173 168 161 186 228 213 190 190 185 162 117 113 137 64 21 54 116 95 10 35 209 274 301 372 390 301 402 419 469 474 479 541 648 716 710 708
52 19 0 0 0 0 0 0 0 0 0 0 26 0 0 0 0 0 109 138 55 0 1 129 131 124 111 126 146 150 140 140 156 176 187 175 142 108 104 104 119 50 15 31 14 13 6 5 151 229 216 256 292 172 4 200 320 456 529 580 588 594 610
14 19 15 0 0 0 0 0 0 0 0 0 0 0 0 0 0 0 0 0 0 0 0 0 0 68 62 64 63 56 80 61 63 92 128 135 136 133 103 78 92 76 85 28 17 11 4 4 2 1 190 180 174 176 3 50 122 167 329 122 311 405 423
73 27 12 0 0 0 0 0 0 0 0 0 0 0 0 0 0 0 0 0 0 0 0 0 0 0 0 0 0 0 0 0 0 92 144 131 117 113 84 12 0 0 22 101 28 10 16 8 6 5 7 125 196 223 142 162 204 112 50 230 239 258 256
7 43 19 8 0 0 0 0 0 0 0 0 0 0 0 0 0 0 0 0 0 0 0 0 0 0 0 0 0 0 0 0 0 94 112 104 88 65 0 0 0 0 0 0 0 0 0 0 0 0 0 1 0 97 158 168 121 0 0 0 58 77 164
320 297 231 49 0 0 0 0 0 0 0 0 0 0 0 0 0 0 0 0 0 0 0 0 0 0 0 0 0 0 0 0 0 0 68 62 54 2 0 0 0 0 0 0 0 0 0 0 0 0 0 0 2 77 77 64 0 0 0 0 0 0 0
272 257 228 97 47 25 24 3 1 0 0 0 0 0 0 0 0 0 0 0 0 0 0 0 0 0 0 0 0 0 0 0 0 0 32 57 50 0 0 0 0 0 0 0 0 0 0 0 0 0 0 0 0 0 30 33 31 0 0 0 0 0 0
590 431 238 128 63 93 35 20 0 0 0 0 0 0 0 0 0 0 0 0 0 0 0 0 0 0 0 0 0 0 0 0 0 0 0 0 0 0 0 0 0 0 0 0 0 0 0 0 0 0 0 0 0 0 0 0 0 0 0 0 0 0 0
743 608 390 187 159 55 81 23 3 0 0 0 0 0 0 0 0 0 0 0 0 0 0 0 0 0 0 0 0 0 0 0 0 0 0 0 0 0 0 0 0 0 0 0 0 0 0 0 0 0 0 0 0 0 0 0 0 0 0 0 0 0 0

ECMWFFLT1_con_mucape_108.txt.gz
CAPE
1359 938 1396 1739 361 387 642 736 851 935 769 783 484 285 348 966 1444 2407 2364 2792 3090 2804 2955 3292 3200 3151 2979 2960 2752 2842 2783 3378 2950 3178 2617 2544 2698 2972 2958 2917 2613 2986 2568 2275 2364 3419 2916 2568 2274 2165 2888 2908 3033 3480 3658 3839 3792 3148 3425 3319 3815 4939 4094
1261 1070 1149 721 663 756 729 843 1037 1152 880 786 502 1193 230 1602 1871 1888 2308 2468 2593 2630 2643 2816 3138 3062 3020 3106 2631 2661 2441 2878 3404 3543 2914 2226 2310 2847 2689 2979 3640 3341 3370 3248 5145 2752 2918 1668 2453 2424 2812 2910 2566 3558 3425 3831 3885 3843 3442 3779 3657 3620 4158
1485 1034 876 1287 535 685 930 752 779 825 818 472 603 556 524 1511 1578 2431 2894 2600 2747 2798 2310 2459 2851 2629 2607 3037 3142 2866 2432 3071 3218 3060 2451 2254 2567 2558 2788 3365 2888 3401 2446 3361 4539 3126 2676 2012 2592 2835 2717 2535 2064 3196 3574 3786 3972 3749 3940 4946 4096 3487 4154
1062 1610 2013 2256 1645 1502 992 1012 928 926 618 516 897 710 1206 1918 1386 2282 2408 2444 2519 2417 2327 2079 2244 1991 2339 2770 2711 3005 2833 2841 2473 2300 2086 2483 1979 2112 2544 2995 2481 2643 2859 2637 2535 2468 2813 2509 2349 2810 2685 2947 2965 2815 2987 3219 3259 3582 3945 4956 4715 4024 4639
1066 1490 1848 1965 2474 1559 1446 1172 1426 1247 874 511 1119 2224 1887 1899 1613 1696 1878 2039 1934 1935 1731 1838 1604 1942 2126 2182 2109 1996 2307 2149 2341 1720 1666 2115 2491 2218 2238 2232 2574 2309 3070 2749 2873 3283 2524 3068 2256 2588 2803 3361 2825 3343 3190 3245 3258 3796 3849 4346 4246 3661 4182
1114 1587 1767 2014 2003 2866 2089 1540 1244 1437 1030 726 1279 1573 1464 1062 1435 618 1401 1896 2040 1624 1744 1899 1634 1818 1504 1869 1732 1448 2098 2432 2606 2530 2058 2890 2292 1791 1756 2109 2041 2058 1853 2573 1930 2048 2463 2536 2585 2555 2327 2098 2254 2541 2954 2995 2602 2718 3726 3893 4015 3180 2880
1092 1193 1505 1866 2608 2707 3265 3822 3530 2210 1243 1491 1310 1356 1577 1548 1984 2188 873 1159 699 1142 980 969 1081 964 1568 1466 1619 1835 1948 1736 2073 1652 1435 1662 2362 2154 1920 2216 2235 1698 2039 2246 2001 2086 2380 2727 2472 2463 2529 1956 2350 1634 2519 3594 2760 2849 3578 4166 4286 3983 3690
1156 1238 1124 1687 2237 2306 2835 3622 3346 2928 2550 2164 2449 2051 2127 2233 1880 1404 956 1145 757 791 540 653 497 1014 1562 1548 1184 927 1191 1316 1363 1386 1574 1124 1120 1905 1868 1689 2285 2191 1795 1641 1851 1925 1844 2099 1701 2476 2449 1994 2112 2600 2153 3391 3732 2737 2902 3647 3822 3384 2684
759 1121 1148 1563 1826 1742 2335 2248 2430 3321 3006 2068 2621 2572 2174 1824 1751 1301 1236 942 711 1118 1561 1292 817 706 1440 1172 1411 1516 1129 999 1341 1214 1190 918 785 836 796 1382 1741 1854 1633 1439 1418 1743 1738 1954 1612 2640 2706 2239 2708 3002 3322 3499 3191 3169 3012 3117 3684 3617 2784
1920 1700 1173 1116 1669 1738 2350 2114 2201 2287 2369 2842 3009 2398 2019 1845 1321 1073 1464 1476 1019 1517 2612 1575 1398 1443 2262 2004 1067 697 633 972 818 912 965 802 720 627 662 534 768 1201 939 1390 1228 1145 1812 1917 1856 1885 2809 2694 2923 3269 3088 3257 3360 3444 2917 3108 3372 3342 3514
1417 1461 1726 1440 1678 1761 2102 1747 1634 1780 1783 1718 2203 2838 2585 1580 1136 1725 1413 772 1495 2848 2984 2947 2303 1832 1453 1908 2258 2056 638 545 511 459 561 505 430 396 418 368 304 618 870 985 1017 916 1479 2151 2176 2364 3474 2172 2500 3112 3183 3152 3407 3313 2684 2822 3156 3533 3540
1224 1168 1244 1458 1729 1584 1830 1982 1715 2019 2031 1854 1694 2134 2272 2501 2512 3140 2567 2176 1591 1897 2152 2780 2705 2866 2834 2358 1899 2524 1894 971 512 364 283 321 338 260 195 225 224 232 402 651 731 1275 1430 1495 1663 2610 3185 3293 2701 3217 3565 3342 3382 3306 3078 1920 2156 2958 2980
1330 1410 1263 1168 1364 1525 2117 2141 1637 1614 1816 1947 1877 1684 1817 2102 2145 2238 2364 2367 2597 2443 1855 2523 2649 3513 2842 2049 1648 2354 2591 2162 2345 2705 731 293 273 250 190 170 142 143 190 482 712 802 748 1250 1661 2393 3143 3657 2758 2387 3316 3517 2839 3777 3701 2983 2390 2470 2626
1174 1177 1136 1040 1152 1343 2272 2003 1780 1388 1566 1515 1649 1576 1487 1385 1674 2045 2076 1910 1956 2062 2189 2337 2844 3153 2908 2665 2570 2610 2856 2813 2840 2799 2762 2129 1666 1275 239 176 256 262 415 618 816 545 562 400 1408 1766 2404 2900 2940 2935 2867 3677 3443 3592 3752 3664 3093 2717 2421
1128 1056 1055 934 1188 1417 1529 1811 1808 1540 1467 1416 1450 1810 1770 1301 1170 1465 1750 1678 1819 1838 1778 1679 1692 2221 2853 3276 3126 3133 3127 3283 2998 2059 2436 2389 2801 2649 1816 1321 1053 1142 1443 1037 594 342 453 446 352 1123 1590 2006 2782 2606 2264 2226 2376 2477 2972 3399 3386 3104 2328
1192 1100 1102 1038 1211 1341 1261 1307 1381 1310 1897 1886 1651 1983 1964 1837 1770 1734 1567 1654 1344 1484 1515 1316 1366 1515 2184 2400 2640 2941 3177 3044 2789 2352 2703 2384 2292 2204 2310 1865 1508 1253 1478 1349 1155 1278 1159 1388 858 310 950 1921 2148 2455 1972 1399 1795 2575 2834 2903 3284 3256 2410
1235 1196 1210 1223 1307 1260 1229 1235 1281 1348 1292 1535 2083 2094 2124 2358 2442 2076 1867 1888 2130 1898 1658 1745 1677 1562 1524 1938 2263 2518 2570 2817 2367 2112 2276 2376 1981 1370 1314 1035 1050 1328 1848 2344 2012 2300 3052 2137 1188 391 285 744 1778 1931 1626 1486 1579 1383 1896 2128 2364 2839 2579
1217 1239 1090 1016 1055 842 1142 1228 1152 1195 1369 1427 1515 1657 2094 2261 2330 2147 1979 1940 2000 1948 2018 2107 1936 1511 1517 1535 1876 2156 2114 2051 1852 1904 2241 2437 2385 1964 1704 1534 935 1178 1119 1131 1054 2260 1774 1570 1784 2008 1208 493 526 1261 1380 936 898 799 778 1084 1441 2250 2571
842 1084 928 989 970 947 1000 1160 1075 1145 1075 1254 1367 1508 1591 1650 1594 1752 1731 1643 1659 1671 1634 1634 1733 2025 1863 1874 1842 1985 2106 2071 2145 2090 1583 1662 2017 2259 2254 2280 2113 2239 1743 1496 1640 1603 2516 2118 1568 1689 1814 1010 950 1040 1136 782 800 730 588 884 1241 1544 3485
1010 827 764 752 817 815 928 818 866 880 800 957 1068 1074 1365 1477 1577 1532 1452 1423 1461 1467 1498 1497 1360 1288 1347 1335 1225 1482 1554 1706 1863 2044 1516 1172 1339 1784 1775 1899 2510 2530 2250 2074 2782 2564 2096 2228 2164 2033 1753 1381 1316 919 764 552 646 749 1020 1089 1186 1499 1888
830 696 655 714 747 836 794 833 786 764 758 790 890 964 1038 1164 1375 1375 1342 1289 1233 1224 1224 1207 1208 1139 1089 1176 1247 1236 1100 1115 1325 1513 1554 1667 1605 1666 1931 1586 1608 1920 2346 2407 2498 2461 2781 2592 2299 1656 1410 1183 1286 1090 916 996 897 894 1211 1534 1676 1765 1632
671 661 687 714 757 771 742 747 681 665 609 691 731 829 814 881 1024 1110 1152 1186 1155 1183 1146 1078 1070 1055 1115 1114 1094 1061 1088 1082 1031 1178 1195 1409 1522 1633 1694 1495 2000 1761 2478 2362 2389 2229 1774 1669 1766 1891 1351 1294 1240 1280 993 704 760 923 1219 1384 1345 1162 1018
610 634 640 755 782 756 711 700 655 452 589 542 537 624 736 720 680 656 681 710 708 788 816 752 748 803 812 850 845 850 864 869 877 901 913 869 897 985 1156 1008 1386 1376 1387 1806 1909 1596 1250 1288 1145 1266 1325 1327 1345 1334 1309 1070 673 861 904 1046 1126 970 1643
600 610 618 694 771 797 717 656 602 571 548 552 559 548 552 535 506 514 545 532 530 577 584 583 630 617 606 632 672 619 614 610 600 675 771 934 956 886 814 820 943 1001 1324 1393 1712 1546 1035 803 922 1084 1165 1296 1249 1113 1130 893 791 842 864 969 1018 1017 1614
542 542 544 586 640 657 586 582 568 550 483 420 382 371 351 380 391 448 504 474 381 426 552 573 560 560 557 553 554 570 591 597 571 545 518 548 621 765 733 744 726 738 882 870 1286 1408 1342 993 1067 1176 1156 1000 904 874 770 760 745 725 848 959 975 965 1784
442 413 408 456 427 363 294 281 280 299 311 303 262 214 348 357 378 416 473 534 500 536 544 526 500 483 436 417 448 447 425 415 408 398 424 438 456 529 521 520 590 666 802 856 857 700 1078 629 698 722 859 957 1076 1052 897 715 642 650 876 1025 1071 1049 1882
366 386 346 327 360 326 335 356 352 325 300 296 293 284 305 354 386 385 393 453 452 458 448 446 440 428 388 320 322 369 379 349 316 262 305 394 446 476 471 445 471 499 274 671 698 696 689 600 590 532 552 636 927 990 930 772 605 543 626 824 931 954 966
282 322 296 292 334 374 403 377 333 281 280 282 287 295 299 308 276 302 332 369 387 359 374 394 408 391 405 369 284 290 327 293 287 263 212 250 309 380 366 317 421 438 360 26 460 509 610 669 594 491 474 467 493 708 837 804 684 530 535 652 735 792 870
155 95 242 296 288 316 350 403 388 314 243 230 231 236 228 236 254 263 264 259 282 289 302 295 313 317 304 316 312 255 296 298 269 241 218 215 187 195 243 268 303 296 290 340 372 255 206 246 342 481 543 536 497 523 676 748 712 729 689 597 584 651 814
78 198 176 223 275 267 250 285 291 262 196 167 156 175 172 154 159 192 217 225 201 199 215 230 251 290 312 286 244 230 238 243 224 236 209 216 213 188 162 122 149 85 23 182 235 127 4 175 277 331 360 377 414 503 603 645 665 680 778 787 672 582 562
46 26 0 0 0 53 42 0 0 0 0 0 0 0 0 50 135 148 175 169 187 254 307 296 268 234 217 211 205 184 192 170 126 170 185 232 230 211 187 162 91 180 140 60 24 13 7 1 43 2 54 228 328 418 386 228 420 386 361 494 485 400 446
8 14 30 22 0 0 0 0 0 0 0 0 0 0 0 0 10 88 107 86 71 63 0 52 124 133 136 118 0 0 0 0 0 0 52 9 0 0 89 111 103 99 63 361 30 19 18 47 46 48 1 172 263 304 326 306 158 204 275 158 337 338 356
209 33 0 6 12 6 5 0 0 0 0 0 0 0 0 0 0 0 0 0 55 59 0 0 0 0 0 0 0 0 0 0 0 0 0 0 0 0 0 71 88 102 90 69 6 6 17 6 11 19 2 0 96 180 216 197 64 83 93 113 8 71 197
671 128 78 0 0 0 0 0 0 0 0 0 0 0 0 0 0 0 0 0 0 0 0 0 0 0 0 0 0 0 0 0 0 0 0 0 0 65 49 0 0 0 0 0 0 0 0 0 2 4 8 4 14 31 108 194 56 47 133 166 171 146 70
560 377 204 68 24 1 246 16 0 0 0 0 0 0 0 0 0 0 0 0 0 0 0 0 0 0 0 0 0 0 0 0 0 0 0 0 0 0 64 0 0 0 0 0 0 0 0 0 0 0 0 0 0 0 0 0 0 0 94 136 135 138 11
368 297 153 48 22 56 94 58 2 0 0 0 0 0 0 0 0 0 0 0 0 0 0 0 0 0 0 0 0 0 0 0 0 0 0 0 0 0 0 0 0 0 0 0 0 0 0 0 0 0 0 0 0 0 0 0 0 0 0 0 0 0 0
354 300 303 91 81 164 115 50 24 2 0 0 0 0 0 0 0 0 0 0 0 0 0 0 0 0 0 0 0 0 0 0 0 0 0 0 0 0 0 0 0 0 0 0 0 0 0 0 0 0 0 0 0 0 0 0 0 0 0 0 0 0 0
582 447 398 333 262 309 228 129 53 2 0 0 0 0 0 0 0 0 0 0 0 0 0 0 0 0 0 0 0 0 0 0 0 0 0 0 0 0 0 0 0 0 0 0 0 0 0 0 0 0 0 0 0 0 0 0 0 0 0 0 0 0 0

ECMWFFLT1_con_mucape_111.txt.gz
CAPE
992 1101 1120 716 450 203 210 522 502 322 172 537 376 398 1122 1700 1844 1932 1920 2288 2494 2696 2833 2579 2539 2474 2735 2852 2692 2246 2182 2243 2319 2359 2570 2980 2908 2778 2879 3154 2832 2604 2466 2564 2751 2477 2162 2459 1706 2820 2735 2699 3055 3729 3428 3590 3193 3860 3372 4448 3780 4477 3126
936 1118 1231 957 530 187 672 821 683 829 610 768 298 460 1058 1624 1901 1931 1968 2156 2525 2734 2936 2514 2435 2416 2723 2856 2799 2724 2807 2327 2568 2716 2315 2499 3000 2844 2889 2809 2680 2775 3180 2421 2884 3077 3269 2746 2378 2478 2415 2816 2685 3245 3412 3718 3369 3488 3467 3062 3214 3854 4084
1021 1125 999 965 573 260 456 721 683 421 340 453 333 831 1367 1623 1769 1828 1939 2182 2360 2740 2754 2556 2480 2355 2632 2611 2570 2707 2898 2757 2837 2542 2379 2077 2110 2278 2569 2930 3143 3131 2850 3214 3501 3367 2862 2552 1762 2590 2373 2448 2419 3053 3120 3307 3693 3609 4293 4282 3593 3407 3558
1091 1144 956 908 589 247 120 645 718 489 293 206 549 1079 1465 1804 1878 1758 1970 2334 2060 2664 2593 2524 2682 2344 2615 2412 2296 2334 2316 2799 3230 2696 2370 1908 1744 2272 2248 2572 2844 2824 2714 2990 3440 3214 2466 2257 2357 2859 3745 2070 2089 2744 3204 3279 3364 3554 3853 4342 4301 4003 3498
1222 1072 963 892 701 308 231 642 741 580 230 491 514 843 1344 1811 2122 2068 2111 2350 2047 2423 2336 2494 2643 2357 2566 2203 2182 2249 2155 2430 2926 2918 2150 1935 1772 1905 1915 1968 1919 2122 2502 2664 2356 2843 2375 2504 2342 2667 2357 2819 3011 2795 2763 3002 3249 3218 3594 4238 3954 3726 4010
1189 1051 1043 823 655 637 560 409 474 386 347 468 1251 1033 1126 1687 2100 2165 2176 2382 2121 2211 2212 2286 2279 2201 2411 2381 2334 2322 2135 2670 2578 2593 2303 2201 2076 1778 2041 1848 1880 2080 2902 2530 2821 2570 2460 2131 2234 2385 2495 2722 2921 2923 2758 2946 3081 3475 3506 4169 3845 3646 3698
1132 1053 1268 1390 1509 1972 731 492 186 282 304 1084 1479 1394 1186 1955 2190 2200 2165 2246 2215 2065 2007 2140 2052 2034 2128 2286 2348 2469 2155 2313 2381 2074 2017 1904 2155 1980 1911 1823 2180 2248 2292 2156 2080 2305 2248 2314 2000 2515 2468 2164 2223 2336 2759 2834 2705 3130 3244 3498 3712 3568 3195
916 1055 1410 1378 1341 1564 2206 749 597 529 400 1067 1035 1203 1418 1762 1941 2017 2113 1972 2206 1987 1804 1848 1796 2067 2046 2041 2022 2183 2198 2218 2054 1749 1413 1900 1894 1947 1740 1768 2078 2029 1939 1788 2034 1986 2424 2378 2366 2497 2379 2339 2002 2188 2437 2806 2985 2913 3436 3506 3679 3946 3254
1001 862 1113 1493 1560 2280 2719 1655 1701 996 1094 1078 917 1291 1604 1476 1535 1804 1888 1840 1797 1783 1738 1609 1489 1585 1772 1822 1860 1873 2064 2108 2104 1794 1548 1926 1887 1838 1741 1863 1928 2078 1772 1672 1936 1927 2151 2312 2364 2328 2339 2343 2244 2730 2478 3234 3041 2665 2688 3235 3452 3403 3230
1000 977 1032 1225 1575 2039 2267 2407 1992 1423 1610 1511 1192 1453 1339 1379 1232 1312 1477 1598 1479 1432 1406 1286 1187 1196 1299 1383 1469 1346 1760 1734 1806 1685 1595 1464 1789 1550 1613 1638 1734 1889 1754 1581 1597 1787 1820 1850 1913 2427 2494 2500 2392 2843 2527 3384 3221 3143 2999 2882 3136 3458 3362
1116 1043 964 1181 1358 1494 1760 2116 1927 1837 1920 1660 1383 1422 1395 1300 1435 1514 1299 1038 1055 1063 911 937 837 1056 1165 1288 1151 995 1242 1328 1542 1590 1476 1241 1214 1538 1509 1473 1446 1750 1724 1355 1220 1635 1680 1817 2153 1949 2366 2558 2091 2764 2738 2638 3048 3152 3159 2747 2888 2915 3007
958 926 950 850 1190 1289 1318 1608 1772 2016 2096 1866 1609 1433 1340 1287 1215 1288 1161 1080 993 716 1174 1286 1400 513 668 888 1291 1007 1059 1107 981 1142 1213 1147 1016 850 781 962 1154 1516 1613 1510 1403 1364 1386 1538 1964 1948 1908 2632 2550 2754 2953 2477 2859 3091 3159 3008 2791 2813 2903
867 825 770 754 1150 1079 1226 1295 1216 1597 1897 2105 2129 1971 1981 2162 2127 1452 1080 1039 1335 1128 1246 1205 1560 1280 513 622 1613 2118 1906 1937 2147 1143 1076 1010 854 523 516 476 482 882 1224 1228 1347 1309 1164 1309 1783 2002 2196 2684 2935 3079 3214 3184 3083 3056 3080 2931 2600 2661 2930
1172 853 741 591 861 985 1136 1074 888 918 1133 1199 1484 1928 2275 2373 2052 1654 1324 1451 1684 1322 1245 939 1411 1266 1490 1520 1226 1521 1232 3098 2744 2293 2647 3198 3155 1403 767 642 366 208 127 972 1101 1164 1024 1232 1535 2296 2140 2547 2792 2717 2856 2989 3080 3123 3474 3256 2821 2710 2616
1117 1083 580 733 750 985 675 1100 1049 815 996 1148 1429 1808 2174 2261 2015 1561 1486 1727 1576 1426 1565 1734 1789 1509 1676 1567 1340 1299 1298 1930 1944 2044 2658 2776 2246 1538 1393 1061 900 934 983 1246 968 689 929 1108 1143 1791 2176 2656 2874 2826 2782 3019 3340 3310 3326 3532 3535 3392 3175
1092 1142 1158 768 993 1302 864 788 871 1021 1127 1255 1542 1951 1805 2166 2091 1888 1828 1826 1801 1746 1838 2084 2009 2117 2260 1933 1712 1527 2646 2909 2670 2392 2144 1927 1757 1689 1458 1037 1017 779 800 864 696 908 789 812 829 806 1778 2137 2694 2631 2515 2481 2646 2750 2830 2935 3389 3165 3060
1114 1138 1069 843 654 716 1241 1065 663 564 958 1185 1809 1898 1622 1846 1786 1830 1930 2006 1886 1697 1932 2160 2177 2330 2300 2155 2385 2960 2944 2431 2087 2045 1956 1682 1573 1671 1459 1109 1125 1025 948 803 786 666 672 711 893 1264 1186 930 2022 2458 2336 2068 1959 1740 2037 2142 2475 2824 3165
1003 894 863 723 694 929 951 902 753 703 776 573 1229 1274 949 946 1084 1064 1030 1329 1432 1793 1817 1803 1902 2078 1880 1783 2080 2223 2220 2235 2062 1881 1817 1820 1924 1867 1583 1318 1125 926 963 1246 1475 1110 1183 956 807 703 851 809 1118 1730 1732 1655 1587 1621 1479 1650 1882 2158 2382
1002 916 810 729 840 926 778 983 877 1020 1029 1034 773 1094 1074 1072 1086 1060 1040 1343 1441 1656 1812 1501 1912 1953 1906 1916 1981 2091 1886 2033 2177 2158 2070 2058 2219 2268 2132 1840 1752 1486 1100 1566 1712 1930 2138 1204 1120 944 736 635 1067 1209 1064 1267 1479 1442 1234 1039 908 1016 1479
748 862 717 617 692 898 992 919 967 983 1036 1322 1285 1323 1354 1381 1366 1265 1240 1187 1239 1452 1592 1768 1759 1696 1672 1567 1494 1480 1585 1812 1960 1918 2032 2045 2078 2129 1985 2020 2107 2121 1896 1773 2153 1994 2081 2094 1698 1385 1102 1134 1028 989 922 1007 1050 975 834 794 664 657 756
464 502 428 378 734 1014 1086 1095 1052 1045 1042 1213 1196 1315 1232 1324 1280 1144 1088 1161 1310 1234 1430 1524 1637 1584 1520 1505 1349 1279 1248 1326 1470 1609 1706 1705 1696 1615 1402 1560 1654 1821 2314 2066 1862 1928 1806 1638 1666 1614 1524 1368 1072 956 805 788 711 626 709 887 1003 1120 1040
539 453 474 178 342 665 684 760 917 979 1066 1073 898 1144 990 1025 1084 1099 1178 1131 1190 1114 1071 1250 1294 1332 1526 1449 1369 1323 1227 1158 1165 1147 918 1274 1630 1528 1745 1641 1525 1480 2162 1944 2037 2061 1943 1789 1716 1675 1579 1472 1306 1069 900 817 790 872 853 868 1162 1235 1339
387 486 382 435 449 376 455 316 535 790 611 681 900 920 920 947 1009 969 1053 1027 902 740 922 896 959 1135 1347 1341 1314 1260 1216 1264 1259 1141 1053 1044 1244 1360 1494 1456 1577 1692 1699 1853 1640 1548 1768 1879 1780 1631 1570 1486 1281 1095 987 888 804 787 743 785 1150 1338 1519
232 289 353 99 309 276 372 506 549 561 585 361 354 469 738 766 776 815 788 715 623 651 804 952 1122 1248 1231 1130 1032 998 987 992 1001 1023 1046 1077 1059 1009 1100 1152 1237 1284 1245 1318 1304 1222 1280 1335 1367 1498 1501 1280 1229 1260 1286 1271 1262 1165 1004 787 958 1139 1646
125 36 63 103 103 23 202 145 218 279 355 312 247 151 536 512 506 557 605 613 660 724 815 804 913 890 846 730 704 747 737 724 731 718 676 660 703 852 966 956 934 1053 1062 1186 1294 1094 928 787 862 944 1035 1032 908 1032 1116 1184 1199 1178 1071 831 833 897 1492
3 0 25 210 38 107 35 165 249 29 128 230 0 183 215 162 280 442 405 530 413 603 552 542 576 593 570 533 590 604 580 539 511 509 488 464 465 556 696 853 971 988 883 937 933 964 904 720 535 590 626 581 589 698 823 868 906 937 907 830 715 1160 1953
47 132 164 148 190 224 222 222 189 250 305 252 229 274 293 315 372 372 446 467 431 454 485 535 575 575 558 522 479 454 429 408 395 387 354 347 380 451 492 537 586 651 709 673 745 843 732 680 707 660 612 577 606 741 818 800 797 793 713 668 694 1096 1501
0 24 106 155 208 260 252 278 314 304 240 176 184 37 111 246 267 274 360 493 566 584 556 531 540 545 528 532 484 406 354 385 367 382 371 336 285 314 394 439 452 484 520 547 542 627 686 767 729 650 610 544 568 621 641 618 679 817 767 731 602 828 1155
120 140 186 164 174 230 224 118 147 96 231 210 206 191 192 204 232 234 245 290 362 381 396 406 419 430 466 474 442 411 365 321 291 301 326 314 285 248 224 232 284 344 354 383 408 430 432 502 472 500 510 536 557 445 401 332 387 448 595 691 716 600 860
0 1 102 144 163 196 182 186 128 28 275 331 258 222 188 170 151 182 215 240 262 271 310 337 330 344 345 312 307 319 318 295 293 286 295 298 288 236 211 209 186 138 11 3 2 85 232 272 249 288 391 507 506 476 387 330 323 300 271 396 570 629 688
0 0 2 0 79 109 127 136 162 51 162 257 221 172 140 107 47 16 75 120 154 189 222 229 238 239 253 242 230 229 269 294 301 295 269 246 220 213 173 189 173 143 132 89 0 0 20 18 59 83 142 259 311 368 367 385 384 317 282 311 338 522 639
0 0 2 4 2 1 0 0 0 0 0 0 0 0 0 0 0 10 0 0 16 110 123 146 166 186 198 238 250 240 235 242 241 239 241 223 177 114 110 0 0 95 123 107 91 46 0 0 0 7 19 36 61 101 148 135 222 239 153 84 224 332 494
0 0 0 0 0 0 1 0 0 0 0 0 0 0 0 0 0 0 0 1 0 0 15 84 100 131 166 160 142 129 136 150 161 162 128 73 11 0 0 0 0 0 90 107 108 86 51 70 45 7 0 0 7 14 29 131 201 242 266 268 168 172 240
0 0 4 39 47 0 0 0 0 0 0 0 0 0 0 0 0 0 0 0 0 0 0 0 0 0 24 63 66 42 29 0 0 0 0 0 0 0 0 0 0 0 0 0 0 77 85 72 18 0 0 1 1 0 4 14 12 76 168 176 156 113 89
39 6 0 5 3 0 0 0 0 0 0 0 0 0 0 0 0 0 0 0 0 0 0 0 0 0 0 0 0 0 1 0 0 0 0 0 0 0 0 0 0 0 0 0 0 0 0 2 42 0 0 0 0 0 0 0 0 0 3 4 108 124 132
164 58 24 24 44 24 4 0 0 0 0 0 0 0 0 0 0 0 0 0 0 0 0 7 8 1 0 0 0 0 0 0 0 0 0 0 0 0 0 0 0 0 0 0 0 0 0 0 0 0 0 0 0 0 0 0 0 0 0 0 0 0 0
279 133 51 90 44 18 13 4 0 0 0 0 2 0 0 0 0 0 0 0 0 0 0 0 0 0 0 0 0 0 0 0 0 0 0 0 0 0 0 0 0 0 0 0 0 0 0 0 0 0 0 0 0 0 0 0 0 0 0 0 0 0 0
463 396 328 156 182 103 130 31 10 0 1 0 0 0 0 0 0 0 0 0 0 0 0 0 0 0 0 0 0 0 0 0 0 0 0 0 0 0 0 0 0 0 0 0 0 0 0 0 0 0 0 0 0 0 0 0 0 0 0 0 0 0 0

ECMWFFLT1_con_mucape_114.txt.gz
CAPE
844 1100 1008 482 73 0 4 106 213 442 577 631 617 854 1248 1486 1532 1526 1572 2007 2028 2037 2109 2151 2220 2347 2303 1944 1821 1662 1565 1697 1994 1801 1887 2147 2276 2337 2158 2126 2173 2257 2022 2172 2121 2218 2160 2111 2138 2301 2375 2308 2757 3054 3057 3375 3248 3652 3485 3613 3484 3868 2635
750 968 1020 615 220 8 2 70 230 396 553 679 649 1024 1295 1546 1587 1665 1691 2052 2105 2091 2220 2237 2274 2369 2309 2064 2056 1874 1736 1853 2127 2519 2013 2295 2508 2423 2497 2330 2194 2006 1944 1880 2034 2150 2233 2062 1978 2012 2295 2366 2538 3008 2773 2849 2652 2876 2932 3255 3040 3357 3634
707 847 982 704 432 106 69 62 131 302 490 654 632 1124 1339 1533 1600 1707 1794 2094 2228 2167 2306 2263 2340 2359 2379 2201 2107 1899 1740 1869 2094 2304 2057 2237 2484 2286 2452 2489 2470 2246 2261 2237 1994 2074 2571 2288 2036 1753 2159 2223 2267 2881 2856 3035 2839 2783 3022 3010 2693 2635 2873
674 727 902 856 537 157 217 191 130 119 160 489 576 1145 1332 1538 1628 1701 1848 2080 2232 2284 2358 2258 2377 2328 2456 2351 2144 1937 1860 1782 1970 2082 2031 2120 2367 2347 2394 2459 2570 2609 2539 2487 2578 2729 2580 2281 2137 1843 2856 2153 2118 2346 2735 2828 3029 3039 3240 3676 3118 2969 2677
667 643 903 952 717 398 134 450 307 210 198 414 546 1232 1352 1552 1636 1678 1868 2032 2127 2371 2375 2256 2284 2326 2524 2381 2206 2100 2172 1892 2048 1980 1833 1841 2062 2135 2241 2187 2405 2453 2603 2399 2239 2910 2751 2228 1881 2162 2406 2049 1970 2100 2628 2592 2784 2949 3004 3508 3472 3560 3405
682 646 894 925 926 659 198 541 477 396 425 312 726 1113 1411 1579 1633 1680 1855 2067 2052 2290 2394 2261 2153 2208 2487 2413 2166 2211 2248 2236 2238 2242 1929 1738 1576 1687 1862 1931 1781 2030 2216 2387 2202 2394 2565 2177 1869 2256 2308 2003 1746 2020 2458 2640 2720 2813 2812 3290 3250 3075 3209
663 702 888 926 905 810 451 546 587 457 381 260 760 1142 1511 1593 1647 1697 1849 2006 2139 2154 2299 2260 2152 2161 2348 2354 2202 2152 2148 2286 2396 2524 2159 1843 1669 1624 1536 1498 1537 1614 1922 2163 2257 2205 2310 2096 1936 2091 2066 2086 2296 2430 2220 2546 2702 2872 2808 3218 3303 3178 3071
698 768 876 978 929 782 604 409 635 560 443 313 602 1090 1365 1582 1650 1719 1858 1963 2087 2118 2214 2225 2241 2136 2256 2228 2140 2066 2009 2095 2324 2488 2383 1936 1752 1515 1436 1506 1537 1547 1616 1954 2183 2155 2191 2065 1900 1867 1979 1956 2105 2348 2330 2233 2292 2712 2878 3114 3320 3200 3131
784 830 875 967 968 814 738 555 582 553 441 393 450 786 1191 1587 1682 1744 1857 1965 1970 2125 2179 2170 2244 2146 2197 2206 2091 2005 1956 1989 2210 2261 2308 2094 1899 1711 1621 1605 1574 1654 1696 1806 2078 2103 2062 1940 1770 1712 2030 2002 1888 1794 2001 2293 2259 2272 2664 2843 2993 3116 3239
870 961 1028 1238 1197 1966 1174 512 372 551 534 656 490 608 998 1534 1802 1758 1867 2004 1942 2056 2160 2189 2180 2188 2173 2247 2162 2062 1942 1858 2040 2064 2030 2017 1882 1817 1800 1722 1600 1712 1802 1919 2029 1867 1894 1870 1966 1857 1963 2092 2081 1996 1917 2085 2333 2413 2478 2745 2861 2872 2954
1144 1076 1115 1202 1356 1342 1376 499 250 431 544 578 612 537 934 1640 1944 1837 1849 2047 1936 1968 2063 2156 2159 2204 2239 2220 2206 2181 2160 2053 1954 1944 1878 1766 1661 1686 1740 1700 1679 1674 1864 2025 1941 1642 1750 1828 1940 2007 1968 2002 2019 2163 2155 2237 2520 2484 2431 2379 2609 2832 2900
1320 1226 1101 1023 1010 938 944 728 510 460 520 533 722 860 1215 1661 1973 1888 1890 1985 1958 1890 2011 2120 2051 2031 2128 2110 2159 2153 2230 2266 1972 2013 1961 1824 1562 1597 1676 1667 1635 1634 1805 1825 1752 1509 1612 1712 1834 1961 1980 2029 2065 2095 2224 2268 2622 2649 2561 2499 2452 2585 2721
1182 1263 1197 1113 889 866 934 795 848 737 687 790 962 1100 1325 1541 1765 1942 1961 2015 2066 1929 1982 2050 2026 1962 1959 2128 2113 1987 2020 2085 1690 1158 1556 1827 1730 1626 1640 1597 1528 1495 1609 1692 1589 1470 1470 1556 1692 1846 1870 2050 2119 2085 2156 2145 2240 2446 2578 2666 2603 2542 2480
1086 1072 1086 1095 922 838 864 910 1020 823 796 1018 1226 1196 1283 1464 1579 1740 1805 1969 2081 2071 1972 1958 1991 1859 1780 2001 2015 1888 1768 1638 1617 1294 1432 1744 1779 1684 1594 1539 1451 1369 1398 1495 1425 1358 1307 1365 1533 1655 1634 1695 1977 2144 2326 2252 2141 2230 2368 2562 2672 2620 2600
1118 1000 977 941 964 1132 1020 1031 1039 952 934 938 1043 1016 1053 1263 1321 1434 1590 1697 1706 1854 1847 1912 1873 1742 1586 1536 1655 1691 1620 1102 1129 1154 2020 2121 1612 1520 1330 1119 1123 1289 1322 1399 1464 1426 1370 1304 1436 1496 1593 1635 1840 2266 2634 2578 2442 2401 2430 2555 2604 2580 2549
1253 1126 993 978 985 978 1058 1123 1134 891 1038 871 800 755 883 1056 1252 1250 1131 1190 1071 1066 1081 1283 1269 1317 1172 1198 1190 1402 1199 1095 1256 1450 1955 1734 1442 1279 1073 919 734 652 825 879 1150 1307 1341 1313 1300 1370 1700 1844 2156 2318 2480 2618 2737 3161 3242 3156 3102 2831 2854
1270 1252 1142 884 875 886 1102 1084 1150 1043 950 944 871 792 764 1078 1064 808 689 688 778 846 954 1080 1147 1184 1140 1090 1220 2066 2170 1868 1486 1519 1786 1720 1593 1213 959 743 718 698 729 659 735 932 1108 1163 1166 1085 1455 1776 1956 2321 2476 2435 2471 2472 2554 2622 2732 2979 3110
951 1193 1172 1100 835 789 847 1014 1062 947 860 765 591 748 932 657 752 830 835 1071 1177 1135 1264 1447 1586 1518 1537 1740 2024 2369 1964 1848 1842 1757 1788 1840 1578 1563 1400 1014 789 851 856 822 807 811 712 835 853 937 1012 1363 1667 2029 2360 2386 2349 2317 2275 2286 2350 2372 2406
1015 954 1133 981 833 845 851 853 875 769 747 706 582 682 1036 1172 874 693 1061 1523 1522 1489 1435 1340 1439 1782 1852 1821 2095 1890 2020 2233 2119 1996 1974 1960 1757 1734 1762 1568 1247 1018 1275 1266 1377 1423 617 527 530 588 669 830 1206 1639 1932 2206 2232 2154 2049 1814 1898 2008 2121
777 723 770 640 706 937 983 912 758 750 587 572 617 684 1221 1279 1170 1079 855 1068 1143 1431 1568 1475 1158 1371 1891 1700 1747 2136 1920 2066 2020 1975 1940 1830 1759 1594 1768 1940 1912 1614 1817 1916 1822 1438 996 679 604 624 605 700 1021 1385 1600 1989 2189 2201 1911 1567 1498 1449 1444
759 539 508 584 762 917 916 982 885 838 766 717 922 878 936 1124 1077 960 1198 1173 1428 1613 1657 1584 1362 1216 1426 1535 1514 1515 1647 1650 1971 2186 2284 2050 1729 1432 1564 1715 1873 1891 1892 1785 1638 1572 1268 1182 912 842 889 1026 731 736 813 978 1020 972 1101 1280 1308 1216 1007
504 459 348 341 431 492 576 729 790 916 848 830 704 509 881 893 886 943 879 891 842 686 756 718 668 1290 1068 1093 1087 1079 1098 1219 1362 1545 1543 1771 1838 1740 1714 1732 1699 1717 1847 1920 1789 1579 1447 1365 1258 1259 1148 959 871 740 769 719 681 731 827 795 694 775 947
330 318 327 266 364 376 524 469 629 804 816 573 601 672 676 688 718 833 826 698 712 663 736 883 1005 929 1057 1147 1180 1096 1032 985 1044 1061 979 1035 1453 1671 1635 1719 1930 1695 1821 1837 1891 1867 1702 1569 1426 1391 1336 1243 1166 1111 1063 1016 1006 950 817 648 707 781 879
328 368 369 329 338 373 476 610 475 580 656 883 888 550 413 502 552 487 691 702 694 700 678 749 867 986 1016 1215 1116 1073 1132 1154 1138 1081 972 940 713 747 840 1298 1776 1809 1804 1719 1596 1687 1791 1727 1714 1584 1492 1435 1344 1340 1230 1182 1049 922 789 789 767 911 992
0 158 146 45 236 307 293 344 355 480 500 425 508 412 300 177 279 375 382 462 607 626 650 575 737 835 856 841 830 908 973 988 966 995 901 1110 1030 1007 1126 1215 1301 1318 1470 1588 1544 1460 1208 1161 1186 1240 1372 1341 1312 1322 1322 1244 1017 824 720 721 736 933 1332
36 0 0 17 62 30 3 1 18 273 176 136 172 157 116 173 188 207 11 302 428 503 528 605 643 654 662 673 660 634 666 517 394 510 686 963 1065 1113 1129 1109 1078 1071 1192 1236 1226 1100 950 881 851 864 877 895 1066 1000 944 994 1217 1223 1171 1121 1096 1007 1690
0 0 0 0 0 0 0 0 15 0 0 0 0 0 100 0 0 0 50 0 104 263 360 470 541 563 564 607 585 537 466 456 464 482 467 476 503 606 685 727 790 889 950 955 1005 972 820 827 855 797 780 640 540 533 592 693 768 900 1025 1066 969 971 1636
0 0 0 0 0 0 0 0 0 0 0 0 0 0 82 129 163 202 274 365 415 370 326 406 467 441 431 395 385 415 446 441 401 378 361 363 367 414 446 478 501 538 640 824 901 865 760 727 755 782 706 626 548 482 451 406 427 480 573 658 677 710 1055
0 0 0 0 0 0 0 0 0 0 0 0 0 0 0 0 0 0 0 58 203 270 312 334 371 318 346 371 297 404 415 371 333 331 327 352 369 367 347 328 400 450 486 534 553 563 599 573 575 636 651 616 601 553 554 501 414 378 397 431 451 569 667
0 0 0 0 0 0 0 0 0 0 64 85 57 0 0 0 0 0 20 3 0 94 164 192 232 254 240 260 263 272 255 299 316 295 295 289 301 337 337 322 293 262 288 323 362 459 501 526 469 411 389 468 536 566 594 583 523 512 477 409 297 348 515
0 0 0 0 0 0 0 0 0 0 0 102 95 30 0 0 0 0 0 0 0 23 97 129 146 173 186 171 184 211 234 225 242 266 292 297 292 297 303 297 280 244 203 175 162 10 66 249 278 298 316 313 319 303 344 340 397 378 350 352 347 336 309
0 0 0 0 0 0 0 0 0 0 0 0 0 0 0 0 0 0 0 0 0 0 0 39 58 60 82 117 135 147 152 170 183 198 225 245 257 252 245 241 231 202 129 98 103 143 132 0 0 0 0 0 0 0 60 152 216 226 239 141 73 62 117
0 0 0 0 0 0 0 0 0 0 0 0 0 0 0 0 0 0 0 0 0 0 0 18 50 61 51 9 11 48 73 80 102 131 150 178 206 232 233 204 175 121 12 0 0 42 98 97 70 0 0 0 0 0 0 0 90 100 152 146 131 100 82
0 0 0 0 0 0 0 0 0 0 0 0 0 0 0 0 0 0 0 0 0 0 0 2 22 26 50 38 0 50 56 74 84 97 110 146 168 176 178 154 103 66 0 0 0 7 37 79 101 92 71 26 17 0 25 5 0 26 98 120 145 171 23
0 0 0 0 0 0 0 0 0 0 0 0 0 0 0 0 0 0 0 0 0 0 0 33 58 0 0 0 0 0 42 32 0 0 0 0 0 3 2 3 2 2 0 0 0 0 0 0 42 78 84 74 71 59 68 70 69 44 0 58 97 85 82
0 0 0 0 0 0 0 0 0 0 0 0 0 0 0 0 0 0 0 0 0 0 0 0 0 0 0 0 0 0 0 0 0 0 0 0 0 0 0 1 0 0 0 0 0 0 0 0 0 0 7 26 0 18 30 32 0 0 0 0 0 0 0
0 0 0 0 0 0 0 0 0 0 0 0 0 0 0 0 0 0 0 0 0 0 0 0 0 0 0 0 0 0 0 0 0 0 0 0 0 0 0 0 0 0 0 0 0 0 0 0 0 0 0 0 0 0 0 0 0 0 0 0 0 0 0
0 0 0 0 0 0 0 0 0 0 0 0 0 0 0 0 0 0 0 0 0 0 0 0 0 0 0 0 0 0 0 0 0 0 0 0 0 0 0 0 0 0 0 0 0 0 0 0 0 0 0 0 0 0 0 0 0 0 0 0 0 0 0

ECMWFFLT1_con_mucape_117.txt.gz
CAPE
413 1022 778 0 0 25 68 212 321 327 336 422 473 565 591 741 940 894 901 1093 1139 1231 1587 1876 1920 1646 1564 1399 1306 1311 1382 1526 1469 1263 1289 1314 1434 1468 1394 1434 1609 1928 1952 1892 1906 1954 2070 2241 2381 2306 2383 2413 2320 2297 2358 2765 2889 3000 2744 3239 2578 3395 2437
315 814 1014 219 0 9 52 176 324 350 359 441 532 599 690 712 943 983 1001 1184 1187 1236 1545 1776 1912 1811 1718 1470 1362 1399 1376 1471 1628 1664 1268 1351 1956 1654 1403 1536 1569 1779 1893 1754 1810 1879 1937 1999 2188 2219 2154 2298 2313 2272 2420 2732 2609 2744 2860 3077 2858 2809 3217
320 642 1010 649 3 0 44 97 298 358 371 445 572 636 798 806 914 1040 1077 1286 1276 1286 1528 1680 1866 1891 1878 1664 1504 1458 1394 1387 1609 1693 1472 1433 1734 1854 1752 1675 1710 1765 1854 1803 1761 1918 2134 2000 2013 2069 2060 2076 2161 2248 2473 2609 2516 2650 2736 2642 2741 2552 2401
344 548 846 897 202 0 30 92 228 356 391 435 577 657 830 944 932 1037 1110 1332 1368 1375 1539 1618 1789 1886 1942 1832 1682 1597 1480 1368 1474 1723 1637 1561 1770 1957 2007 2033 1948 1852 1895 1926 1855 1846 2015 2142 2049 1974 2406 1933 1988 2098 2412 2530 2486 2489 2577 2796 2710 2603 2461
380 540 715 912 629 0 0 52 138 321 398 428 526 642 791 1018 1062 1043 1125 1320 1421 1464 1564 1635 1764 1857 1945 1904 1801 1683 1621 1590 1518 1668 1736 1649 1854 1991 2088 2196 2184 2140 2063 2053 2115 2304 2193 2194 2123 2070 1952 1868 1840 1916 2244 2553 2678 2681 2619 2903 3022 2988 2838
476 541 611 774 768 446 1 34 107 216 381 436 463 599 823 1057 1176 1187 1179 1417 1491 1528 1626 1686 1801 1930 1965 1950 1889 1808 1713 1699 1729 1634 1721 1732 1814 1950 1998 2090 2193 2233 2243 2231 2226 2232 2318 2296 2146 1998 1936 1866 1813 1822 1965 2282 2506 2610 2672 2806 2984 3050 3101
526 566 592 659 711 598 382 19 76 158 320 428 457 661 950 1134 1256 1320 1326 1466 1636 1615 1682 1754 1862 1934 2011 2054 1995 1910 1806 1722 1688 1640 1668 1680 1723 1798 1881 1952 2007 2070 2082 2089 2162 2158 2082 2158 2134 1960 1794 1840 1805 1820 1866 2009 2217 2356 2532 2597 2773 2870 2837
549 581 592 612 690 637 503 325 68 149 181 381 449 727 970 1164 1301 1384 1457 1569 1707 1739 1782 1840 1894 1952 2048 2119 2094 2016 1933 1852 1709 1698 1726 1669 1611 1620 1664 1766 1854 1896 1871 1823 1912 2069 2106 2012 2001 1956 1832 1873 1792 1790 1778 1836 2068 2257 2442 2518 2590 2739 2865
598 576 586 595 688 681 585 436 291 179 186 248 466 821 1044 1189 1311 1392 1524 1628 1740 1818 1905 1926 1929 1961 2068 2160 2133 2065 2016 1974 1874 1865 1941 1773 1612 1511 1468 1482 1535 1562 1601 1590 1605 1858 2054 2059 1963 1904 1844 1897 1877 1815 1848 1812 1914 2118 2417 2497 2583 2680 2809
668 609 595 733 712 774 625 523 397 302 197 195 488 904 1106 1224 1313 1404 1526 1649 1750 1822 1957 2022 1982 1962 2033 2157 2158 2105 2071 2033 1957 1995 2094 2010 1795 1645 1571 1550 1527 1458 1379 1358 1392 1580 1801 1952 1967 1888 1820 1781 1810 1808 1896 2025 2050 2055 2151 2369 2505 2632 2713
747 732 762 663 695 732 640 505 470 408 307 239 563 902 1140 1270 1351 1412 1527 1657 1790 1848 1952 2055 2041 1974 1996 2072 2113 2095 2075 2068 2011 1965 2070 2084 1979 1814 1706 1584 1470 1428 1454 1467 1477 1487 1589 1794 1933 1930 1801 1687 1718 1771 1778 1756 1888 2018 2046 2141 2309 2444 2550
889 789 664 775 739 740 788 763 554 316 256 227 536 777 1008 1162 1354 1490 1578 1700 1845 1949 1926 1997 2041 2025 2004 2018 2029 2029 2025 2034 2008 1905 1975 2024 1989 1880 1740 1664 1588 1512 1504 1556 1553 1508 1581 1733 1926 1873 1753 1611 1610 1720 1812 1839 1849 1893 2022 2120 2198 2343 2474
879 862 803 795 873 816 743 750 719 563 352 286 453 630 790 1117 1350 1443 1501 1634 1774 1765 1658 1780 2006 2032 1992 1997 2022 2005 2003 2008 1972 1890 1892 1921 1895 1778 1690 1657 1643 1580 1553 1601 1610 1596 1646 1829 1921 1764 1702 1704 1675 1643 1781 1880 1920 1985 2059 2100 2142 2234 2341
1044 831 899 947 726 753 788 766 693 590 376 175 337 581 742 898 1238 1376 1634 1649 1628 1612 1260 1357 1802 2058 2111 2074 2098 2055 2078 2103 2066 1984 1946 1923 1826 1752 1718 1651 1576 1563 1566 1574 1620 1644 1690 1822 1854 1666 1624 1699 1760 1781 1776 1833 1914 2035 2171 2215 2246 2213 2186
1129 1061 1061 916 856 801 634 722 723 559 367 345 366 349 431 640 927 1249 1513 1659 1698 1598 1465 1443 1554 1818 2016 2122 2134 2162 2181 2197 2191 2137 2099 2084 1994 1911 1908 1805 1645 1538 1516 1511 1550 1577 1597 1605 1675 1637 1501 1622 1702 1782 1842 1858 1919 1973 2010 2118 2226 2266 2257
1106 1013 974 1079 1095 1090 964 803 640 506 360 343 355 364 422 563 750 1040 1381 1552 1601 1648 1581 1401 1434 1514 1871 2064 2106 2134 2123 2100 1919 1903 2137 2223 2067 1839 1748 1725 1739 1651 1575 1570 1520 1474 1505 1512 1507 1438 1388 1490 1580 1658 1842 2048 2018 2354 2531 2406 2163 2140 2199
1260 1197 1048 972 994 1136 1058 1071 996 686 449 492 364 296 489 716 849 1044 1268 1432 1607 1666 1554 1355 1518 1671 1782 1873 1862 1955 1971 1846 1659 1689 1648 1544 1642 1259 1358 1599 1679 1680 1624 1563 1506 1452 1383 1398 1399 1313 1294 1362 1485 1558 1804 2164 2449 2758 2575 2413 2726 2810 2208
1138 1101 1075 1076 1102 945 648 822 800 802 748 564 359 580 589 592 788 1006 1312 1442 1602 1617 1384 1263 1374 1512 1587 1526 1570 1646 1680 1717 1600 1383 1121 988 1212 1014 1321 1525 1594 1571 1490 1356 1103 1093 1234 1322 1371 1374 1339 1313 1422 1557 1853 2040 2363 2441 2499 2514 2504 2996 2759
863 904 814 801 952 933 829 650 744 976 842 717 482 505 702 827 865 977 1183 1426 1355 1424 1380 1378 1401 1399 1378 1355 1356 1315 1319 1378 1463 1224 818 987 1316 1264 1013 1114 1228 1262 1137 902 742 728 848 1040 1191 1284 1287 1270 1322 1552 1870 1934 1950 2160 2276 2339 2355 2395 2665
562 616 687 692 712 708 617 636 654 697 712 801 695 528 480 602 802 1055 1190 1219 891 922 1159 1044 1252 1272 1152 1088 1266 1177 965 888 876 749 848 899 1082 1280 1214 935 890 817 808 635 1018 888 664 768 921 1033 1116 1152 1194 1506 1800 1875 1906 1986 2092 2181 2200 2216 2185
492 494 595 562 501 482 550 524 498 530 614 804 907 794 761 896 897 925 1027 1163 1291 1052 788 867 1050 1058 1095 1319 1434 1476 1316 1180 969 978 1140 1247 1427 1467 1298 1297 1230 1096 1009 693 550 642 633 628 723 792 914 899 912 1160 1471 1658 1769 1879 1972 2064 2127 2105 2020
446 407 434 457 399 424 526 520 505 502 491 714 933 932 756 783 858 893 897 826 795 858 915 991 1028 935 1122 1391 1484 1547 1659 1631 1627 1699 1748 1725 1793 1780 1759 1735 1590 1403 1238 1178 957 737 460 541 519 924 789 735 710 762 892 1042 1191 1410 1648 1852 1953 2049 2071
348 328 361 361 393 434 451 404 352 339 411 471 632 752 795 890 807 724 746 828 786 972 1101 1154 1151 1147 1317 1409 1452 1441 1490 1534 1604 1631 1490 1492 1527 1668 1762 1808 1719 1610 1492 1435 1454 1396 976 816 671 875 916 709 571 542 643 818 898 1048 1266 1488 1667 1676 1396
516 455 367 317 415 381 360 317 307 384 376 381 304 493 567 560 720 666 739 803 804 916 1064 960 955 1179 1211 1138 1275 1362 1333 1337 1474 1437 1104 964 866 842 884 970 1113 1374 1482 1505 1406 1416 1355 1270 1007 1070 1050 962 865 764 728 652 585 581 586 590 610 608 640
514 482 488 502 334 367 330 250 115 66 48 89 0 319 305 382 559 608 646 722 889 822 764 594 582 498 405 406 328 464 645 924 1226 1133 938 911 878 796 732 712 652 618 757 971 1139 1065 1000 1165 1359 1333 1248 1185 1083 988 961 938 921 880 895 902 914 908 868
394 370 366 327 299 329 272 246 254 175 146 185 112 24 152 174 158 192 306 485 648 793 732 678 684 540 537 606 549 523 586 773 924 991 1032 1085 1008 916 805 684 620 740 825 986 966 949 976 1088 1226 1322 1253 1240 1256 1149 1042 1033 1055 1012 956 951 931 894 920
10 0 271 244 203 137 148 0 0 0 9 13 3 44 86 95 114 30 251 424 522 557 557 615 586 562 563 710 847 836 836 813 824 872 822 844 920 869 849 858 810 655 699 752 899 837 901 1029 973 941 961 1018 1122 1138 1031 841 950 1013 966 947 895 833 819
0 0 197 149 42 0 0 0 0 0 0 0 0 0 2 0 5 28 38 127 262 278 350 304 336 348 402 476 489 562 578 596 570 518 463 488 473 414 413 387 368 455 649 654 680 651 687 1013 994 930 866 838 800 686 612 598 716 770 763 756 786 829 905
97 0 0 0 0 0 0 0 0 0 0 0 0 0 0 15 0 77 158 218 236 212 297 295 250 83 116 230 259 44 21 185 243 219 220 203 209 115 260 275 294 320 345 340 365 508 640 700 731 707 618 609 688 729 648 611 555 518 443 383 385 432 589
0 0 0 0 0 0 0 0 0 0 0 0 0 0 0 0 0 0 0 107 100 204 229 193 191 135 155 124 162 134 88 111 189 170 147 214 233 213 240 264 271 269 319 350 358 409 483 520 560 529 490 480 555 439 395 378 325 310 298 251 265 243 288
0 0 0 0 0 0 0 0 0 0 0 0 0 0 0 0 0 0 0 0 0 0 1 93 110 121 125 0 0 0 70 136 143 38 0 92 27 0 146 160 153 181 210 196 223 276 332 403 464 516 509 484 482 492 458 330 279 303 296 232 224 217 226
0 0 0 0 0 0 0 0 0 0 0 0 0 0 0 0 0 0 0 0 0 0 0 0 0 0 0 0 0 56 65 80 83 85 80 12 50 100 120 135 46 22 105 0 131 144 144 172 253 347 373 352 323 289 292 277 233 194 178 151 152 144 96
0 0 0 0 0 0 0 0 0 0 0 0 0 0 0 0 0 0 0 0 0 0 0 0 0 0 0 0 0 0 0 0 0 0 17 68 90 101 108 114 30 0 0 0 0 52 71 78 77 112 139 170 173 154 152 154 140 0 34 0 0 0 15
0 0 0 0 0 0 0 0 0 0 0 0 0 0 0 0 0 0 0 0 0 0 0 0 0 0 0 0 0 7 12 14 18 36 31 0 0 0 0 0 0 0 0 0 40 6 0 1 0 28 71 98 107 102 88 74 68 0 27 31 56 0 59
0 0 0 0 0 0 0 0 0 0 0 0 0 0 0 0 0 0 0 0 0 0 0 0 0 0 4 2 0 0 0 0 0 0 0 6 21 0 0 0 0 0 0 0 0 0 0 0 0 0 0 41 73 78 79 82 73 66 49 10 0 0 0
0 0 0 0 0 0 0 0 0 0 0 0 0 0 0 0 0 0 0 0 0 0 0 0 0 0 0 2 3 0 3 0 0 0 0 0 0 2 0 1 0 0 0 0 0 0 0 0 0 0 0 0 0 15 31 64 60 26 26 26 22 0 0
0 0 0 0 0 0 0 0 0 0 0 0 0 0 0 0 0 0 0 0 0 0 0 0 0 0 0 0 0 0 0 0 0 0 0 0 0 0 0 0 0 0 0 0 0 0 0 0 0 0 0 0 0 0 0 0 0 0 0 0 0 0 0
0 0 0 0 0 0 0 0 0 0 0 0 0 0 0 0 0 0 0 0 0 0 0 0 0 0 0 0 0 0 0 0 0 0 0 0 0 0 0 0 0 0 0 0 0 0 0 0 0 0 0 0 0 0 0 0 0 0 0 0 0 0 0

ECMWFFLT1_con_mucape_120.txt.gz
CAPE
194 517 0 0 0 10 65 102 125 128 192 192 288 343 367 422 557 610 684 756 802 823 928 1208 1242 1142 1071 1027 988 948 893 924 1073 1052 1094 1067 1068 1142 1351 1539 1648 1697 1834 1996 1936 1768 2086 2198 2298 2297 2451 2409 2411 2320 2260 2442 2796 3230 3031 3076 2368 2899 2589
77 553 288 0 0 6 50 106 140 150 208 247 322 366 391 460 592 605 650 707 764 791 989 1240 1408 1174 1090 1073 1033 992 970 1106 1316 1520 1148 1193 1655 1327 1198 1355 1540 1660 1798 1862 1787 1685 1912 2015 2203 2244 2314 2485 2530 2379 2324 2419 2647 2700 2937 3000 2893 2685 3572
116 442 497 190 0 9 39 91 154 183 228 246 317 378 408 475 625 636 650 677 725 751 1036 1276 1516 1275 1151 1115 1102 1027 1040 1158 1458 1428 1204 1153 1438 1589 1406 1348 1417 1589 1782 1841 1824 1786 2092 1914 2007 2137 2234 2299 2292 2264 2299 2440 2660 2625 2706 2728 3050 3025 2587
366 259 658 444 206 17 40 94 184 231 240 248 301 375 422 468 635 668 669 699 751 780 1036 1271 1516 1440 1314 1224 1142 1114 1084 1136 1428 1496 1358 1184 1329 1661 1708 1613 1630 1630 1769 1776 1825 1866 2176 2184 1931 1934 2648 2123 2152 2120 2203 2467 2575 2552 2536 2636 2618 2601 2538
248 292 610 536 371 187 18 61 158 212 273 282 303 406 440 470 615 701 698 752 787 825 954 1233 1505 1577 1547 1385 1292 1224 1249 1177 1307 1522 1530 1368 1458 1718 1788 1828 1769 1818 1797 1818 1886 2134 2118 2248 2112 1982 1933 2054 2019 2015 2125 2327 2506 2590 2471 2622 2836 2733 2731
214 230 407 748 499 330 116 66 148 245 291 304 321 378 442 486 580 737 758 944 928 893 964 1156 1378 1675 1642 1571 1523 1461 1339 1270 1296 1531 1600 1542 1593 1750 1846 1899 1980 1992 1968 1952 2193 2159 2082 2050 2141 2090 1937 1888 1903 1942 1956 2178 2423 2596 2680 2627 2846 2939 3168
247 259 339 676 573 428 309 44 113 224 288 314 340 429 522 543 594 729 811 939 1101 1023 1023 1178 1315 1551 1656 1687 1635 1679 1462 1398 1345 1412 1619 1614 1634 1787 1863 1964 2212 2106 2170 2210 2200 2219 2200 2242 2214 2035 1959 1907 2045 1936 1924 2037 2317 2449 2704 2669 2817 2788 2807
340 262 291 538 620 550 454 268 91 167 285 328 346 415 532 597 723 766 826 937 1118 1099 1109 1232 1357 1487 1609 1739 1717 1687 1616 1545 1492 1480 1580 1650 1623 1771 1786 1830 2058 2067 2091 2116 2127 2145 2158 2192 2190 2189 2158 2088 2001 1990 1877 1949 2141 2256 2493 2630 2648 2752 2714
432 381 297 475 631 649 608 514 322 159 284 371 391 422 532 641 830 877 875 970 1128 1226 1241 1329 1426 1524 1627 1738 1758 1730 1700 1635 1592 1551 1551 1641 1604 1612 1635 1699 1755 1836 1924 1967 1996 2005 2093 2130 2084 2044 2019 2010 2056 1914 1858 1869 1981 2141 2417 2546 2596 2668 2766
374 396 440 531 662 764 770 711 512 319 240 353 405 426 505 680 856 966 1008 1008 1152 1282 1335 1425 1506 1611 1682 1754 1804 1749 1725 1710 1661 1610 1618 1654 1641 1599 1532 1555 1598 1674 1736 1797 1819 1840 1969 2076 2102 2064 2016 1929 2088 1943 1936 1928 1924 2014 2220 2479 2584 2679 2764
498 517 544 587 670 729 768 776 681 459 250 257 374 419 478 731 910 1035 1107 1144 1208 1328 1410 1523 1608 1675 1718 1810 1862 1793 1790 1768 1746 1721 1745 1774 1712 1635 1522 1479 1463 1488 1520 1546 1598 1624 1629 1936 2054 1982 2021 1969 1944 1973 1906 1990 2030 2038 2035 2231 2483 2624 2707
946 781 696 683 687 718 752 750 748 630 440 232 307 491 738 855 892 991 1048 1099 1179 1498 1574 1614 1690 1643 1702 1841 1895 1853 1851 1843 1844 1841 1847 1912 1885 1814 1701 1617 1525 1480 1544 1532 1527 1504 1428 1577 1795 2003 1885 1905 1926 1926 1910 1851 1962 2100 2157 2138 2272 2426 2554
1220 1112 950 792 748 742 731 750 727 687 581 459 328 520 701 847 855 896 1009 1061 1140 1484 1615 1666 1760 1775 1778 1839 1903 1916 1914 1914 1911 1896 1907 1979 1989 1895 1842 1798 1724 1637 1554 1554 1603 1540 1508 1465 1617 1911 1973 1900 1911 1950 1900 1883 1805 1962 2080 2142 2199 2294 2497
1418 1330 1188 928 769 652 670 670 668 655 613 523 368 251 560 820 882 869 905 979 963 1255 1522 1658 1741 1843 1859 1890 1940 1963 1992 1988 1970 1965 1960 1952 1945 1918 1914 1894 1856 1777 1647 1590 1594 1578 1551 1506 1559 1585 1821 1887 1889 1966 1968 1929 1943 2010 2096 2214 2215 2270 2335
1472 1328 1181 962 750 739 687 653 649 551 564 603 551 446 449 744 931 982 1004 983 904 1096 1419 1594 1672 1799 1899 1918 1925 1937 1948 1955 1948 1939 1942 1937 1901 1839 1826 1818 1798 1723 1605 1551 1559 1511 1576 1555 1604 1623 1632 1723 1840 1904 1968 1926 1972 2056 2152 2305 2379 2345 2298
1354 1358 1290 1205 1115 993 870 771 762 762 729 664 643 603 476 505 788 1037 1024 1070 1073 1140 1321 1502 1646 1678 1831 1926 1934 1945 1926 1903 1875 1846 1842 1815 1766 1732 1774 1842 1832 1728 1696 1691 1656 1619 1538 1498 1551 1588 1598 1616 1635 1712 1836 2001 2085 2260 2476 2369 2526 2456 2385
1334 1274 1173 1079 1051 1041 1029 1035 999 763 698 708 659 545 599 641 689 923 1092 1140 1143 1152 1284 1438 1526 1446 1552 1748 1878 1955 1937 1879 1831 1818 1775 1751 1749 1722 1752 1698 1578 1617 1698 1689 1643 1602 1604 1584 1576 1538 1528 1512 1474 1496 1683 1948 2111 2173 1987 2060 2224 2913 2442
906 1019 1023 1026 956 840 758 719 746 749 784 757 705 436 422 483 541 949 1092 1136 1172 1217 1217 1121 1183 1259 1239 1504 1779 1910 1892 1870 1848 1854 1863 1859 1816 1698 1619 1641 1610 1590 1608 1522 1430 1460 1523 1555 1518 1440 1454 1456 1442 1464 1607 1753 1997 1898 1988 2014 2012 2516 2859
659 624 715 710 734 790 697 598 574 618 707 704 698 729 779 696 498 470 929 1186 1256 1273 1259 1176 1212 1272 1286 1335 1610 1805 1900 1922 1929 1929 1937 1908 1762 1500 1420 1375 1340 1341 1180 1171 1133 1230 1430 1500 1454 1240 1084 1099 1189 1369 1517 1740 1525 1677 1976 2153 2230 2240 3088
524 625 633 579 520 530 589 575 597 614 638 652 626 652 704 716 664 558 323 667 933 1165 1262 1387 1531 1436 1201 1142 1284 1552 1706 1821 1882 1871 1871 1848 1780 1676 1486 1174 968 976 954 823 951 1067 1003 1169 1145 899 774 881 1019 1151 1413 1462 1465 1527 1599 1743 1946 2186 2459
457 448 457 471 530 533 489 487 459 442 490 445 446 442 469 572 653 647 454 334 621 787 1132 1223 1478 1249 1134 1138 1226 1405 1550 1671 1669 1663 1669 1655 1594 1509 1292 979 922 808 770 867 926 966 1006 956 821 736 927 830 834 1019 1012 1145 1303 1390 1458 1553 1704 1943 2152
562 501 426 435 469 393 408 390 408 475 470 425 406 420 376 442 563 736 668 666 694 726 738 909 931 978 1179 930 1225 1331 1504 1536 1448 1341 1280 1204 1009 766 845 949 968 849 844 916 920 870 800 850 715 648 511 501 591 665 797 956 1131 1278 1397 1520 1643 1777 1912
584 571 547 503 478 446 355 353 339 342 365 422 385 402 335 380 397 642 707 682 608 701 684 760 772 967 939 729 916 1121 1185 1162 1063 1008 950 836 676 726 968 1132 1132 1203 1228 1244 1188 1144 1151 1110 942 655 590 449 484 531 603 716 799 964 1116 1269 1397 1535 1671
702 715 679 619 502 412 362 302 268 265 317 344 352 332 322 286 385 641 531 619 588 723 764 744 734 713 807 753 701 880 1091 1220 1353 1281 1064 974 1112 1234 1375 1424 1378 1316 1374 1524 1688 1687 1644 1506 1375 1261 1086 860 662 670 696 682 657 585 707 748 860 1030 1226
522 468 417 397 323 204 141 4 0 146 0 263 309 291 336 373 400 451 501 598 616 654 706 780 696 600 569 659 727 770 869 887 930 1167 1257 1239 1257 1286 1354 1308 1225 1156 1165 1272 1259 1279 1330 1419 1473 1409 1293 1180 1046 896 851 830 767 742 729 675 639 574 726
456 426 430 456 388 314 0 0 0 0 0 0 90 210 5 102 379 435 457 462 469 571 705 697 728 820 826 871 904 865 848 891 850 823 838 903 939 982 968 979 919 842 756 720 685 680 653 667 735 865 982 1028 995 938 955 994 982 933 866 772 794 755 728
398 354 345 312 93 1 0 0 0 0 0 0 0 0 2 11 215 384 369 430 396 498 562 574 597 605 610 625 520 460 432 429 408 470 524 649 840 860 815 860 920 900 901 870 822 818 851 772 786 864 847 862 946 1061 1123 1127 1097 1096 1080 1030 983 948 928
199 85 53 83 44 6 17 73 0 0 0 0 0 0 2 2 2 150 272 349 416 315 315 345 398 426 379 359 390 279 271 268 203 326 227 375 529 583 688 685 662 679 700 676 661 746 767 827 863 879 844 832 926 1024 1018 1006 986 998 1060 1105 1100 1048 1005
155 137 125 110 99 102 108 95 40 0 0 0 0 3 0 0 0 41 228 262 290 130 128 256 361 464 434 396 116 195 197 150 185 165 155 106 234 378 468 458 447 449 468 468 492 572 613 642 656 678 698 724 754 758 784 848 862 793 800 814 770 721 705
129 100 121 120 116 99 10 62 88 69 0 0 0 0 0 70 52 0 0 30 335 263 231 136 204 222 87 16 21 85 169 220 276 207 164 168 153 108 149 170 275 277 298 298 265 307 415 481 537 576 589 631 656 674 629 483 674 690 672 645 634 618 578
137 139 128 107 101 71 88 97 98 94 40 0 40 0 0 0 0 0 0 0 0 13 48 101 86 126 56 38 43 31 47 59 42 7 0 0 0 0 0 0 152 178 171 157 134 164 242 363 301 403 460 447 463 472 486 510 566 549 464 415 358 328 333
42 76 91 64 97 96 16 0 21 59 58 79 0 0 0 0 0 0 0 0 0 0 3 15 9 4 6 0 8 17 8 9 10 0 0 0 0 10 14 106 0 64 111 140 147 150 127 124 185 251 268 293 306 398 417 389 374 373 348 271 243 197 194
0 0 0 0 0 28 40 0 0 0 0 0 0 0 0 0 0 0 0 0 0 0 0 0 0 0 0 0 0 0 1 2 4 0 0 0 0 41 0 0 0 12 82 94 110 121 109 117 151 148 144 178 196 208 223 196 182 190 197 196 185 174 167
0 0 0 0 0 0 0 0 0 0 0 0 0 0 0 0 0 0 0 0 0 0 0 0 0 0 0 0 0 0 0 0 0 0 0 0 0 0 0 0 0 0 34 0 0 48 84 84 120 128 48 0 0 69 107 120 115 112 120 109 101 0 0
0 0 0 0 0 0 0 0 0 0 0 0 0 0 0 0 0 0 0 0 0 0 0 0 0 0 0 0 0 0 0 0 0 0 0 0 0 0 0 0 0 0 0 0 0 0 0 0 0 3 4 4 0 0 0 0 87 3 3 4 3 0 1
0 0 0 0 0 0 0 0 0 0 0 0 0 0 0 0 0 0 0 0 0 0 0 0 0 0 0 0 0 0 0 0 0 0 0 0 0 0 0 0 0 0 0 0 0 0 0 0 0 0 0 0 0 0 0 0 0 0 0 0 0 0 0
0 0 0 0 0 0 0 0 0 0 0 0 0 0 0 0 0 0 0 0 0 0 0 0 0 0 0 0 0 0 0 0 0 0 0 0 0 0 0 0 0 0 0 0 0 0 0 0 0 0 0 0 0 0 0 0 0 0 0 0 0 0 0
0 0 0 0 0 0 0 0 0 0 0 0 0 0 0 0 0 0 0 0 0 0 0 0 0 7 1 0 0 0 0 0 0 0 0 0 0 0 0 0 0 0 0 0 0 0 0 0 0 0 0 0 0 0 0 0 0 0 0 0 0 0 0

ECMWFFLT1_con_mucape_123.txt.gz
CAPE
676 473 84 81 136 194 372 574 707 792 885 941 975 980 1063 1093 1274 1549 1554 1834 1931 2140 2172 2295 2312 2356 2262 2040 2050 2082 1902 1966 1889 1947 2083 2285 2057 2360 2603 2314 2300 2810 2438 2300 2366 2747 3005 3106 3106 3163 3260 3402 3238 3366 3591 3591 3671 3361 3698 4162 3911 3759 3759
654 722 249 100 149 328 490 663 826 913 903 891 931 1007 1034 1113 1381 1492 1622 1888 1960 2052 2097 2208 2434 2440 2358 2260 2050 2188 2078 2025 1973 2122 1988 2514 2771 2767 2388 2508 2534 3017 3231 2650 2772 3041 3156 2941 2948 2979 3175 3238 3184 3539 3395 3376 3424 3513 3245 3925 3666 3793 3708
664 870 548 139 146 348 609 715 793 800 847 845 892 938 1014 1260 1524 1566 1719 1836 1979 1964 1939 2034 2455 2384 2314 2397 2259 2279 2054 2005 2103 2044 1983 1899 2320 2033 2257 2401 2793 2516 2432 2692 3275 2991 2886 2620 3088 3314 3205 2904 2957 3321 3739 3397 3513 3349 3546 4015 3670 3378 3883
765 977 944 315 271 472 641 770 853 823 795 788 914 947 1073 1434 1580 1691 1867 1850 1938 1974 1953 1915 2166 2099 2216 2348 2228 2274 2180 2210 2120 1849 1755 1706 1941 2154 2572 2798 2673 2332 2768 2732 2628 2722 2568 2663 2823 3309 3513 3294 3297 3143 3115 3134 2895 3203 3422 3999 3591 3507 3831
518 519 953 507 180 377 674 814 948 978 863 750 969 1132 1282 1433 1502 1640 1830 1794 1845 1842 1742 1757 1865 1977 2110 2124 1921 1930 2022 2074 2216 2105 2056 1953 2221 2388 2454 2175 2236 2255 2316 2413 2819 3168 3286 3188 2666 2970 3188 3551 3178 3129 3333 3320 2991 3425 3513 3753 3517 3471 3419
674 696 1019 742 266 456 618 757 940 1002 941 858 955 1212 1259 1228 1441 1425 1567 1768 1865 1749 1797 1902 1826 2076 2235 2040 1826 1780 2054 2302 2430 2575 2370 2424 2439 2213 2229 2205 2209 2264 2236 2515 2504 2614 2935 2862 2610 2670 2649 2536 2506 2329 2438 2646 2598 2632 3033 3595 3395 3152 3213
542 697 988 893 343 281 498 775 933 977 1033 956 996 1223 1195 1184 1379 1394 1428 1500 1648 1767 1701 1894 1882 2121 2347 2060 2008 2082 2198 2078 2434 2274 2328 2311 2223 2181 2201 2284 2428 2202 2161 2531 2536 2525 2566 2710 2655 2786 2684 2441 2578 2394 2593 3192 3007 2867 3390 3752 3938 3752 3618
563 632 753 1039 654 357 248 527 747 1089 1201 1072 1042 1234 1296 1294 1386 1517 1513 1479 1463 1516 1666 1760 1769 2010 2212 2229 2180 2022 1991 1786 2118 2240 2382 2260 2251 2358 2238 2362 2481 2572 2612 2504 2555 2582 2396 2563 2420 2621 2714 2627 2615 2750 2597 3063 3604 3010 2958 3394 3667 3523 2876
504 496 448 911 930 473 401 528 697 925 1218 1248 1270 1323 1388 1365 1525 1654 1788 1740 1762 1805 1856 1745 1745 1894 2317 2413 2367 2289 1998 1922 2217 2271 2348 2229 2225 2193 2080 2292 2406 2553 2569 2246 2258 2667 2478 2516 2440 2866 3030 2708 2674 3012 2890 3312 3048 2999 3241 3412 3612 3404 2658
543 575 676 956 1049 694 484 555 907 1094 1181 1325 1417 1496 1446 1614 1860 1772 1997 2092 2134 2186 2208 1984 1889 2182 2546 2631 2394 2208 2177 2374 2302 2146 2196 2158 2224 2186 2142 2114 2313 2583 2434 2229 2126 2278 2695 2701 2596 2862 3225 2974 2940 3117 3148 3130 3094 2978 3152 3494 3462 3254 3340
1131 1045 1049 1054 996 660 537 448 534 903 1192 1423 1388 1406 1353 1703 1845 1848 1892 2024 2000 2199 2412 2404 2249 2424 2546 2745 2695 2465 2276 2344 2320 2252 2260 2199 2152 2232 2191 2182 2170 2388 2350 2160 2024 2104 2232 2684 2796 2900 3182 2686 2762 2989 3095 3024 3078 3263 2974 2956 2949 3208 2855
1305 1351 1419 1377 1190 917 780 749 664 844 1056 1196 1322 1371 1175 970 1467 2009 2005 2158 1956 2211 2612 2634 2617 2673 2660 2576 2461 2792 2614 2512 2417 2336 2372 2314 2269 2266 2186 2096 2097 2175 2266 2138 2104 2236 2094 2186 2411 2500 2952 2898 2820 2865 3005 3124 3228 3290 3211 2750 2719 2901 2819
1188 1031 909 1066 1138 1038 1044 1126 1056 1273 1387 1413 1337 1382 1544 1792 1844 1823 1748 2086 1949 1985 2544 2767 2847 2855 2828 2607 2440 2635 2607 2564 2790 2821 2607 2542 2430 2324 2247 2103 2004 1986 2014 2081 2097 2095 1915 1866 2242 2487 2576 2894 2856 2685 2869 3112 2967 3224 3340 3051 2837 2870 2900
1462 1371 1251 1075 1264 1259 1158 1120 1221 1404 1377 1368 1180 1059 934 1449 1530 1677 1722 1696 1650 1882 2009 2017 2992 2979 2767 2653 2648 2621 2609 2620 2727 2706 2823 2746 2783 2734 2504 2298 2139 2162 2112 2210 2223 2106 1834 1662 1810 2249 2359 2592 2732 2792 2907 3198 3092 3299 3357 3071 2917 2905 2947
1626 1548 1437 1281 1135 981 1014 1089 1102 970 1167 1198 1105 1031 986 1116 1474 1685 1589 1453 1282 1211 1448 2171 1938 2093 2746 2788 2950 3057 3125 3042 2842 2534 2584 2779 2790 2526 2487 2618 2635 2590 2604 2589 2474 2175 2063 2001 1844 2018 2266 2368 2670 2778 2798 2702 2841 2836 2973 3091 3158 3005 2670
1546 1493 1455 1363 1214 1068 1125 1056 908 788 1026 1160 1164 1324 1043 971 933 1177 1511 1581 1322 1072 1382 1594 1688 1625 1169 2334 2918 3176 2972 2904 2816 2682 2588 2307 2415 2645 2684 2546 2460 2364 2463 2516 2523 2496 2441 2406 2405 2315 2327 2472 2720 2828 2757 2577 2568 2769 2531 2648 2869 2590 2004
1390 1354 1318 1274 1316 1244 1222 1106 994 929 941 955 1136 1184 1106 997 929 1040 1361 1736 1601 1358 1498 1180 1214 1328 1369 1163 1336 2439 2696 3053 2898 2524 2412 2420 2688 2979 2716 2435 2251 2221 2321 2399 2462 2513 2636 2530 2462 2346 2283 2280 2451 2682 2596 2190 2164 2458 2045 1738 1736 2549 2212
1170 1228 1278 1212 1258 1146 1088 1098 1119 1103 1019 942 1050 985 976 1028 1102 1116 1064 1222 1315 1327 1700 1510 1336 1358 1090 1131 1436 1917 2239 2294 2211 2254 2287 2287 2438 2588 2740 2450 2140 2200 2280 2179 2224 2529 2201 2205 2305 2440 2294 2257 2252 2306 2320 2205 1985 1727 1462 1134 1122 1870 2360
847 1001 1003 1011 914 974 876 852 837 871 895 920 933 876 959 1105 1148 1089 981 1104 1402 1633 1261 1452 1446 1122 970 1048 1628 1748 1599 1589 1632 1804 1945 2009 2309 2229 2274 2229 2214 2231 2185 2089 2364 2579 2498 2498 2224 2306 2431 2128 2251 2119 2129 2118 1884 1548 1284 1235 1402 1547 1808
803 781 801 768 745 747 756 725 711 730 734 723 807 710 748 893 1037 1153 1228 1342 1394 1217 1052 914 824 824 822 960 1051 1230 1155 1188 1202 1445 1605 1696 1775 2012 2103 2114 2156 2223 2122 1986 2157 2128 2107 2015 2052 2021 2249 2046 2162 2286 2050 2192 1613 1410 1236 1222 1274 1369 1529
815 886 874 731 676 724 613 733 595 615 618 588 629 676 650 827 858 918 1032 798 706 681 791 826 879 883 804 893 1042 1119 999 895 1262 1546 1580 1486 1652 1859 2035 2037 2099 1742 1732 1913 2022 1916 2072 1961 1885 1944 1904 1788 1780 1985 1949 1402 1124 1018 1051 1127 1224 1278 1359
746 750 686 601 573 517 494 478 471 492 521 496 518 574 691 738 779 735 788 824 897 633 592 570 612 701 824 910 966 965 872 834 1080 986 1289 1324 1382 1583 1663 1632 1620 1547 1548 2016 2198 2145 1983 1836 1842 1839 1707 1667 1598 1686 683 668 743 808 897 963 1040 1134 1211
799 756 673 532 450 434 431 453 495 460 486 527 478 488 444 369 440 665 618 608 574 551 585 547 439 438 700 888 947 1054 1004 841 766 932 908 1058 1173 1251 1253 1282 1278 1196 1046 1270 1427 1482 1844 1888 1717 1667 1714 1608 1606 1283 525 452 520 554 615 704 816 932 1066
644 464 425 389 342 298 323 363 417 470 450 430 437 376 399 426 412 360 400 366 382 435 460 585 520 482 394 602 892 885 693 693 840 801 766 924 900 911 884 762 808 625 542 1056 1160 1338 1690 1604 1178 1060 1054 1045 995 838 654 483 402 357 423 476 509 540 923
404 413 324 220 214 193 178 232 228 224 361 446 497 372 360 348 312 274 336 340 362 353 370 468 507 574 557 514 526 438 453 612 627 620 669 590 598 524 527 491 588 768 903 886 1071 980 1009 1385 1375 1489 1496 1463 1406 1340 1255 1153 1019 836 641 506 547 560 783
470 401 274 155 134 126 130 172 234 202 228 255 350 323 368 376 383 350 280 383 248 262 288 266 347 406 423 477 542 570 593 620 658 720 782 726 736 730 597 614 754 895 1021 962 950 961 914 1024 1072 1131 1128 1168 1237 1216 1210 1143 1086 989 876 711 621 625 622
265 298 199 155 150 157 159 166 201 223 223 209 237 235 215 248 336 396 178 216 269 293 252 381 364 262 280 291 382 409 408 457 506 623 590 495 492 584 563 562 705 820 877 929 778 631 549 629 589 572 538 496 534 601 732 848 916 904 844 798 800 794 795
124 75 145 150 168 185 172 168 206 215 203 170 158 144 86 100 153 175 206 289 196 93 217 21 75 34 224 14 152 256 185 395 320 353 289 282 329 405 532 588 671 693 645 623 591 632 658 690 706 721 722 717 713 606 604 628 666 777 848 923 930 900 882
102 102 132 167 162 207 189 140 117 97 103 90 120 110 0 55 62 89 73 132 13 29 30 24 47 129 180 157 124 95 55 53 105 200 125 128 215 267 256 312 444 510 514 542 470 439 527 596 661 671 682 670 676 687 675 655 608 551 524 575 654 612 654
129 80 108 163 164 130 131 151 129 95 80 92 119 146 134 107 0 0 46 35 36 28 10 22 110 73 69 105 66 24 35 44 85 63 25 53 110 129 218 218 188 188 190 184 240 308 360 391 426 435 444 483 545 505 460 453 444 398 466 503 566 625 558
104 124 130 116 106 105 99 109 122 128 109 91 56 4 66 94 0 0 0 6 54 29 24 109 15 4 30 23 6 18 39 42 7 34 75 36 55 13 52 123 138 104 123 156 185 210 223 242 251 274 310 340 368 407 409 351 312 377 483 557 513 451 417
42 46 79 74 79 66 47 0 64 65 65 79 73 56 4 0 0 0 1 8 19 40 30 19 27 42 2 1 3 3 4 0 8 5 0 0 1 4 12 14 29 22 46 45 102 178 220 222 240 269 283 307 312 306 287 254 278 394 418 450 428 387 341
31 17 30 12 49 36 2 17 48 50 0 0 0 0 0 0 0 0 2 3 1 10 34 24 8 4 0 0 0 0 1 0 9 9 2 0 0 0 0 2 6 0 0 3 6 12 11 15 88 90 103 151 121 112 73 169 196 217 217 216 224 217 184
20 10 12 21 15 14 2 0 0 0 0 0 0 0 0 0 0 0 0 0 0 3 6 3 0 0 0 0 0 0 0 0 0 0 0 0 1 0 0 2 0 0 0 0 0 0 0 0 0 0 0 0 0 0 0 0 0 152 150 90 156 165 154
8 25 67 48 68 62 25 1 0 0 0 0 0 0 0 0 0 0 0 0 22 196 103 20 6 3 0 0 0 0 0 0 0 0 0 0 0 0 0 0 0 0 0 0 0 0 0 0 0 0 0 0 0 67 80 79 84 92 92 83 80 88 94
28 26 22 45 46 43 8 1 0 0 0 0 0 0 0 0 0 0 0 0 0 32 64 37 2 0 0 0 0 0 0 0 0 0 0 0 0 0 0 0 0 0 0 0 0 0 0 0 0 0 0 0 0 0 0 23 0 0 0 0 0 0 0
94 83 68 58 10 8 3 1 8 0 0 0 0 0 0 0 0 0 0 0 0 0 6 13 1 0 0 0 0 0 0 0 0 0 0 0 0 0 0 0 0 0 0 0 0 0 0 0 0 0 0 0 0 0 0 0 0 0 0 0 0 0 0
191 151 127 111 96 94 52 58 43 46 17 0 0 0 0 0 0 0 0 0 0 0 8 6 0 0 0 0 0 0 0 0 0 0 0 0 0 0 0 0 0 0 0 0 0 0 0 0 0 0 0 0 0 0 0 0 0 0 0 0 0 0 0

ECMWFFLT1_con_mucape_126.txt.gz
CAPE
819 1141 1094 564 367 320 307 488 986 1197 1296 1756 1953 1505 1255 1048 1419 1692 1814 2346 2287 2425 2294 2496 2175 2088 1910 1808 1931 2087 1977 1843 1788 1952 1994 1953 1633 1776 1884 1959 1936 2110 1832 1579 1418 1638 2241 2484 2386 2703 3011 3446 3515 3746 3892 3862 3792 3419 3818 4576 4135 3612 3940
571 1020 1144 653 357 412 473 749 1353 1520 1582 1920 1967 1738 1272 1083 1474 1760 1951 2282 2368 2293 2350 2325 2441 2329 2251 2140 1951 2152 2209 2061 1879 1880 1844 2043 2153 2124 2096 2369 2215 2169 2460 2123 1802 1765 1934 2299 2360 2169 2384 3285 3214 3611 3700 3850 3668 3611 3260 4170 3716 4002 3956
914 988 858 768 488 522 682 955 1511 1544 1543 1633 1677 1531 1316 1386 1707 2040 2201 2246 2247 2140 2312 2132 2421 2302 2314 2369 2157 2284 2260 2027 1856 1818 1888 1868 2174 1987 2009 2109 2256 2223 2277 2286 2100 1990 1914 2072 2148 2066 2038 2375 2847 3311 3953 3688 3783 3538 3409 4192 3653 3331 4010
1207 1004 927 859 712 731 892 1262 1602 1544 1463 1383 1507 1398 1521 1799 1948 2276 2498 2485 2332 1988 2164 2024 2107 1976 2151 2308 2268 2358 2344 2056 1737 1553 1497 1592 1836 1856 2067 2159 2172 2333 2259 2259 2262 2111 2229 2313 2511 2386 2392 2652 3154 3197 3332 3381 3232 3379 3382 4322 3524 3198 4360
1542 1173 915 726 740 842 1048 1415 1684 1653 1496 1127 1401 1628 1887 2152 2298 2449 2637 2458 2352 1939 1765 1800 1741 1783 1906 2059 2116 2001 2157 1986 1827 1657 1582 1535 1806 2017 2049 2140 2196 2102 2250 2270 2460 2715 2692 2895 2618 2660 2804 2883 2831 3071 3031 3333 2887 3174 3413 3937 3461 3230 3447
1734 1340 952 670 614 850 1166 1443 1668 1704 1574 1249 1326 1783 1808 1881 2321 2247 2426 2484 2481 1999 1759 1804 1515 1676 1830 1859 1837 1583 1818 1994 2032 1970 1651 1652 1945 1947 2044 2192 2164 2201 2028 2129 2184 2354 2888 2860 2785 2649 2641 2737 2353 2322 2439 2624 2439 2517 2892 3027 3058 2995 2672
1865 1790 1313 626 710 1000 1150 1382 1544 1625 1594 1253 1228 1788 1834 1621 2151 2218 2048 2126 2137 2101 1678 1782 1563 1490 1829 1854 1906 1843 1737 1761 1916 1795 1639 1605 1750 2105 2120 2154 2254 2143 2089 2226 2197 2332 2556 2686 2684 2782 2796 2642 2566 2264 2192 2589 2718 2544 2814 3135 3667 3402 3259
1391 1385 1294 731 465 612 844 1163 1365 1513 1538 1304 1167 1744 2029 1778 1972 2405 1917 1819 1792 1768 1686 1599 1610 1578 1708 1912 1877 1843 1823 1681 1643 1691 1559 1454 1591 2116 2081 2084 2215 2318 2293 2200 2331 2425 2384 2594 2558 2551 2607 2586 2430 2558 2440 2737 3137 2854 2526 2824 3074 3289 2818
1116 1116 1167 1164 774 686 1007 1402 1412 1454 1647 1582 1263 1783 2164 2012 2181 2421 2402 2234 2230 2254 2130 1747 1601 1541 1763 2009 2062 2050 1904 1811 1632 1696 1484 1280 1393 1800 1898 1977 2158 2270 2316 2122 2165 2430 2213 2355 2356 2437 2642 2427 2512 2820 2767 2850 2768 2820 2633 2593 2953 3154 2789
1318 1082 1280 1703 1200 794 959 1156 1449 1731 1926 1893 1845 2108 2269 2249 2348 2438 2668 2540 2607 2711 2765 2377 1767 1770 1897 2331 2298 1921 1797 1875 1740 1409 1330 1158 1287 1568 1871 1764 1983 2236 2186 2061 1938 2036 2310 2129 2370 2555 2873 2801 2641 2653 2644 2519 2557 2375 2501 2788 3110 3024 3068
1272 1476 1477 1786 1468 1361 1293 1347 1398 1699 2081 2166 2123 2180 2315 2355 2466 2567 2535 2629 2529 2706 2858 3089 2648 2265 2151 2520 2760 2308 2030 1760 1686 1375 1294 1132 1120 1308 1705 1712 1764 2016 2132 1973 1840 1870 2164 2414 2470 2646 3223 2850 2627 2622 2651 2541 2596 2645 2462 2570 2718 2801 2820
1569 1568 2082 2252 2399 2211 1529 1220 1508 2014 2321 2387 2303 2282 2345 2564 2554 2683 2690 2775 2684 2584 2823 3046 2889 3043 2917 2947 2743 2751 2179 1762 1817 1626 1387 1182 1040 1212 1492 1572 1619 1769 2013 1988 1954 1969 2023 2297 2505 2471 3065 3046 2640 2550 2831 2868 3018 2880 2970 2640 2534 2449 2571
1323 1337 1489 1635 1899 2061 1747 1496 1360 1453 1752 1958 2277 2500 2763 2898 2871 2903 2897 2932 2850 2642 2723 3074 3073 3085 3080 3441 3283 2814 2790 2308 2345 2317 1893 1603 1359 1244 1554 1547 1481 1520 1732 1904 1918 2052 1979 1919 2312 2441 2471 2840 2479 2413 2766 3133 3001 3069 3198 3070 2792 2598 2562
1250 1279 1371 1383 1293 1497 1621 1623 1220 1582 2125 2314 2636 2611 2393 2412 2579 2879 3009 3000 2860 2676 2676 3039 3356 3200 3215 2989 2779 2545 2308 2434 2387 2854 2572 2342 2030 1781 1656 1708 1534 1613 1593 1840 1922 1891 1861 1779 1797 2018 2223 2312 2420 2471 2666 3125 3221 3361 3508 3296 2973 2663 2568
1480 1536 1532 1502 1578 1173 1157 1211 1335 1379 1480 1702 2016 2177 2428 2353 2212 2400 2938 3055 3021 3167 3093 3075 3290 3196 2815 3028 3327 3210 2411 1830 1971 2071 3055 2916 2555 2474 2164 2103 1929 1718 1772 1870 1970 1792 1717 1711 1638 1806 1964 2052 2258 2467 2449 2499 2742 2742 3036 3246 2865 2886 2687
1497 1463 1568 1542 1520 1572 1603 1552 1447 1261 1293 1295 1447 1460 1500 1759 2089 2620 2766 2563 2997 2876 2783 3106 2986 3054 3331 3548 3600 3536 2469 1715 1696 1610 2182 2208 2314 2185 2875 2628 2439 2159 2249 2212 1978 1798 1750 1858 1841 1766 1915 2004 2230 2483 2524 2392 2370 2626 2586 2535 3174 2939 2565
1378 1476 1372 1177 1171 1324 1408 1288 1294 1233 1264 1508 1475 1593 1684 1831 1911 2206 2404 2333 2315 2202 2193 2456 2868 3115 3261 3338 3291 3088 2258 1635 1788 1687 1668 1847 1950 2399 2442 2741 2745 2816 2880 2485 2299 2076 2008 1927 2049 1974 2036 2120 2203 2444 2517 2302 2198 2787 2240 2176 2361 3370 3516
1068 1162 1294 1342 1316 1186 1092 989 1209 1334 1134 1043 1221 1189 1307 1493 1663 1910 2031 2039 2131 2310 2337 2396 2433 2664 2682 2743 2902 2746 2295 2023 1735 1453 1542 1669 1833 1694 1886 2336 3327 3278 3272 2667 2374 2805 2557 2502 2105 2570 2338 2165 2215 2144 2328 2439 2390 2066 2232 2168 1950 2353 2600
988 1174 1202 1194 1324 1290 1281 1261 1167 1044 1028 1157 1152 1155 996 1189 1314 1400 1457 1598 1714 1723 1883 1944 1883 2100 2406 2537 2495 2105 2120 2250 2220 1768 1612 1461 1701 1829 1741 2078 3012 3953 3740 3129 2720 3159 3351 2943 2680 2100 3017 2368 2442 2162 2036 1931 1377 1522 1894 1863 1687 1331 2148
879 932 1015 974 1090 1069 1016 1111 1128 1130 1086 1084 1004 927 891 858 926 1176 1262 1260 1320 1359 1386 1445 1809 2417 2480 2265 1738 1938 2037 2480 1956 1802 1578 1520 1424 1280 1276 1608 1938 2796 3617 3454 3261 3493 3654 3196 2993 2912 2458 2591 2137 2752 2566 2334 1337 1686 1666 1480 1279 1105 1213
740 732 736 758 786 766 822 824 834 802 773 786 794 847 860 824 822 1079 1142 1223 956 1192 1746 1656 1585 2580 2525 2053 1658 1875 1697 1653 1474 1420 1331 1177 1107 993 1128 1470 1570 1852 2259 2660 3170 3596 3668 3260 2975 2827 2869 2189 2150 1979 2501 1604 1681 1874 1654 1391 1244 1066 1101
638 622 666 707 659 649 603 626 629 675 691 698 683 658 624 639 734 930 1143 1148 1120 1096 1436 1795 1998 2218 2209 1694 1406 1241 1536 1359 1251 1163 1044 989 1025 1121 1205 1316 1451 1602 1513 1610 1684 1642 1752 2050 2819 2325 2663 2760 2221 2128 1229 1202 1623 1572 1337 1075 943 941 959
527 500 483 441 450 477 472 482 493 493 514 516 552 498 480 472 776 994 970 1042 1148 1115 1405 1588 1276 1242 934 1227 1070 1151 1259 1169 1214 821 790 795 964 1134 1206 1119 1232 1414 1033 912 1035 994 1294 1490 1544 1343 1758 1908 1962 2275 1655 1370 937 618 562 678 577 792 1441
394 424 389 366 416 287 274 288 304 309 303 377 392 357 390 404 404 393 475 601 718 889 886 1424 1494 1457 1445 1217 966 761 603 602 635 668 717 751 749 879 882 868 972 997 766 859 1044 1299 1098 1004 928 978 919 955 918 950 758 693 452 576 494 407 375 338 1049
371 334 269 345 384 355 340 242 267 262 259 276 372 313 294 305 294 331 389 392 474 438 506 538 635 653 644 1026 808 483 369 334 462 611 676 763 675 713 701 688 776 674 653 798 995 1021 958 728 791 719 672 688 669 579 544 450 380 514 676 663 660 596 1168
217 173 195 181 189 167 170 186 236 232 237 249 284 299 258 282 309 310 376 316 359 329 363 398 334 291 287 316 300 281 278 322 369 408 335 368 472 523 523 519 639 675 652 846 812 694 730 729 680 584 714 774 825 770 816 931 964 1006 1096 1130 1040 941 807
100 134 152 188 219 201 207 210 219 239 236 239 231 217 192 224 317 399 296 213 213 263 293 253 249 271 277 271 263 247 190 111 227 256 309 307 357 434 499 470 470 488 475 480 488 493 593 557 603 574 547 567 576 521 657 656 505 498 607 710 744 770 778
53 112 157 187 217 217 187 164 152 140 176 183 172 174 153 144 136 160 215 165 174 247 220 144 242 263 282 223 225 233 203 16 21 272 342 384 405 398 406 429 438 475 481 491 399 504 473 412 478 428 410 477 494 484 490 471 425 440 457 443 434 479 547
47 128 131 151 190 243 214 165 120 102 116 138 128 116 100 29 0 0 0 0 8 0 6 51 0 55 62 52 153 184 168 124 186 212 249 254 250 241 285 390 398 406 423 418 464 427 439 383 396 352 370 419 437 448 481 522 476 497 522 523 479 442 407
28 0 125 25 42 174 187 193 155 118 94 92 76 3 4 13 0 0 0 1 6 2 0 0 0 0 0 0 0 0 4 12 5 26 16 35 63 121 176 257 271 276 357 384 350 287 284 284 304 312 366 382 392 382 371 361 388 371 366 361 354 320 303
107 103 129 131 117 36 93 143 168 166 136 108 88 0 3 10 41 44 13 12 28 35 25 13 1 0 0 0 0 0 0 8 1 1 0 0 32 47 54 56 74 110 147 176 248 258 276 286 267 170 201 225 219 222 231 232 250 273 285 311 288 308 372
109 110 66 68 0 0 0 0 6 82 11 42 43 0 0 0 2 27 38 60 40 46 43 37 25 12 6 7 10 5 0 0 0 0 0 0 5 18 41 66 62 45 83 104 132 124 83 103 106 113 120 131 135 143 150 158 181 214 245 262 253 287 312
12 2 8 10 0 0 0 0 63 66 0 0 0 0 0 0 0 0 18 52 35 55 63 56 28 18 10 1 0 0 0 0 0 0 0 4 5 7 17 20 27 43 39 20 30 40 28 38 50 50 50 54 74 69 72 109 106 84 125 182 198 184 186
42 9 31 9 0 0 0 0 0 0 0 0 0 0 0 0 0 0 2 0 4 26 33 25 19 5 1 0 0 0 0 0 0 0 0 0 0 0 0 0 0 4 3 2 3 13 1 0 5 2 3 12 14 18 5 22 8 33 16 0 123 174 166
42 14 21 55 43 16 15 15 27 30 8 0 0 0 0 0 0 0 4 9 31 73 74 55 14 0 0 0 0 0 0 0 0 0 0 0 0 0 0 0 0 0 0 0 0 0 0 0 0 0 0 0 0 0 0 0 0 0 2 31 110 154 104
21 105 148 142 146 102 40 57 113 126 79 34 8 0 0 0 0 0 0 0 11 94 151 73 7 0 0 0 0 0 0 0 0 0 0 0 0 0 0 0 0 0 0 0 0 0 0 0 0 0 0 0 0 0 0 0 0 0 0 31 54 59 62
193 243 0 0 266 311 271 189 186 231 194 139 64 14 4 0 0 0 0 0 0 5 72 40 2 0 0 0 0 0 0 0 0 0 0 0 0 0 0 0 0 0 0 0 1 0 0 0 0 0 0 0 0 0 0 0 0 0 0 0 0 0 0
506 416 289 248 214 262 301 351 358 343 303 238 186 102 66 31 23 3 0 0 0 0 7 0 0 0 0 0 0 0 0 0 0 0 0 0 0 0 0 0 0 0 0 0 0 0 0 0 0 0 0 0 0 0 0 0 0 0 0 0 0 0 0

ECMWFFLT1_con_mucape_129.txt.gz
CAPE
678 605 310 279 113 64 65 144 357 524 621 907 884 833 1093 1176 1344 1437 1753 1867 1991 2188 2234 2241 2192 1994 1795 1733 1732 1727 1617 1516 1361 1485 1623 1676 1448 1326 1387 1351 1330 1397 1284 1278 1393 1250 1564 1637 2096 1907 2246 2888 3102 3591 3964 3865 3390 2846 2924 4165 3561 2862 3689
380 578 535 271 145 65 86 196 348 504 743 1001 935 943 1027 1147 1501 1572 1844 2106 2220 2212 2241 2098 2301 2157 1952 1882 1754 1738 1751 1599 1424 1300 1512 1818 1734 1589 1449 1392 1523 1402 1552 1558 1339 1093 1374 1446 1778 2021 2540 3269 3049 3603 4164 3371 3146 3516 3194 3976 3395 3644 3654
165 199 421 617 189 87 79 146 230 492 833 977 1052 962 971 1272 1249 1701 1844 2139 2332 2344 2130 2028 2380 2061 1956 1944 1865 1934 2042 1698 1478 1243 1452 1624 1786 1586 1471 1771 1621 1456 1561 1521 1773 1532 1218 1628 1838 1775 1944 2113 2271 2561 3123 3316 3471 3196 2750 3706 4058 3563 3834
428 530 1041 1254 768 302 212 121 240 513 889 858 918 971 1049 1128 975 1406 1912 2091 2414 1913 2024 1717 2028 1721 1886 1883 1823 1740 2034 1966 1686 1321 1400 1707 1686 1607 1760 1933 2065 2008 2038 1480 1625 1470 1535 1270 1607 1841 1861 1647 1826 2540 3009 2867 3074 2967 2830 3435 3325 2536 3627
769 685 588 633 881 387 276 285 222 817 945 781 920 905 912 883 974 1381 1822 1970 2199 2001 1768 1542 1550 1480 1630 1797 1730 1658 1786 1795 1705 1354 1350 1565 1702 1844 1775 1818 1751 1828 1858 1990 2033 1800 1546 1691 1515 1772 1823 1960 1848 2058 2916 3380 2872 3213 3352 3791 3553 2684 2757
1407 484 201 851 1219 772 512 361 450 833 998 759 745 1000 950 992 1080 1201 1576 1924 2220 2038 1702 1552 1248 1314 1394 1442 1426 1337 1558 1615 1635 1544 1336 1359 1767 1746 1856 1827 1772 1842 1696 1959 1969 1947 1902 1905 2151 2142 2007 2093 1686 1478 1851 2363 2394 2249 2515 2895 3073 2426 1982
936 1374 910 1276 1294 958 606 625 679 947 900 401 747 742 506 897 819 999 1369 1603 1898 1711 1088 1460 1320 1299 1395 1278 1258 1186 1271 1459 1552 1477 1260 1298 1536 1586 1710 1816 1828 1839 1791 1837 1922 1957 2165 2147 2088 1977 2256 2209 2144 1320 1591 2096 2137 1828 2185 2614 2736 2470 2417
1368 1579 1530 727 486 801 589 732 1668 1236 1289 601 419 992 932 734 1189 1270 1414 1477 1550 1384 1495 1442 1337 1443 1373 1122 1102 1139 1141 1214 1232 1409 1313 1176 1139 1427 1506 1652 1902 1980 2003 1893 1928 1916 1948 2461 2244 1995 2103 2384 2282 2238 1760 2244 2192 2076 1981 2609 2998 2930 2276
1270 1207 1400 1128 1236 956 752 1127 1610 1528 1055 1020 1360 1344 1101 990 1201 1416 1725 1626 1762 1876 1503 1407 1416 1113 1656 1664 1344 1365 1108 1251 1276 1336 1202 1095 908 832 1254 1498 1748 1936 2054 1941 1951 2053 1978 2094 2260 2216 2309 2309 2215 2299 2310 2517 2579 2440 2146 1989 2219 2691 2348
1406 1390 909 1001 1438 892 1032 1506 1786 1770 2407 1602 1065 1650 1395 1618 1824 1806 1811 1952 1754 1731 1673 1264 1267 1244 1396 1733 1780 1581 1615 1564 1406 1235 1096 1023 848 572 1149 1180 1412 1806 1920 1890 1740 1780 2012 2030 2151 2101 2531 2654 2327 2364 2455 2490 2522 2664 2403 1931 1984 2134 2639
938 1196 1418 1323 1506 885 1470 1832 1415 2096 2181 2198 1706 1885 2273 2139 1873 1968 2252 2114 2022 2154 2012 1935 1562 1553 1482 1878 2050 1927 1106 1184 1504 1258 1199 1254 785 881 943 1032 1274 1563 1677 1716 1685 1615 1588 1848 2071 1877 2335 2408 2590 2610 2700 2794 2613 2558 1970 1877 1847 1948 2192
815 800 896 1711 929 404 690 1334 2035 2051 2239 2192 2004 1892 2628 2781 2530 2243 2524 2682 2435 2398 2730 2737 2302 2169 2382 2120 1958 2674 2130 1446 1333 1173 902 889 785 954 815 925 1286 1322 1462 1751 1868 1799 1492 1452 1653 1779 2072 2394 2476 2551 2658 2752 2614 2498 2609 2124 1945 1981 2265
576 735 820 758 1347 959 935 1676 1878 2084 2488 2591 2354 2284 2621 2564 2306 2105 2786 2927 2425 2208 2774 3291 3339 3078 2692 2497 2309 2563 2812 2312 1926 3024 1867 1293 1502 1331 754 1026 1142 892 972 1488 1735 1734 1563 1335 1371 1439 1846 2165 2479 2484 2502 2578 2642 2721 2794 2716 2319 2057 2143
739 646 733 736 647 623 1330 1830 2138 2060 2502 2826 2836 2998 2843 2943 3070 2975 3017 3018 2998 2767 3118 3404 3364 3406 3079 2647 2331 2708 3324 2814 2659 3324 2578 2608 2193 1599 1139 1677 1323 902 1168 1377 1490 1603 1616 1570 1349 1515 1868 2040 2297 2578 2414 2402 2527 2989 3267 2856 2781 2424 2178
848 754 979 1301 1338 1461 1651 1746 1785 1794 2334 2516 2377 2590 2546 2926 3155 3347 3464 3303 3313 3231 3385 3636 3645 3563 3417 3177 2825 2792 3551 3859 3994 3792 3512 2848 2651 2527 2118 1866 1196 709 679 1257 998 1460 1575 1645 1544 1483 1449 1725 2100 2265 2216 1946 1978 2239 2603 3450 2958 2789 2332
858 728 774 1001 1167 1067 1322 1324 1651 1702 1819 1923 2033 2370 2513 2723 2854 2970 3304 3580 3738 3633 3601 3584 3665 3858 3705 3327 3116 3134 3552 3999 4048 4186 3908 3354 3228 3114 3086 2632 2339 1486 1574 981 1599 1233 1772 1197 1369 1220 1276 1326 1905 1889 1967 1829 1697 1925 1646 2015 2550 2970 2379
676 974 1081 944 1024 1076 1647 1557 1348 1217 1495 1422 1434 1530 1695 1743 2033 2271 2613 2670 2810 3274 3896 3836 3870 3889 3803 3471 3149 2959 3459 4186 3895 3746 3513 3328 2970 2712 2785 2709 2133 1885 1225 1104 968 1261 1817 1936 1985 1571 1305 941 1321 1650 1692 1741 1665 1193 1334 1420 1620 2577 2684
196 397 871 925 969 978 1238 1311 1472 1564 1474 1790 1703 1275 1559 1838 1953 2096 2102 2213 2318 2350 2342 2334 2453 2399 2359 2300 2344 2476 3398 3998 3514 3497 3404 2904 2787 2742 2569 2253 2240 2123 1687 1509 1170 1093 1183 1292 1299 1855 1459 1199 1262 1189 935 1033 1033 1087 1119 1180 1495 2205 2684
309 413 354 644 760 928 928 1037 1125 1166 1182 1322 1416 1492 1548 1560 1505 1641 1715 1881 2135 2130 2082 2234 2348 2392 2364 2440 2532 2399 2645 3331 3462 3280 2959 2859 2901 2604 2308 2073 1861 1896 1848 1266 1032 1357 1260 971 904 1202 1475 2054 2001 874 1039 1092 960 1000 1235 1091 1339 1799 2696
368 374 563 666 509 795 971 857 907 1091 1098 1114 1069 1031 1395 1415 1443 1255 1480 1581 1625 1650 1900 1861 1843 1838 2068 2140 1858 1925 3210 3322 3047 2941 2714 2528 2678 2611 2059 1803 1671 1494 1296 1148 1260 1181 1087 1128 1287 1506 1180 1474 1421 1032 1023 843 846 835 926 1124 1378 1617 1785
462 447 597 671 630 525 893 1082 1028 969 1004 994 982 986 963 1236 1347 1406 1404 1495 1606 1624 1694 1778 1893 1947 2197 2210 2085 1642 2255 3658 2739 2841 2444 2411 2826 2388 1869 1892 1671 1330 1301 1363 1351 985 884 880 1097 1263 1382 1353 1209 1493 1087 994 1073 1331 1236 1180 1446 1665 1499
421 350 496 530 580 664 756 965 1011 1023 1073 1047 1017 997 1009 1017 1062 1335 1587 1762 1729 1748 1718 2016 2052 1873 1992 2558 1842 1688 1250 1940 1847 1601 2140 2336 2125 1844 1932 1716 1304 1226 1272 1171 1110 1029 840 1177 1527 1488 1336 1608 1562 1151 1108 1092 844 1066 1266 1289 1509 1555 1394
314 314 335 451 471 484 489 552 676 706 706 747 736 798 841 1104 1416 1446 1588 1663 1606 1638 1598 1790 2150 2431 2492 2433 2512 2435 1441 1846 1327 1282 1612 2592 2383 2249 1906 1381 1196 873 942 1353 1381 1525 1728 2179 1500 1304 1206 1238 1499 1378 942 798 631 603 702 1232 1582 1646 1425
334 305 353 359 364 336 333 306 346 413 437 477 481 487 479 654 780 910 992 896 884 951 1026 1090 1200 1233 1136 1176 1101 2107 1976 1857 1984 2076 1389 1155 1074 1814 1758 1461 1345 1013 1013 1320 1380 1595 1658 1629 1157 1150 1206 1632 1446 1093 940 937 796 647 575 791 1015 950 571
282 427 375 346 360 354 436 326 426 421 282 372 343 349 351 397 460 600 686 663 704 823 912 935 994 970 805 757 730 786 1041 1104 930 776 651 819 1461 1846 1592 1328 1594 1291 1372 1187 1112 1119 1162 1235 1087 1137 1132 1036 956 876 773 630 564 550 537 476 388 284 285
222 134 153 137 270 297 290 215 226 239 245 274 331 338 322 318 460 511 537 522 499 504 659 751 804 735 693 622 611 544 523 506 450 413 611 495 658 650 597 788 791 704 838 986 906 757 876 738 854 910 890 824 784 692 626 565 492 429 382 404 439 504 601
186 49 118 117 293 239 210 184 211 234 242 256 260 275 253 260 276 412 351 416 441 438 462 482 447 405 359 310 269 3 334 365 325 283 330 345 346 312 183 102 418 434 303 496 613 642 662 599 632 614 642 649 603 556 534 499 479 468 596 708 658 492 406
86 19 5 103 192 161 183 177 145 192 202 204 202 194 183 181 169 164 269 314 303 299 274 183 158 142 164 194 173 151 156 129 201 188 185 188 172 131 204 420 470 332 292 357 455 424 366 332 518 542 480 498 482 452 467 470 458 450 392 305 262 257 239
14 1 45 140 170 186 114 149 153 149 178 192 168 145 139 157 167 167 166 189 213 216 177 150 113 35 0 0 0 1 56 72 148 78 146 22 88 65 188 223 306 332 291 346 413 415 386 434 473 494 486 493 474 416 376 374 368 351 366 378 361 338 357
1 11 4 6 32 151 169 167 169 155 142 123 110 97 93 80 117 130 120 94 96 119 153 118 0 0 0 0 0 0 0 0 0 7 11 10 5 31 196 209 95 221 220 273 279 273 306 332 348 409 389 334 334 344 371 377 363 347 323 272 241 248 246
2 0 36 0 0 37 89 53 112 128 130 119 114 117 77 68 62 38 8 1 25 97 25 24 0 0 0 0 0 0 0 0 0 0 2 6 6 6 7 45 106 103 110 120 144 221 261 310 306 337 318 340 329 331 320 284 228 166 185 197 166 178 191
35 29 0 0 0 0 0 0 0 0 0 0 1 63 75 48 75 122 84 64 55 12 0 0 0 0 0 0 0 0 0 0 0 0 0 0 0 0 4 5 20 43 57 66 101 99 55 98 126 125 155 178 201 216 229 204 151 116 116 112 114 111 145
24 7 0 0 0 0 0 0 0 0 0 0 0 1 4 21 214 149 129 84 40 29 29 0 0 0 0 0 0 0 1 4 0 0 0 0 0 0 0 0 0 2 15 21 26 35 47 36 30 58 87 98 56 71 81 84 75 64 69 76 77 96 112
5 8 107 74 30 10 0 0 0 0 0 1 1 0 0 0 16 28 40 16 12 9 8 0 0 0 0 0 0 0 0 0 0 0 0 0 0 0 0 0 0 0 0 0 0 2 0 0 0 0 0 8 0 1 4 22 20 29 46 58 65 75 66
12 7 2 177 228 248 237 206 125 69 2 0 0 0 0 0 0 6 23 30 95 69 35 4 0 0 0 0 0 0 0 0 0 0 0 0 0 0 0 0 0 0 0 0 0 0 0 0 0 0 0 0 0 0 0 0 0 0 0 5 20 38 46
11 129 116 210 227 277 335 246 235 210 192 153 66 4 0 0 0 0 0 19 87 152 98 29 1 0 0 0 0 0 0 0 0 0 0 0 0 0 0 0 0 0 0 0 0 0 0 0 0 0 0 0 0 0 0 0 0 0 0 5 3 0 0
513 507 594 514 411 436 384 365 313 282 247 185 131 76 46 1 0 0 0 12 21 31 107 11 0 0 0 0 0 0 0 0 0 0 0 0 0 0 0 0 0 0 0 0 0 0 0 0 0 0 0 0 0 0 0 0 0 0 0 0 0 0 0
586 750 756 827 942 900 765 623 548 576 414 348 237 164 151 119 70 4 0 0 18 71 43 0 0 0 0 0 0 0 0 0 0 0 0 0 0 0 0 0 0 0 0 0 0 0 0 0 0 0 0 0 0 0 0 0 0 0 0 0 0 0 0

ECMWFFLT1_con_mucape_132.txt.gz
CAPE
990 978 1111 687 78 40 75 134 469 604 595 684 602 767 580 346 1082 1356 1611 2061 2253 2048 2091 2331 2289 2149 2014 1763 2047 2170 1945 2254 1891 1683 1754 1840 1712 1842 1517 1019 1113 1857 1514 1592 1937 1995 2453 1973 2366 1998 3176 3359 3158 3662 4441 4954 4255 3271 3941 4475 4480 3671 3580
1012 911 939 469 74 164 250 344 531 678 497 570 444 1051 777 721 1084 814 1624 2044 2128 2148 2063 1998 2482 2259 1914 1868 1636 2258 2198 2144 2087 2328 1638 2366 2705 2808 1658 1486 1566 1942 2410 1938 2126 1864 1985 1372 1964 2514 2388 3185 2811 3616 3550 4257 4054 3963 3289 3995 3840 4126 4069
598 810 808 634 385 428 416 302 326 441 495 528 400 423 640 1569 1414 1622 1953 1936 2156 2258 1928 1895 2331 1987 1943 2108 1968 2037 1798 1631 1799 1446 1331 1274 1489 1099 1233 1707 1742 1419 1040 1184 2024 1613 1213 1334 2268 2543 2331 2280 2193 3486 4103 4143 4149 3561 3743 4087 4500 3996 4440
255 524 726 762 669 656 511 528 610 545 494 270 717 303 1086 1732 1365 2061 2096 2097 1927 2167 2091 1627 1899 1546 1550 1906 1728 1840 1678 1732 1486 975 886 904 1056 1099 1472 1769 1898 1361 1591 1029 796 1048 759 1204 1724 2260 2541 2666 3057 2601 2994 3233 2987 3465 3514 3915 3956 3867 4426
1811 1121 363 492 286 592 1140 630 773 790 488 273 409 973 1408 1679 1441 1640 2086 1816 1746 2074 1718 1558 1515 1585 1441 1496 1399 1282 1490 1295 1327 939 758 797 1338 1444 1106 896 919 1209 1590 1124 1494 2066 2108 2148 745 2261 2361 2804 2290 2446 3198 3395 2891 3697 3897 3798 3844 3468 3504
1513 1140 1050 531 254 301 880 894 466 556 538 533 564 1078 652 640 1236 907 1355 1868 2243 1844 1720 1676 1317 1345 1266 1285 1000 951 1522 1760 1749 1611 1088 999 1272 868 969 914 937 1113 1136 1143 1059 952 1806 1437 1440 1290 1539 1567 1444 1305 1662 2242 2428 2423 3324 3674 3689 3451 2800
1614 1514 1247 838 996 1161 1710 1538 651 388 623 604 889 950 1188 698 822 1045 1391 1515 1743 1764 1655 1093 757 697 1132 1203 1348 1316 1322 1249 1442 1082 833 771 668 853 1149 1192 1461 967 982 1380 1415 1163 1056 1592 1679 1855 1377 1149 1919 1374 1618 2434 2451 2399 2800 3623 4057 3863 3786
1876 1560 1517 1786 819 1704 1661 1597 1125 634 1003 1266 1074 810 1201 945 538 923 843 1578 1487 1522 985 819 627 563 988 988 828 725 740 881 969 964 821 642 660 734 811 886 981 1356 1414 963 1418 1464 1049 1769 1371 1670 1715 1246 1315 1958 1264 2007 2904 1840 1931 2663 3160 3263 2443
1983 2328 2406 1564 1469 1118 932 754 532 851 1362 1350 1418 1778 1252 1061 1076 1004 1351 1490 1798 1873 1356 781 614 568 1052 889 860 995 695 783 985 925 865 741 550 504 581 628 795 1176 1064 1071 1092 1308 1356 1242 1552 2125 2070 1627 1784 2379 2062 2913 2233 1966 2275 2364 2886 2971 2513
1387 1983 1796 1715 1598 1926 1976 1422 1224 1462 1540 1548 1021 1167 1533 1365 1309 1295 2065 2159 2266 2056 2050 1172 644 1061 1380 1270 698 491 430 607 442 607 758 696 542 406 373 419 460 961 845 1027 978 972 1672 1401 1526 1966 2657 2410 2542 2888 2662 2639 2317 2168 2402 2670 2731 2518 2935
1354 1466 1592 1470 2008 1655 1468 1569 1511 1764 1022 844 1337 3808 3392 3166 2013 2609 1771 2031 1931 2678 2733 2460 2544 2406 1347 1732 1278 946 378 339 398 385 533 564 493 362 269 296 354 450 595 831 929 886 875 1884 1847 2142 2822 2130 2270 2513 2861 2517 2465 2678 2342 2156 1922 2225 1839
1522 1433 1416 1624 1670 1429 1428 1404 1632 1268 1146 1351 775 1671 2205 1934 2471 2895 2910 2330 2411 1888 1826 2899 2319 2931 2772 1828 1087 2121 1335 538 538 592 890 920 578 969 1634 769 259 355 499 841 1317 1189 1287 808 1395 1593 2237 2482 2703 2678 2796 2818 2804 3015 2924 2196 1674 1461 1650
1264 1087 1243 1405 1493 1181 1145 1218 923 1209 1230 1334 1300 826 2240 1966 1511 1928 962 842 1551 2172 2772 2920 2066 2019 1821 1697 1500 2129 1969 1986 1975 1840 1346 1335 1601 1138 1032 788 786 1392 755 579 863 1044 1611 1176 834 1010 1109 2038 2427 2168 2296 2741 2235 3323 3186 2773 2436 2192 2336
997 965 1175 1154 1136 936 896 1062 1117 1156 1417 1265 1650 1528 903 1406 1835 1714 1539 1436 1446 2109 2809 3152 3052 1993 1795 2011 2079 2093 2112 1853 2300 2266 3119 2513 2683 1926 1094 851 880 1376 1259 1068 977 1014 1378 1301 1136 1178 845 1350 1204 1516 2029 2316 2359 2886 2960 2838 2733 2826 2703
703 796 1129 978 759 739 690 567 689 844 893 1143 1570 1142 1467 1536 1775 1934 2047 1772 1554 1722 1171 2809 3144 3280 3294 2829 2494 4057 4258 4410 3718 3810 4098 3707 3822 2947 1701 1245 1130 1682 2087 2236 2355 2163 1667 1729 1715 1274 1440 1274 1063 922 1250 1378 1802 1628 1704 4048 3709 3409 3244
731 748 567 643 634 537 543 717 557 709 1040 1345 1319 1274 1185 1263 1745 1813 1647 2078 2633 2356 2251 2427 3008 3153 3812 3818 3487 3397 4160 3980 3980 3928 4481 4258 4043 3722 3279 2636 3108 3562 3515 3337 2830 1786 2534 2462 1675 1384 1519 1069 1518 930 1145 1480 1818 1653 2154 2855 3646 3651 3032
800 690 607 647 738 685 689 684 688 869 1310 1678 1428 1076 1387 1203 1109 1549 2039 2247 2529 2573 2584 2718 2631 3032 3128 3409 3494 3784 3653 3382 3345 3528 4142 4303 4286 4224 4012 3781 3608 3528 3238 2529 2218 2502 2007 2055 1651 1620 1634 1068 860 1143 1539 1464 1794 1063 1016 1146 1267 2968 2990
519 702 769 772 660 764 800 876 945 1019 1146 1451 1640 1582 1469 1886 1684 1844 1936 1978 1710 2066 2208 2303 2466 2500 2680 2770 2747 2772 3120 2912 2985 3142 3168 3116 3412 3358 3934 3785 3441 3272 2953 2524 2488 2395 1778 1526 1522 1755 1527 917 912 1377 1658 1120 831 909 907 949 1097 1241 1865
355 458 436 579 609 478 598 755 776 927 928 976 1254 1492 1673 1671 1527 1551 1792 1808 1454 2077 1842 1683 1694 1882 2048 2097 2062 2303 2223 2245 2373 2571 2404 2630 3043 2794 3233 3605 3340 3158 3014 2808 2447 2320 2018 2197 2116 1871 1856 1375 1364 1721 1558 1175 660 647 755 788 819 898 1214
284 228 340 278 157 232 562 704 664 800 797 786 812 847 1292 1635 1570 1570 1691 1998 2063 1791 1972 1750 1934 2227 2079 2360 2407 2472 2394 1509 1522 1585 2226 2852 3168 3369 3287 3387 3121 2965 2679 2336 2105 2019 2244 2265 2217 2312 1901 1572 1551 1400 1206 962 763 740 722 708 752 931 995
257 334 354 365 339 386 332 358 672 644 646 655 750 822 800 1034 1648 1619 1619 1784 1775 1923 1883 2024 2044 2159 2164 1818 1815 2155 2262 2506 2309 2338 2310 2003 2399 2921 3064 2902 3036 2784 2338 1868 1755 1826 1820 1782 1739 1888 1785 1715 1541 1250 826 716 773 730 802 929 968 986 1013
543 436 389 464 551 515 404 340 503 629 696 744 716 776 768 1175 1390 1424 1590 1601 1590 1717 1734 1578 1730 1703 1370 1402 1608 1883 1989 2050 1890 2110 2040 2015 2167 2023 1849 1874 1792 2092 2128 1659 1476 1414 1423 1303 1271 1471 1550 1701 1586 1069 952 864 874 834 871 1071 1156 1149 1168
752 632 537 528 654 622 610 539 360 464 626 620 638 609 602 837 1004 1057 1102 1092 1122 1136 1149 1200 1333 1346 1350 1168 1045 1146 1299 1220 1689 1868 1541 1478 1574 1563 1472 1356 1279 1870 2210 1646 1623 1477 1338 1342 1590 2116 1691 1549 1678 1100 882 762 751 770 787 784 892 1067 1221
654 809 708 645 652 679 613 630 490 417 278 402 441 452 465 639 824 964 1004 1006 1044 1049 1084 1171 1183 1120 1023 1010 990 1164 1220 1082 1045 1088 1241 1269 1211 1030 1008 1010 1117 1080 1850 1624 1706 1859 1897 2098 1586 1383 1618 1590 1467 1038 816 761 698 673 675 582 514 546 897
624 637 663 640 491 352 388 425 366 284 219 281 334 331 315 378 494 608 610 617 612 678 785 862 822 831 876 880 828 762 735 882 800 777 941 784 742 662 592 687 889 957 861 978 1340 1285 1200 1510 1362 1133 1136 1058 895 760 706 649 715 660 642 588 493 495 685
514 388 233 170 147 161 253 190 252 232 261 339 321 332 317 342 398 416 414 391 426 436 434 478 506 524 534 517 561 589 582 586 601 665 624 597 566 537 522 583 381 375 615 729 892 843 1113 891 826 940 950 936 738 660 641 568 611 644 606 504 431 391 486
506 247 72 16 24 59 63 186 231 278 317 275 302 300 275 235 274 351 384 389 389 393 365 404 411 408 384 382 340 330 314 263 240 257 285 296 326 341 332 339 261 280 581 687 670 697 745 809 771 700 804 802 784 799 802 717 635 580 512 448 392 368 455
299 78 7 28 82 19 0 1 160 174 167 174 171 192 187 153 152 228 256 281 277 303 286 210 209 187 208 227 232 225 186 126 235 197 197 182 171 194 182 60 10 31 174 290 603 600 554 711 649 644 619 547 650 766 752 661 566 520 484 461 455 474 506
96 256 41 63 34 67 12 45 134 118 142 122 119 132 138 153 139 120 145 191 197 196 183 165 143 129 117 94 75 104 131 134 132 140 153 139 5 56 132 1 4 139 249 441 356 492 443 588 570 518 571 657 694 599 505 531 480 431 422 416 394 378 354
140 61 2 16 6 18 35 35 33 84 85 102 92 90 91 92 110 114 103 108 103 101 96 107 94 0 0 0 0 0 0 29 12 12 23 17 10 8 5 2 69 2 17 138 121 186 224 292 406 379 385 280 326 335 332 347 438 417 384 340 346 351 290
55 2 0 0 1 9 18 44 46 33 60 86 91 91 130 80 88 91 96 87 85 93 81 17 0 0 0 0 0 0 0 0 0 0 0 0 0 2 6 7 6 6 5 0 1 1 4 42 84 117 132 230 269 262 296 287 245 254 225 210 80 47 54
0 1 0 0 2 2 0 1 2 72 80 63 116 140 233 128 79 124 53 24 30 0 0 16 0 0 0 0 0 0 0 0 0 0 0 0 0 0 2 3 4 3 1 0 0 0 1 3 74 154 191 207 211 200 183 125 108 123 146 170 103 70 80
38 52 15 11 10 16 1 0 0 1 10 13 146 162 149 190 172 235 356 242 33 6 45 0 0 0 0 0 0 0 0 0 0 0 0 0 0 0 0 0 0 0 0 0 0 0 0 0 0 0 10 38 56 42 25 4 0 6 29 34 36 58 70
466 27 58 6 0 2 3 5 11 17 17 22 30 28 3 6 36 73 127 31 19 17 6 6 0 0 0 0 0 0 0 0 0 0 0 0 0 0 0 0 0 0 0 0 0 0 0 0 0 0 0 0 0 0 0 0 0 0 0 0 8 15 29
19 417 462 322 275 430 363 116 54 34 0 0 8 32 111 103 58 27 77 83 124 373 120 3 0 0 0 0 0 0 0 0 0 0 0 0 0 0 0 0 0 0 0 0 0 0 0 0 0 0 0 0 0 0 0 0 0 0 0 0 0 0 0
358 242 265 280 354 404 443 450 374 199 141 133 78 27 33 28 52 98 18 83 86 76 17 30 22 0 0 0 0 0 0 0 0 0 0 0 0 0 0 0 0 0 0 0 0 0 0 0 0 0 0 0 0 0 0 0 0 0 0 0 0 0 0
393 391 318 170 369 440 491 428 338 216 218 295 374 138 99 58 1 51 26 100 79 7 81 5 0 0 0 0 0 0 0 0 0 0 0 0 0 0 0 0 0 0 0 0 0 0 0 0 0 0 0 0 0 0 0 0 0 0 0 0 0 0 0
414 378 851 685 541 604 530 529 472 390 314 285 291 239 179 48 75 170 18 36 28 34 69 171 142 2 0 0 10 82 6 0 0 0 0 0 0 0 0 0 0 0 0 0 0 0 0 0 0 0 0 0 0 0 0 0 0 0 0 0 0 0 0